[[{"header":{"parameterUnit":"m.s-1","parameterCategory":1,"la1":30.6,"la2":28.766,"lo1":-90.7593,"lo2":-88.6598,"dy":0.0162,"dx":0.0183,"nx":116,"ny":114,"refTime":"2024-05-13T06:00:00:Z","depth":0,"parameterNumber":2,"parameterNumberName":"U-component_of_WINDS"},"data":[0.0,0.0,0.0,0.0,0.0,0.0,0.0,0.0,0.0,0.0,0.0,0.0,0.0,0.0,0.0,0.0,0.0,0.0,0.0,0.0,0.0,0.0,0.0,0.0,0.0,0.0,0.0,0.0,0.0,0.0,0.0,0.0,0.0,0.0,0.0,0.0,0.0,0.0,0.0,0.0,0.0,0.0,0.0,0.0,0.0,0.0,0.0,0.0,0.0,0.0,0.0,0.0,0.0,0.0,0.0,0.0,0.0,0.0,0.0,0.0,0.0,0.0,0.0,0.0,0.0,0.0,0.0,0.0,0.0,0.0,0.0,0.0,0.0,0.0,0.0,0.0,0.0,0.0,0.0,0.0,0.0,0.0,0.0,0.0,0.0,0.0,0.0,0.0,0.0,0.0,0.0,0.0,0.0,0.0,0.0,0.0,0.0,0.0,0.0,0.0,0.0,0.0,0.0,0.0,0.0,0.0,0.0,0.0,0.0,0.0,0.0,0.0,0.0,0.0,0.0,0.0,0.0,0.0,0.0,0.0,0.0,0.0,0.0,0.0,0.0,0.0,0.0,0.0,0.0,0.0,0.0,0.0,0.0,0.0,0.0,0.0,0.0,0.0,0.0,0.0,0.0,0.0,0.0,0.0,0.0,0.0,0.0,0.0,0.0,0.0,0.0,0.0,0.0,0.0,0.0,0.0,0.0,0.0,0.0,0.0,0.0,0.0,0.0,0.0,0.0,0.0,0.0,0.0,0.0,0.0,0.0,0.0,0.0,0.0,0.0,0.0,0.0,0.0,0.0,0.0,0.0,0.0,0.0,0.0,0.0,0.0,0.0,0.0,0.0,0.0,0.0,0.0,0.0,0.0,0.0,0.0,0.0,0.0,0.0,0.0,0.0,0.0,0.0,0.0,0.0,0.0,0.0,0.0,0.0,0.0,0.0,0.0,0.0,0.0,0.0,0.0,0.0,0.0,0.0,0.0,0.0,0.0,0.0,0.0,0.0,0.0,0.0,0.0,0.0,0.0,0.0,0.0,0.0,0.0,0.0,0.0,0.0,0.0,0.0,0.0,0.0,0.0,0.0,0.0,0.0,0.0,0.0,0.0,0.0,0.0,0.0,0.0,0.0,0.0,0.0,0.0,0.0,0.0,0.0,0.0,0.0,0.0,0.0,0.0,0.0,0.0,0.0,0.0,0.0,0.0,0.0,0.0,0.0,0.0,0.0,0.0,0.0,0.0,0.0,0.0,0.0,0.0,0.0,0.0,0.0,0.0,0.0,0.0,0.0,0.0,0.0,0.0,0.0,0.0,0.0,0.0,0.0,0.0,0.0,0.0,0.0,0.0,0.0,0.0,0.0,0.0,0.0,0.0,0.0,0.0,0.0,0.0,0.0,0.0,0.0,0.0,0.0,0.0,0.0,0.0,0.0,0.0,0.0,0.0,0.0,0.0,0.0,0.0,0.0,0.0,0.0,0.0,0.0,0.0,0.0,0.0,0.0,0.0,0.0,0.0,0.0,0.0,0.0,0.0,0.0,0.0,0.0,0.0,0.0,0.0,0.0,0.0,0.0,0.0,0.0,0.0,0.0,0.0,0.0,0.0,0.0,0.0,0.0,0.0,0.0,0.0,0.0,0.0,0.0,0.0,0.0,0.0,0.0,0.0,0.0,0.0,0.0,0.0,0.0,0.0,0.0,0.0,0.0,0.0,0.0,0.0,0.0,0.0,0.0,0.0,0.0,0.0,0.0,0.0,0.0,0.0,0.0,0.0,0.0,0.0,0.0,0.0,0.0,0.0,0.0,0.0,0.0,0.0,0.0,0.0,0.0,0.0,0.0,0.0,0.0,0.0,0.0,0.0,0.0,0.0,0.0,0.0,0.0,0.0,0.0,0.0,0.0,0.0,0.0,0.0,0.0,0.0,0.0,0.0,0.0,0.0,0.0,0.0,0.0,0.0,0.0,0.0,0.0,0.0,0.0,0.0,0.0,0.0,0.0,0.0,0.0,0.0,0.0,0.0,0.0,0.0,0.0,0.0,0.0,0.0,0.0,0.0,0.0,0.0,0.0,0.0,0.0,0.0,0.0,0.0,0.0,0.0,0.0,0.0,0.0,0.0,0.0,0.0,0.0,0.0,0.0,0.0,0.0,0.0,0.0,0.0,0.0,0.0,0.0,0.0,0.0,0.0,0.0,0.0,0.0,0.0,0.0,0.0,0.0,0.0,0.0,0.0,0.0,0.0,0.0,0.0,0.0,0.0,0.0,0.0,0.0,0.0,0.0,0.0,0.0,0.0,0.0,0.0,0.0,0.0,0.0,0.0,0.0,0.0,0.0,0.0,0.0,0.0,0.0,0.0,0.0,0.0,0.0,0.0,0.0,0.0,0.0,0.0,0.0,0.0,0.0,0.0,0.0,0.0,0.0,0.0,0.0,0.0,0.0,0.0,0.0,0.0,0.0,0.0,0.0,0.0,0.0,0.0,0.0,0.0,0.0,0.0,0.0,0.0,0.0,0.0,0.0,0.0,0.0,0.0,0.0,0.0,0.0,0.0,0.0,0.0,0.0,0.0,0.0,0.0,0.0,0.0,0.0,0.0,0.0,0.0,0.0,0.0,0.0,0.0,0.0,0.0,0.0,0.0,0.0,0.0,0.0,0.0,0.0,0.0,0.0,0.0,0.0,0.0,0.0,0.0,0.0,0.0,0.0,0.0,0.0,0.0,0.0,0.0,0.0,0.0,0.0,0.0,0.0,0.0,0.0,0.0,0.0,0.0,0.0,0.0,0.0,0.0,0.0,0.0,0.0,0.0,0.0,0.0,0.0,0.0,0.0,0.0,0.0,0.0,0.0,0.0,0.0,0.0,0.0,0.0,0.0,0.0,0.0,0.0,0.0,0.0,0.0,0.0,0.0,0.0,0.0,0.0,0.0,0.0,0.0,0.0,0.0,0.0,0.0,0.0,0.0,0.0,0.0,0.0,0.0,0.0,0.0,0.0,0.0,0.0,0.0,0.0,0.0,0.0,0.0,0.0,0.0,0.0,0.0,0.0,0.0,0.0,0.0,0.0,0.0,0.0,0.0,0.0,0.0,0.0,0.0,0.0,0.0,0.0,0.0,0.0,0.0,0.0,0.0,0.0,0.0,0.0,0.0,0.0,0.0,0.0,0.0,0.0,0.0,0.0,0.0,0.0,0.0,0.0,0.0,0.0,0.0,0.0,0.0,0.0,0.0,0.0,0.0,0.0,0.0,0.0,0.0,0.0,0.0,0.0,0.0,0.0,0.0,0.0,0.0,0.0,0.0,0.0,0.0,0.0,0.0,0.0,0.0,0.0,0.0,0.0,0.0,0.0,0.0,0.0,0.0,0.0,0.0,0.0,0.0,0.0,0.0,0.0,0.0,0.0,0.0,0.0,0.0,0.0,0.0,0.0,0.0,0.0,0.0,0.0,0.0,0.0,0.0,0.0,0.0,0.0,0.0,0.0,0.0,0.0,0.0,0.0,0.0,0.0,0.0,0.0,0.0,0.0,0.0,0.0,0.0,0.0,0.0,0.0,0.0,0.0,0.0,0.0,0.0,0.0,0.0,0.0,0.0,0.0,0.0,0.0,0.0,0.0,0.0,0.0,0.0,0.0,0.0,0.0,0.0,0.0,0.0,0.0,0.0,0.0,0.0,0.0,0.0,0.0,0.0,0.0,0.0,0.0,0.0,0.0,0.0,0.0,0.0,0.0,0.0,0.0,0.0,0.0,0.0,0.0,0.0,0.0,0.0,0.0,0.0,0.0,0.0,0.0,0.0,0.0,0.0,0.0,0.0,0.0,0.0,0.0,0.0,0.0,0.0,0.0,0.0,0.0,0.0,0.0,0.0,0.0,0.0,0.0,0.0,0.0,0.0,0.0,0.0,0.0,0.0,0.0,0.0,0.0,0.0,0.0,0.0,0.0,0.0,0.0,0.0,0.0,0.0,0.0,0.0,0.0,0.0,0.0,0.0,0.0,0.0,0.0,0.0,0.0,0.0,0.0,0.0,0.0,0.0,0.0,0.0,0.0,0.0,0.0,0.0,0.0,0.0,0.0,0.0,0.0,0.0,0.0,0.0,0.0,0.0,0.0,0.0,0.0,0.0,0.0,0.0,0.0,0.0,0.0,0.0,0.0,0.0,0.0,0.0,0.0,0.0,0.0,0.0,0.0,0.0,0.0,0.0,0.0,0.0,0.0,0.0,0.0,0.0,0.0,0.0,0.0,0.0,0.0,0.0,0.0,0.0,0.0,0.0,0.0,0.0,0.0,0.0,0.0,0.0,0.0,0.0,0.0,0.0,0.0,0.0,0.0,0.0,0.0,0.0,0.0,0.0,0.0,0.0,0.0,0.0,0.0,0.0,0.0,0.0,0.0,0.0,0.0,0.0,0.0,0.0,0.0,0.0,0.0,0.0,0.0,0.0,0.0,0.0,0.0,0.0,0.0,0.0,0.0,0.0,0.0,0.0,0.0,0.0,0.0,0.0,0.0,0.0,0.0,0.0,0.0,0.0,0.0,0.0,0.0,0.0,0.0,0.0,0.0,0.0,0.0,0.0,0.0,0.0,0.0,0.0,0.0,0.0,0.0,0.0,0.0,0.0,0.0,0.0,0.0,0.0,0.0,0.0,0.0,0.0,0.0,0.0,0.0,0.0,0.0,0.0,0.0,0.0,0.0,0.0,0.0,0.0,0.0,0.0,0.0,0.0,0.0,0.0,0.0,0.0,0.0,0.0,0.0,0.0,0.0,0.0,0.0,0.0,0.0,0.0,0.0,0.0,0.0,0.0,0.0,0.0,0.0,0.0,0.0,0.0,0.0,0.0,0.0,0.0,0.0,0.0,0.0,0.0,0.0,0.0,0.0,0.0,0.0,0.0,0.0,0.0,0.0,0.0,0.0,0.0,0.0,0.0,0.0,0.0,0.0,0.0,0.0,0.0,0.0,0.0,0.0,0.0,0.0,0.0,0.0,0.0,0.0,0.0,0.0,0.0,0.0,0.0,0.0,0.0,0.0,0.0,0.0,0.0,0.0,0.0,0.0,0.0,0.0,0.0,0.0,0.0,0.0,0.0,0.0,0.0,0.0,0.0,0.0,0.0,0.0,0.0,0.0,0.0,0.0,0.0,0.0,0.0,0.0,0.0,0.0,0.0,0.0,0.0,0.0,0.0,0.0,0.0,0.0,0.0,0.0,0.0,0.0,0.0,0.0,0.0,0.0,0.0,0.0,0.0,0.0,0.0,0.0,0.0,0.0,0.0,0.0,0.0,0.0,0.0,0.0,0.0,0.0,0.0,0.0,0.0,0.0,0.0,0.0,0.0,0.0,0.0,0.0,0.0,0.0,0.0,0.0,0.0,0.0,0.0,0.0,0.0,0.0,0.0,0.0,0.0,0.0,0.0,0.0,0.0,0.0,0.0,0.0,0.0,0.0,0.0,0.0,0.0,0.0,0.0,0.0,0.0,0.0,0.0,0.0,0.0,0.0,0.0,0.0,0.0,0.0,0.0,0.0,0.0,0.0,0.0,0.0,0.0,0.0,0.0,0.0,0.0,0.0,0.0,0.0,0.0,0.0,0.0,0.0,0.0,0.0,0.0,0.0,0.0,0.0,0.0,0.0,0.0,0.0,0.0,0.0,0.0,0.0,0.0,0.0,0.0,0.0,0.0,0.0,0.0,0.0,0.0,0.0,0.0,0.0,0.0,0.0,0.0,0.0,0.0,0.0,0.0,0.0,0.0,0.0,0.0,0.0,0.0,0.0,0.0,0.0,0.0,0.0,0.0,0.0,0.0,0.0,0.0,0.0,0.0,0.0,0.0,0.0,0.0,0.0,0.0,0.0,0.0,0.0,0.0,0.0,0.0,0.0,0.0,0.0,0.0,0.0,0.0,0.0,0.0,0.0,0.0,0.0,0.0,0.0,0.0,0.0,0.0,0.0,0.0,0.0,0.0,0.0,0.0,0.0,0.0,0.0,0.0,0.0,0.0,0.0,0.0,0.0,0.0,0.0,0.0,0.0,0.0,0.0,0.0,0.0,0.0,0.0,0.0,0.0,0.0,0.0,0.0,0.0,0.0,0.0,0.0,0.0,0.0,0.0,0.0,0.0,-5.3856,-5.3145,0.0,0.0,0.0,0.0,0.0,0.0,0.0,0.0,0.0,0.0,0.0,0.0,0.0,0.0,0.0,0.0,0.0,0.0,0.0,0.0,0.0,0.0,0.0,-1.4497,-1.564,-1.6005,-1.7195,-1.8339,-1.9409,0.0,0.0,0.0,0.0,0.0,-2.2469,-2.4676,-2.6972,-2.9318,-3.0458,-3.14,-3.1916,-3.1288,-3.0877,-3.0619,0.0,0.0,0.0,0.0,0.0,0.0,0.0,0.0,0.0,0.0,0.0,0.0,0.0,0.0,0.0,0.0,0.0,0.0,0.0,0.0,0.0,0.0,0.0,0.0,0.0,0.0,0.0,0.0,0.0,0.0,0.0,0.0,0.0,0.0,0.0,0.0,0.0,0.0,0.0,0.0,0.0,0.0,0.0,0.0,0.0,0.0,0.0,0.0,0.0,0.0,0.0,0.0,0.0,0.0,0.0,0.0,0.0,0.0,0.0,0.0,0.0,0.0,0.0,0.0,0.0,0.0,0.0,0.0,0.0,0.0,-5.9032,-5.6934,0.0,0.0,0.0,0.0,0.0,0.0,0.0,0.0,0.0,0.0,0.0,0.0,0.0,0.0,0.0,0.0,0.0,0.0,0.0,0.0,0.0,-1.3977,-1.3444,-1.4944,-1.5823,-1.5312,-1.7208,-1.8709,-1.9439,-1.9984,0.0,0.0,-2.1531,-2.2642,-2.4377,-2.6,-2.8094,-3.076,-3.1556,-3.1817,-3.1575,-3.1322,-3.1472,-3.1898,-3.0592,0.0,0.0,0.0,0.0,0.0,0.0,0.0,0.0,0.0,0.0,0.0,0.0,0.0,0.0,0.0,0.0,0.0,0.0,0.0,0.0,0.0,0.0,0.0,0.0,0.0,0.0,0.0,0.0,0.0,0.0,0.0,0.0,0.0,0.0,0.0,0.0,0.0,0.0,0.0,0.0,0.0,0.0,0.0,0.0,0.0,0.0,0.0,0.0,0.0,0.0,0.0,0.0,0.0,0.0,0.0,0.0,0.0,0.0,0.0,0.0,0.0,0.0,0.0,-6.6702,-6.7796,-6.7624,-6.8605,-6.9147,-6.9113,-6.6305,-6.2888,-5.9302,-6.0148,0.0,0.0,0.0,0.0,0.0,0.0,0.0,0.0,0.0,0.0,0.0,0.0,0.0,0.0,0.0,0.0,0.0,0.0,0.0,-1.4348,-1.372,-1.5668,-1.7011,-1.7103,-1.903,-2.0605,-2.1477,-2.1578,-2.166,-2.1719,-2.3477,-2.4659,-2.4892,-2.7324,-2.9221,-3.0459,-3.1951,-3.2311,-3.1735,-3.2011,-3.2041,-3.172,-2.8876,-2.8564,-3.0225,0.0,0.0,0.0,0.0,0.0,0.0,0.0,0.0,0.0,0.0,0.0,0.0,0.0,0.0,0.0,0.0,0.0,0.0,0.0,0.0,0.0,0.0,0.0,0.0,0.0,0.0,0.0,0.0,0.0,0.0,0.0,0.0,0.0,0.0,0.0,0.0,0.0,0.0,0.0,0.0,0.0,-4.0307,-4.1145,0.0,0.0,0.0,0.0,0.0,0.0,0.0,0.0,0.0,0.0,0.0,0.0,0.0,-6.4456,-6.5459,-6.8176,-6.8797,-6.7354,-7.025,-7.13,-7.0804,-7.28,-7.4086,-7.4728,-7.5574,0.0,-6.4512,-6.2787,0.0,0.0,0.0,0.0,0.0,0.0,0.0,0.0,0.0,0.0,0.0,0.0,0.0,0.0,0.0,0.0,0.0,0.0,0.0,0.0,0.0,-1.6764,-1.7588,-1.6553,-1.8599,-1.9955,-1.9827,-2.0237,-2.0765,-2.1193,-2.2129,-2.3639,-2.5833,-2.7506,-2.9777,-3.2698,-3.3751,-3.3766,-3.2796,-3.2405,-3.1869,-3.1182,-2.9621,-2.9394,-3.0378,-2.9466,0.0,0.0,0.0,0.0,0.0,0.0,0.0,0.0,0.0,0.0,0.0,0.0,0.0,0.0,0.0,0.0,0.0,0.0,0.0,0.0,0.0,0.0,0.0,0.0,0.0,0.0,0.0,0.0,0.0,0.0,0.0,0.0,0.0,0.0,0.0,0.0,0.0,0.0,0.0,-4.1265,-4.297,-4.2521,-4.4825,-4.6022,0.0,0.0,0.0,0.0,0.0,0.0,0.0,0.0,0.0,-6.5241,-6.7746,-6.9654,-7.0987,-7.3386,-7.424,-7.3578,-7.5743,-7.6623,-7.6352,-7.8179,-7.9397,-8.0107,-8.0784,-7.8822,-7.4728,-6.9958,-6.5256,-6.0892,0.0,0.0,0.0,0.0,-6.0632,-6.253,0.0,0.0,0.0,0.0,0.0,0.0,0.0,0.0,0.0,0.0,0.0,0.0,-1.5783,-1.7204,-1.7828,-1.662,-1.8441,-1.9475,-1.9141,-1.9423,-2.0012,-2.1016,-2.1466,-2.3188,-2.6461,-2.8292,-3.11,-3.4977,-3.583,-3.5857,-3.5001,-3.4538,-3.3862,-3.2926,-3.225,-3.1584,-3.1034,-3.0122,-2.952,-2.9255,0.0,0.0,0.0,0.0,0.0,0.0,0.0,0.0,0.0,0.0,0.0,0.0,0.0,0.0,0.0,0.0,0.0,0.0,0.0,0.0,0.0,0.0,0.0,0.0,0.0,0.0,0.0,0.0,0.0,0.0,0.0,0.0,0.0,0.0,0.0,0.0,0.0,-4.3728,-4.5125,-4.3958,-4.6364,-4.7525,0.0,0.0,0.0,0.0,0.0,0.0,-6.1559,-6.4174,-6.7373,-7.135,-7.3426,-7.5373,-7.7076,-7.8483,-7.9177,-7.9126,-8.004,-8.0682,-8.1088,-8.2374,-8.3389,-8.4065,-8.4065,-8.3558,-8.2205,-7.5845,-7.0439,-6.6119,-6.513,-6.4307,-6.3796,-6.5927,-6.744,-6.8954,0.0,0.0,0.0,0.0,0.0,0.0,0.0,0.0,0.0,0.0,0.0,-1.5146,-1.5792,-1.6692,-1.762,-1.879,-1.963,-2.0573,-2.1425,-2.0459,-2.055,-2.2026,-2.3604,-2.5061,-2.6483,-3.0676,-3.3972,-3.6276,-3.7889,-3.8797,-3.888,-3.9789,-3.9709,-3.8739,-3.7031,-3.5047,-3.2529,-3.0314,-2.9807,-3.037,-2.8462,0.0,0.0,0.0,0.0,0.0,0.0,0.0,0.0,0.0,0.0,0.0,0.0,0.0,0.0,0.0,0.0,0.0,0.0,0.0,0.0,0.0,0.0,0.0,0.0,0.0,0.0,0.0,0.0,0.0,0.0,0.0,0.0,0.0,0.0,0.0,0.0,0.0,0.0,-4.5274,-4.8038,0.0,0.0,0.0,0.0,-5.5208,-5.8029,-6.1643,-6.6255,-6.9316,-7.3468,-7.9108,-8.065,-8.2558,-8.4778,-8.4127,-8.3242,-8.2171,-8.1528,-8.1968,-8.3355,-8.4167,-8.4945,-8.5655,-8.5655,-8.4809,-8.3016,-7.7705,-7.4752,-7.3192,-6.9593,-6.8849,-6.9878,-7.0733,-7.2406,-7.429,0.0,0.0,0.0,0.0,0.0,-1.4212,-1.3906,-1.4466,-1.5035,-1.538,-1.5725,-1.611,-1.6477,-1.7295,-1.8001,-1.8318,-1.9198,-1.9671,-1.9599,-1.9807,-2.0585,-2.203,-2.3746,-2.6555,-3.0636,-3.3654,-3.6458,-3.9044,-3.9692,-4.0475,-4.1543,-3.9724,-3.893,-3.9174,-3.7094,-3.5798,-3.4668,-3.1939,-3.0631,-3.0408,-2.8634,-2.8477,0.0,0.0,0.0,0.0,0.0,0.0,0.0,0.0,0.0,0.0,0.0,0.0,0.0,0.0,0.0,0.0,0.0,0.0,0.0,0.0,0.0,0.0,0.0,0.0,0.0,0.0,0.0,0.0,0.0,0.0,0.0,0.0,0.0,0.0,0.0,0.0,0.0,-4.9165,-5.1811,0.0,-5.1817,-5.3316,-5.5998,-5.9548,-6.2997,-6.6974,-7.1559,-7.4695,-7.8518,-8.3286,-8.4266,-8.5686,-8.7488,-8.7246,-8.6473,-8.5317,-8.5046,-8.5182,-8.5689,-8.596,-8.6264,-8.6467,-8.5993,-8.5486,-8.4742,-8.19,-7.9536,-7.765,-7.6261,-7.6222,-7.7037,-7.8958,-8.051,-8.1845,0.0,0.0,0.0,-1.3092,-1.333,-1.3613,-1.36,-1.3939,-1.4325,-1.4712,-1.5235,-1.5876,-1.6657,-1.7497,-1.8184,-1.8651,-1.9132,-1.9469,-1.9597,-1.9549,-2.0416,-2.2249,-2.4869,-2.844,-3.3006,-3.5576,-3.7751,-3.9358,-4.0583,-4.1376,-4.194,-4.0472,-3.9953,-4.0051,-3.8085,-3.7365,-3.7089,-3.4418,-3.2375,-3.0831,-2.9518,-2.9872,-3.0767,0.0,0.0,0.0,0.0,0.0,0.0,0.0,0.0,0.0,0.0,0.0,0.0,0.0,0.0,0.0,0.0,0.0,0.0,0.0,0.0,0.0,0.0,0.0,0.0,0.0,0.0,0.0,0.0,0.0,0.0,0.0,0.0,0.0,0.0,0.0,-5.0853,-5.1787,-5.4346,-5.5822,-5.5137,-5.7543,-6.0621,-6.4318,-6.8175,-7.2271,-7.6594,-7.9228,-8.2376,-8.6379,-8.6605,-8.7468,-8.9498,-8.8778,-8.8008,-8.7279,-8.7042,-8.6907,-8.6907,-8.7177,-8.7279,-8.7245,-8.6501,-8.6163,-8.6027,-8.4964,-8.3748,-8.2571,-8.2082,-8.2559,-8.3754,-8.5368,-8.6354,-8.6901,0.0,-1.3494,-1.2816,-1.2262,-1.241,-1.2492,-1.1965,-1.2118,-1.2518,-1.312,-1.324,-1.4148,-1.646,-1.7109,-1.8131,-2.0067,-1.9811,-2.015,-2.1802,-2.0119,-2.0237,-2.2832,-2.742,-3.088,-3.3311,-3.6297,-3.7696,-3.7339,-4.0453,-4.1475,-4.0338,-4.2474,-4.2731,-4.1703,-4.0451,-3.9846,-3.9708,-3.7668,-3.4746,-3.1761,-3.1244,-3.193,-3.3028,0.0,0.0,0.0,0.0,0.0,0.0,0.0,0.0,0.0,0.0,0.0,0.0,0.0,0.0,0.0,0.0,0.0,0.0,0.0,0.0,0.0,0.0,0.0,0.0,0.0,0.0,0.0,0.0,0.0,0.0,0.0,0.0,0.0,-4.6958,-5.1337,-5.4008,-5.297,-5.5646,-5.7724,-5.8484,-6.104,-6.4645,-6.9317,-7.3777,-7.767,-8.1224,-8.2746,-8.5136,-8.8565,-8.7526,-8.817,-9.085,-8.8994,-8.7989,-8.7989,-8.7279,-8.6974,-8.7008,-8.7719,-8.8023,-8.7922,-8.7211,-8.6873,-8.6813,-8.6472,-8.7116,-8.8082,-8.6559,-8.7493,-8.9491,-8.9491,-8.9491,-8.9381,-1.2687,-1.2258,-1.1947,-1.1451,-1.1558,-1.1792,-1.1895,-1.2118,-1.2438,-1.2826,-1.3814,-1.5137,-1.6847,-1.8794,-2.0652,-2.1968,-2.2015,-2.2274,-2.2941,-2.194,-2.3015,-2.6657,-2.9258,-3.2158,-3.5617,-3.668,-3.8005,-3.9489,-4.0389,-4.1045,-4.1365,-4.0716,-4.0554,-4.0805,-3.8865,-3.8146,-3.8405,-3.7566,-3.7188,-3.7032,-3.4533,-3.3673,-3.3771,0.0,0.0,0.0,0.0,0.0,0.0,0.0,0.0,0.0,0.0,0.0,0.0,0.0,0.0,0.0,0.0,0.0,0.0,0.0,0.0,0.0,0.0,0.0,0.0,0.0,0.0,0.0,0.0,0.0,0.0,0.0,-4.6041,-4.7799,-4.928,-5.1347,-5.3912,-5.7349,-5.9642,-6.2033,-6.4774,-6.8382,-7.1694,-7.4759,-7.8541,-8.1319,-8.2813,-8.4336,-8.5633,-8.6636,-8.682,-8.7294,-8.796,-8.7498,-8.7482,-8.7989,-8.7786,-8.7989,-8.8497,-8.87,-8.8192,-8.7211,-8.7008,-8.6734,-8.6573,-8.6424,-8.7712,-8.9474,-8.9008,-8.9791,-9.1143,-9.1143,-9.1143,-9.0959,-1.2992,-1.2258,-1.1714,-1.1397,-1.1342,-1.149,-1.1663,-1.2144,-1.2599,-1.2906,-1.4122,-1.5749,-1.7596,-1.9681,-2.1481,-2.2751,-2.3135,-2.3234,-2.3375,-2.3573,-2.5199,-2.8676,-3.0979,-3.3395,-3.6037,-3.7191,-3.8038,-3.8439,-3.9412,-3.967,-3.9396,-3.9395,-3.9309,-3.9149,-3.8181,-3.7969,-3.8184,-3.8746,-3.9327,-3.996,-3.9226,-3.8687,-3.8044,-3.6675,-3.7215,-3.8185,-3.5814,-3.5629,-3.6157,-3.3662,0.0,0.0,0.0,0.0,0.0,0.0,0.0,0.0,0.0,0.0,0.0,0.0,0.0,0.0,0.0,0.0,0.0,0.0,0.0,0.0,0.0,0.0,0.0,0.0,-4.765,-4.9907,-5.1487,-5.2874,-5.5235,-5.9589,-6.1904,-6.4837,-6.8907,-7.262,-7.6023,-7.8508,-8.1303,-8.3186,-8.393,-8.4809,-8.5452,-8.5757,-8.6196,-8.6602,-8.6907,-8.6907,-8.7144,-8.755,-8.755,-8.7753,-8.8158,-8.8158,-8.7719,-8.6873,-8.7147,-8.7023,-8.6998,-8.7632,-8.8754,-9.0042,0.0,0.0,0.0,0.0,-9.1904,-9.1178,-1.3957,-1.281,-1.1764,-1.1717,-1.1549,-1.1423,-1.1423,-1.2171,-1.2916,-1.3236,-1.4385,-1.6113,-1.8393,-2.004,-2.1464,-2.2868,-2.3376,-2.3696,-2.3573,-2.4862,-2.6804,-2.9477,-3.2267,-3.4212,-3.5232,-3.7501,-3.7868,-3.6016,-3.8024,-3.7888,-3.6113,-3.8514,-3.8804,-3.7402,-3.8223,-3.872,-3.8991,-4.0636,-4.1376,-4.1645,-4.4256,-4.4706,-4.3695,-4.1682,-4.1806,-4.2735,-4.0099,-3.8177,-3.6661,-3.4841,0.0,0.0,0.0,0.0,0.0,0.0,0.0,0.0,0.0,0.0,0.0,0.0,0.0,0.0,0.0,0.0,0.0,0.0,0.0,0.0,0.0,0.0,0.0,0.0,-4.9031,-5.1434,-5.3923,-5.5468,-5.7485,-6.08,-6.3231,-6.6725,-7.1758,-7.5083,-7.8222,-8.1236,-8.2852,-8.393,-8.4606,0.0,0.0,0.0,0.0,-8.6061,-8.6636,-8.6636,-8.6704,-8.6771,-8.6771,-8.6839,-8.6907,-8.6907,-8.6948,-8.703,-8.7366,-8.7691,-8.8007,-8.9421,-9.0168,-9.0292,-9.0292,-9.1024,-9.2018,-9.2682,-9.2105,-9.0795,-1.2626,-1.2012,-1.1593,-1.0919,-1.1168,-1.1423,-1.1423,-1.2171,-1.2982,-1.352,-1.5438,-1.7161,-1.8039,-2.0674,-2.2941,-2.4158,-2.428,-2.4524,-2.5197,-2.4908,-2.6295,-2.9925,-3.1979,-3.3624,-3.4803,-3.6285,-3.672,-3.6016,-3.6838,-3.7016,-3.6562,-3.747,-3.7744,-3.7832,-3.834,-3.9405,-4.0779,-4.1184,-4.2922,-4.5652,-4.5715,-4.5039,-4.3764,-4.3342,-4.3363,-4.3388,-4.153,-4.2013,-4.3044,-3.9163,-3.8147,-3.7909,-3.3862,-3.2007,0.0,0.0,0.0,0.0,0.0,0.0,0.0,0.0,0.0,0.0,0.0,0.0,0.0,0.0,0.0,0.0,0.0,0.0,0.0,-4.975,-5.1203,-5.3179,-5.7148,-5.8025,-5.9791,-6.4062,-6.5678,-6.9096,-7.5864,-7.7708,-7.9722,-8.2858,-8.3925,-8.4471,-8.4606,-8.5215,-8.5351,-8.4877,-8.5452,-8.5554,-8.508,-8.5046,-8.5384,-8.5993,-8.5993,0.0,-8.6907,-8.6907,-8.7147,-8.7467,-8.7496,-8.837,-8.9677,-8.9914,-9.099,-9.2387,-9.2387,-9.2558,-9.2784,-9.2838,-9.2636,-9.2013,-1.2351,-1.2334,-1.2334,-1.1525,-1.1519,-1.165,-1.165,-1.2903,-1.3892,-1.4186,-1.6299,-1.8233,-1.9297,-2.1898,-2.3956,-2.4871,-2.4921,-2.5185,-2.5977,-2.6308,-2.7714,-3.0742,-3.2715,-3.4258,-3.5332,-3.6641,-3.709,-3.666,-3.709,-3.7187,-3.6992,-3.7422,-3.7734,-3.7949,-3.8379,-3.9815,-4.1825,-4.2655,-4.4864,-4.7718,-4.8331,-4.8167,-4.7366,-4.6213,-4.5849,-4.5579,-4.3517,-4.3072,-4.2994,-3.9941,-3.8729,-3.801,-3.553,-3.4644,-3.4513,0.0,0.0,0.0,0.0,0.0,0.0,0.0,0.0,0.0,0.0,0.0,0.0,0.0,0.0,-4.3573,-4.5367,0.0,-4.8748,-5.1305,-5.3569,-5.5867,-5.8378,-5.9659,-6.1376,-6.4426,-6.634,-6.9621,-7.4984,-7.7027,-7.9106,-8.1443,-8.2,-8.2572,-8.331,-8.3788,-8.4186,-8.464,-8.5012,-8.5012,-8.464,-8.464,-8.4809,-8.5215,-8.5215,-8.5384,-8.5757,-8.64,-8.6748,-8.7038,-8.831,-8.9233,-9.0123,-9.1141,-9.2313,-9.3589,-9.3935,-9.3878,-9.3535,-9.3426,-9.2609,-9.1355,-1.2363,-1.2662,-1.2916,-1.2217,-1.1984,-1.1864,-1.1864,-1.3575,-1.4849,-1.5004,-1.7155,-1.9212,-2.081,-2.2776,-2.4391,-2.5314,-2.5367,-2.5819,-2.6903,-2.7629,-2.9191,-3.166,-3.3808,-3.5508,-3.638,-3.7788,-3.8367,-3.8246,-3.8266,-3.8224,-3.7966,-3.7896,-3.8092,-3.862,-3.9057,-4.072,-4.3305,-4.4945,-4.6889,-4.9125,-5.0687,-5.1139,-5.0489,-4.8575,-4.7855,-4.7478,-4.4928,-4.2928,-4.1307,-3.9982,-3.842,-3.7003,-3.668,-3.7146,-3.7382,-3.5585,-3.6618,0.0,0.0,0.0,0.0,0.0,0.0,0.0,0.0,0.0,-4.3529,-4.4058,-4.4705,-4.5659,-4.7349,-4.8989,-5.0394,-5.1624,-5.4941,-5.7719,-5.8564,-6.0547,-6.2484,-6.3623,-6.6342,-6.9616,-7.3087,-7.5754,-7.8059,-7.9681,-7.9771,-8.0376,-8.1621,-8.1737,-8.2458,-8.4143,-8.4143,-8.4251,-8.464,-8.464,-8.464,-8.464,-8.464,-8.4713,-8.4961,-8.5953,-8.6672,-8.7211,-8.9569,-9.0606,-9.0761,-9.2484,-9.3573,-9.4107,-9.4734,-9.4572,-9.401,-9.393,-9.2417,-9.0247,-1.1996,-1.2112,-1.2152,-1.1587,-1.172,-1.1864,-1.1864,-1.3575,-1.4988,-1.5577,-1.7891,-1.9981,-2.122,-2.2289,-2.3642,-2.5407,-2.5228,-2.6084,-2.8837,-2.7853,-2.8822,-3.2539,-3.496,-3.6684,-3.7707,-3.9693,-4.0956,-4.1463,-4.0223,-3.9958,-4.0313,-3.8726,-3.8946,-4.1001,-4.148,-4.3806,-4.7087,-4.7832,-4.9213,-5.1005,-5.1272,-5.0259,-4.8595,-4.7901,-4.7772,-4.7241,-4.3602,-4.2339,-4.2356,-4.0808,-4.0197,-3.9849,-3.8521,-3.7723,-3.7061,-3.6672,-3.6505,-3.6734,-3.8342,-3.9635,-4.122,-4.4403,-4.2981,-4.131,0.0,0.0,-4.3835,-4.3806,-4.5497,-4.6636,-4.6102,-4.7559,-4.9391,-5.038,-5.3522,-5.6367,-5.8256,-6.0474,-6.2169,-6.2896,-6.649,-7.0148,-7.3801,-7.606,-7.8028,-7.9649,-7.9803,-7.9925,-8.0046,-8.0014,-8.0852,-8.2458,-8.2458,-8.3166,-8.464,-8.464,-8.464,-8.464,-8.464,-8.517,-8.6217,-8.6316,-8.7585,-8.9724,-9.176,-9.2691,-9.2756,-9.361,-9.397,-9.3953,-9.3999,-9.3927,-9.3755,-9.3716,-9.2253,-8.9931,-1.1623,-1.1675,-1.1913,-1.2614,-1.2246,-1.2131,-1.287,-1.45,-1.6027,-1.6942,-1.9601,-2.1628,-2.2129,-2.4051,-2.5622,-2.6102,-2.6195,-2.6722,-2.7925,-2.7835,-2.9144,-3.2305,-3.4087,-3.584,-3.7464,-3.9516,-4.1087,-4.2324,-4.1229,-4.0864,-4.1053,-3.9385,-3.9188,-4.0076,-4.0686,-4.246,-4.5279,-4.5478,-4.6871,-4.8756,-4.8756,-4.8308,-4.7271,-4.4923,-4.3596,-4.2839,-4.1723,-4.1076,0.0,-4.0094,-4.0059,-4.0382,-4.0105,-3.9633,-3.89,-3.827,-3.8114,-3.8516,-3.9562,-4.1797,0.0,0.0,-4.5135,-4.5096,-4.609,-4.6357,-4.6404,-4.6188,-4.7983,-4.9706,-5.0247,-5.1345,-5.2283,0.0,-5.4349,-5.5518,-5.6368,-5.8546,-5.9771,-5.9406,-6.3052,-6.7079,-7.0819,-7.2988,-7.4872,-7.6831,-7.6962,-7.7352,-7.8313,-7.8282,-7.9527,-8.2083,-8.223,-8.2942,-8.4606,-8.464,-8.464,-8.4606,-8.5344,-8.5852,-8.6414,-8.7861,-8.9474,-9.1136,-9.2461,-9.3264,-9.361,-9.3426,-9.3542,-9.3816,-9.2907,-9.2223,-9.1864,-9.268,-9.1865,-8.9942,-1.1664,-1.1708,-1.2161,-1.3696,-1.3341,-1.3214,-1.4103,-1.5683,-1.7186,-1.8341,-2.0747,-2.2624,-2.3286,-2.5861,-2.7329,-2.6999,-2.7332,-2.7635,-2.7785,-2.8676,-3.0214,-3.2666,-3.4635,-3.6581,-3.8685,-4.0062,-4.1706,-4.3299,-4.1719,-4.1158,-4.1393,-3.9905,-3.9554,-4.0097,-4.0724,-4.2112,-4.4292,-4.442,-4.5396,-4.7029,-4.7029,-4.6579,-4.553,-4.2223,-3.9951,-3.8692,-3.913,-3.8539,-3.7753,-3.8501,-3.903,-3.9623,-4.1103,-4.133,-4.0874,-4.0027,-4.0219,-4.0641,-4.1199,0.0,0.0,-4.5723,-4.6275,-4.6985,-4.7946,-4.8311,-4.8524,-4.9014,-5.0594,-5.2216,-5.2932,-5.3635,-5.4226,-5.4527,-5.4653,-5.496,-5.5095,-5.6758,-5.7737,-5.6553,-5.9587,-6.2958,-6.6154,-6.8922,-7.1338,-7.3052,-7.3222,-7.3694,-7.4917,-7.5486,-7.7166,-7.9974,-8.1056,-8.2345,-8.3893,-8.4751,-8.5066,-8.5066,-8.6316,-8.7021,-8.7492,-8.9558,-9.0984,-9.1839,-9.2633,-9.3326,-9.3746,-9.3104,-9.2985,-9.3117,-9.1798,-9.0646,-8.9843,-9.0852,-9.0312,-8.8781,-1.2163,-1.2352,-1.2891,-1.4375,-1.4993,-1.5413,-1.569,-1.6907,-1.8341,-1.9746,-2.0831,-2.2361,-2.4684,-2.6797,-2.8049,-2.8074,-2.8488,-2.9093,-2.9829,-3.0728,-3.2104,-3.4203,-3.7738,-4.0476,-4.2138,-4.2611,-4.3505,-4.5148,-4.1612,-4.0696,-4.2018,-4.0045,-4.0412,-4.2565,-4.3194,-4.4418,-4.619,-4.6659,-4.6882,-4.7029,-4.7029,-4.5303,-4.2647,-4.0467,-3.8178,-3.6039,-3.5728,-3.4453,-3.3287,-3.6307,-3.7297,-3.7909,-4.1201,-4.2285,-4.2224,-4.2168,-4.234,-4.2681,0.0,0.0,-4.46,-4.6404,-4.5313,-4.467,-4.8068,-4.882,-4.9442,-5.1523,-5.2854,-5.3222,-5.168,-5.2641,-5.3584,-5.3003,-5.375,-5.4579,-5.5199,-5.6156,-5.6506,-5.5621,-5.6516,-5.7983,0.0,-6.4545,-6.7911,-6.8955,-6.9038,-6.9038,-6.9187,-7.0959,-7.2877,-7.4466,-7.803,-8.0647,-8.223,-8.4966,-8.6316,-8.6316,-8.7585,-8.8754,-8.9924,-9.1173,-9.1803,-9.1839,-9.2633,-9.2987,-9.304,-9.2881,-9.2382,-9.159,-9.0759,-8.9438,-8.8003,-8.8054,-8.7056,-8.5632,-1.3379,-1.3768,-1.4344,-1.5721,-1.6281,-1.7009,-1.8325,-1.8639,-1.9383,-2.1105,-2.2782,0.0,0.0,0.0,0.0,0.0,-2.8028,-2.8527,-2.8922,-2.9575,-3.0718,-3.259,-3.517,-3.7534,-3.9409,-4.0356,-4.1561,-4.3231,-4.0561,-3.9572,-4.0234,-3.9226,-3.9279,-4.0452,-4.1514,-4.2281,-4.287,-4.3014,-4.3075,-4.2973,-4.1912,-4.1379,-4.1188,-3.8089,-3.6194,-3.5272,0.0,-3.4634,-3.3814,-3.5506,-3.6596,-3.756,-3.9016,-4.0051,-4.095,-4.2181,-4.2269,-4.2322,0.0,0.0,-4.572,-4.704,-4.7298,-4.7911,-5.0699,-5.0844,-5.0745,-5.1875,-5.2101,-5.2015,-5.1457,-5.1345,-5.1812,-5.3069,-5.3193,-5.3012,-5.2477,-5.5093,-5.5456,-5.1441,-5.4606,0.0,0.0,0.0,0.0,-6.7072,-6.7211,-6.7764,-6.8832,-7.0813,-7.2595,-7.4194,-7.7872,-8.0528,-8.2198,-8.4932,-8.6414,-8.6414,-8.8402,-9.0006,-9.1173,-9.162,-9.1803,-9.1839,-9.2039,-9.213,-9.2019,-9.0909,-8.9981,-8.9232,-8.8406,-8.7179,-8.5807,-8.6326,-8.5345,-8.3934,0.0,-1.5171,-1.579,-1.6886,-1.7807,0.0,0.0,0.0,0.0,0.0,0.0,0.0,0.0,0.0,0.0,0.0,0.0,-2.9267,-2.9379,-3.0409,-3.1649,-3.3217,-3.5107,-3.6802,-3.8221,-3.8547,-3.915,-4.0097,-3.8166,-3.7548,-3.8082,-3.7787,-3.7848,-3.8326,-3.9259,-3.957,-3.9551,-3.9969,-4.0037,-3.9898,-3.8808,-3.8759,-3.903,-3.5628,-3.4267,0.0,-3.3905,-3.3868,-3.4173,-3.5536,-3.6373,-3.7111,-3.8533,-4.0011,-4.1311,-4.2251,-4.2846,-4.3342,0.0,-4.5558,-4.7055,-4.8134,-4.8784,-4.9832,-5.1897,-5.1889,-5.1272,-5.1222,-5.1291,-5.1226,-5.064,-5.0298,-5.0954,-5.3667,-5.2483,-5.1603,-5.2513,-5.4049,-5.3795,-5.0391,-5.3493,-5.5365,0.0,0.0,0.0,-6.3567,-6.4143,-6.4798,-6.6377,-6.9198,-7.1309,-7.2308,-7.7202,-8.0288,-8.1388,-8.5139,-8.7492,-8.8366,-8.9636,-9.0659,-9.1363,-9.1069,-9.0959,-9.0922,-9.0889,-9.0712,-9.0379,-8.9303,-8.8228,-8.7265,-8.6722,-8.56,-8.4211,-8.4633,-8.3956,-8.3045,0.0,0.0,-1.7097,0.0,0.0,0.0,0.0,0.0,0.0,0.0,0.0,0.0,0.0,0.0,0.0,0.0,0.0,0.0,-3.1167,-3.3132,-3.4684,-3.5757,-3.7343,-3.8317,-3.8463,-3.7459,-3.6618,-3.6062,-3.4971,-3.4821,-3.5648,-3.576,-3.6164,-3.6535,-3.6629,-3.6701,-3.6681,-3.7554,-3.7881,-3.7888,-3.7691,-3.7276,-3.6296,-3.3394,-3.2632,-3.2913,-3.166,-3.2375,-3.4206,-3.6251,-3.6656,-3.6813,-3.9658,-4.1807,-4.3108,-4.2651,-4.4048,-4.5723,-4.531,-4.6732,-4.8486,-4.9636,-4.9819,-5.0067,-5.1649,-5.1548,-5.0795,-4.9819,-5.0432,-5.0655,0.0,0.0,-5.076,-5.4131,-5.1901,-5.1001,-5.4931,-5.3613,-5.2183,0.0,0.0,0.0,0.0,0.0,0.0,-5.9131,0.0,-6.0713,-6.2079,-6.6457,-6.8888,-6.9038,-7.6099,-7.9771,-7.9803,-8.5373,-8.9354,-9.173,-9.0959,-9.0555,-9.0445,-8.9748,-8.9381,-8.9307,-8.9307,-8.8759,-8.7989,-8.7952,-8.6999,-8.55,-8.5536,-8.462,-8.3203,-8.2938,-8.2854,-8.289,0.0,0.0,0.0,0.0,0.0,0.0,0.0,0.0,0.0,0.0,0.0,0.0,0.0,0.0,0.0,0.0,0.0,0.0,-3.1167,-3.2725,-3.3743,-3.4046,-3.5648,-3.6525,-3.6574,-3.6352,-3.6185,-3.6056,-3.4968,-3.4388,-3.4215,-3.4888,-3.5041,-3.4847,-3.5459,-3.5823,-3.5823,-3.6061,-3.6118,-3.6089,-3.4745,-3.4756,-3.523,-3.2845,-3.2798,-3.4059,-3.3595,-3.4272,-3.5526,0.0,0.0,0.0,0.0,-4.0914,-4.1699,-4.3704,-4.442,-4.4965,-4.7304,-4.834,-4.8861,-4.9977,-5.0226,-5.0318,-5.0745,-4.9766,-4.8813,-4.9039,-4.7652,-4.6573,0.0,0.0,0.0,-5.2253,-5.3113,0.0,-5.5339,-5.6765,0.0,-5.3776,0.0,-5.6897,-5.5516,-5.5491,0.0,0.0,-5.8428,-6.0253,-6.3961,-6.7197,-6.9635,-7.1105,-7.6715,-7.9803,-7.9803,-8.5373,-8.9103,-9.0922,-9.0702,-8.9968,-8.883,-8.9234,-8.8757,-8.7619,-8.7619,-8.6717,-8.5189,-8.4572,-8.3257,-8.1705,-8.2278,-8.192,-8.1048,-8.221,-8.2404,-8.2066,0.0,0.0,0.0,0.0,0.0,0.0,0.0,0.0,0.0,0.0,0.0,0.0,0.0,0.0,0.0,0.0,0.0,0.0,0.0,-3.3635,-3.4352,-3.4352,-3.5239,-3.5487,-3.5116,-3.5131,-3.4955,-3.4468,-3.4218,-3.3983,-3.399,-3.4287,-3.4142,-3.3775,-3.3966,-3.392,-3.353,-3.3959,-3.4084,0.0,0.0,-3.3311,-3.3623,-3.2164,-3.2516,-3.3833,-3.3636,-3.459,0.0,0.0,0.0,-3.9996,-4.0689,-4.1452,-4.252,-4.4705,0.0,-4.6126,-4.8266,-4.9443,-5.0092,-5.0946,-5.0795,-5.0343,-5.0117,-4.9241,-4.8094,-4.6934,-4.6463,0.0,0.0,0.0,0.0,0.0,0.0,0.0,-5.5453,-5.6847,-5.7149,0.0,-5.717,0.0,-5.6696,-5.6796,-5.7323,0.0,-5.908,-6.108,-6.4471,-6.8241,-7.0667,-7.1856,-7.6283,-7.9707,-8.1591,-8.6004,-8.8742,-8.9818,-9.0008,-8.9417,-8.8206,-8.7778,-8.7085,-8.6247,-8.5731,-8.4511,-8.2929,-8.2822,-8.1533,-7.9727,-8.0587,-8.0541,-8.0164,-8.0473,-8.0697,-8.0663,0.0,0.0,0.0,0.0,0.0,0.0,0.0,0.0,0.0,0.0,-2.5762,-2.6088,0.0,0.0,0.0,0.0,0.0,0.0,0.0,0.0,-3.5519,-3.5519,-3.5359,-3.4905,-3.4013,-3.4013,-3.3602,-3.2806,-3.3406,-3.389,-3.4223,-3.3913,-3.3488,-3.3032,-3.252,-3.176,-3.1067,-3.1693,-3.1991,-3.2011,-3.2476,-3.234,-3.1838,0.0,-3.1988,-3.3085,-3.3284,-3.4484,0.0,0.0,-3.964,-4.021,-4.1187,-4.2548,-4.4172,-4.5459,-4.6976,-4.8231,-4.8964,-5.0343,-5.1599,-5.2,-5.1147,-5.0042,-4.9414,-4.8666,-4.7372,-4.4493,0.0,-4.6904,-4.4182,-4.4265,-4.5827,-4.9059,0.0,-5.0305,-5.6107,-5.6208,-5.6465,-5.8202,-5.8303,-5.8027,-5.7524,-5.7851,-5.8479,-5.9313,-6.1189,-6.3005,-6.4478,-6.923,-7.2142,-7.254,-7.5917,-7.9668,-8.3998,-8.6656,-8.8188,-8.8572,-8.8829,-8.8509,-8.7486,-8.5978,-8.5009,-8.4721,-8.3934,-8.2651,-8.1105,-8.1719,-8.0752,-7.8964,-7.9528,-7.9747,-7.967,-7.857,-7.8622,-7.9074,0.0,0.0,0.0,0.0,0.0,0.0,0.0,0.0,0.0,0.0,-2.659,-2.6389,0.0,0.0,0.0,0.0,0.0,0.0,0.0,0.0,0.0,-3.5519,-3.4677,-3.4177,-3.4013,-3.4013,-3.3945,-3.3739,-3.466,-3.4777,-3.4082,-3.3974,-3.3517,-3.2678,-3.1757,-3.1318,-3.1083,-3.0528,-3.0233,-3.0208,-3.0353,-3.0306,-3.0206,-3.0105,0.0,0.0,-3.6445,0.0,0.0,-3.8142,-3.8945,-3.9362,-4.1229,-4.2423,-4.3781,-4.661,-4.8078,-4.904,-5.0946,-5.2076,-5.2553,-5.2201,-5.0569,-4.8786,-4.7782,-4.5719,0.0,0.0,-4.4367,-4.4668,-4.4965,-4.5217,-4.6836,-5.1213,0.0,0.0,0.0,0.0,-5.845,0.0,0.0,0.0,0.0,0.0,0.0,0.0,-6.4397,-6.5891,-6.6716,-6.9987,-7.3216,-7.6212,-7.8376,-8.0893,-8.3998,-8.5846,-8.6919,-8.7319,-8.6795,-8.5775,-8.4338,-8.4633,-8.3768,-8.1992,-8.3054,-8.2137,-7.9858,-7.9371,-7.8797,-7.8142,-7.7665,-7.7807,-7.8207,-7.798,-7.8219,-7.8506,0.0,0.0,0.0,0.0,0.0,0.0,0.0,-2.5413,-2.6766,-2.7595,-2.7469,-2.7218,-2.6917,-2.7258,-2.802,0.0,0.0,0.0,0.0,0.0,0.0,-3.5519,-3.4543,-3.4013,-3.4013,-3.4013,-3.4013,-3.4013,0.0,-3.5264,-3.4773,-3.4773,-3.4245,-3.3325,-3.2876,-3.2092,-3.1193,-3.1007,-3.0471,-2.9854,-3.0407,-3.0281,-2.9829,0.0,0.0,0.0,0.0,0.0,0.0,0.0,-3.8176,-3.798,-4.0722,-4.2562,-4.4443,-4.7456,-4.8761,-4.969,-5.1925,-5.2729,-5.2804,-5.2251,-4.9992,-4.7654,-4.6959,0.0,0.0,0.0,-4.4501,-4.5264,-4.4388,-4.5289,0.0,0.0,0.0,0.0,0.0,0.0,0.0,0.0,0.0,0.0,0.0,0.0,0.0,0.0,0.0,-6.748,-6.9107,-7.1934,-7.4337,-7.5966,-7.7676,-7.9553,-8.182,-8.3993,-8.5466,-8.6091,-8.6345,-8.5834,-8.4738,-8.4472,-8.3781,-8.2676,-8.2419,-8.144,-7.9803,-7.8674,-7.8184,-7.7908,-7.7198,-7.7244,-7.773,-7.7283,-7.649,-7.5671,0.0,0.0,0.0,0.0,0.0,0.0,-2.3305,-2.4867,-2.6325,-2.7654,-2.7804,-2.7703,-2.7494,-2.7541,-2.8186,0.0,0.0,0.0,0.0,0.0,0.0,0.0,0.0,0.0,0.0,0.0,0.0,0.0,-3.4905,0.0,0.0,0.0,0.0,0.0,-3.3876,-3.2876,-3.1489,-3.1517,-3.0958,0.0,0.0,-3.0708,0.0,0.0,0.0,0.0,0.0,0.0,0.0,0.0,-3.719,-3.6684,-3.9546,-4.2133,-4.4618,-4.728,-4.8711,-4.9891,-5.2,-5.2754,-5.2754,-5.2101,-4.9238,-4.644,-4.5985,-4.4113,0.0,0.0,-4.4546,-4.6002,-4.3705,-4.502,-4.6425,0.0,0.0,0.0,0.0,0.0,0.0,0.0,0.0,0.0,0.0,0.0,0.0,0.0,0.0,-6.8843,-7.1673,-7.3823,-7.4869,-7.4869,-7.6436,-7.7932,-7.9312,-8.2128,-8.3968,-8.4588,-8.569,-8.5961,-8.5273,-8.4404,-8.3851,-8.3679,-8.2207,-8.1122,-8.031,-7.8822,-7.8314,-7.8416,-7.7477,-7.74,-7.7637,-7.6387,-7.4672,-7.2993,0.0,0.0,0.0,0.0,0.0,0.0,-2.1026,-2.2634,-2.4453,-2.647,-2.6713,-2.7013,-2.7949,-2.7591,-2.7799,0.0,0.0,0.0,0.0,0.0,0.0,0.0,0.0,0.0,0.0,0.0,0.0,0.0,0.0,0.0,0.0,0.0,0.0,0.0,0.0,0.0,-3.2379,-3.0698,0.0,0.0,0.0,0.0,0.0,0.0,0.0,0.0,0.0,0.0,0.0,0.0,0.0,-3.5855,-3.7161,-3.9772,-4.2836,-4.5121,0.0,0.0,-5.0971,-5.2176,-5.2678,-5.1624,-4.8083,-4.4669,-4.413,0.0,0.0,-4.0775,-4.3064,-4.4648,-4.3488,-4.4204,-4.5646,-4.7728,-4.7253,-4.9452,0.0,0.0,0.0,0.0,0.0,0.0,0.0,0.0,0.0,0.0,0.0,-7.0379,-7.4337,-7.4839,-7.4869,-7.4869,-7.6436,-7.7419,-7.7548,-8.0701,-8.2359,-8.2552,-8.3375,-8.3806,-8.3772,-8.3564,-8.3225,-8.258,-8.234,-8.1866,-8.1054,-7.96,-7.9397,-7.9871,-7.8325,-7.759,-7.7238,-7.5042,-7.328,-7.2113,0.0,0.0,0.0,0.0,0.0,0.0,-2.1454,-2.2661,-2.4425,-2.7164,-2.7484,-2.778,-2.8499,-2.8097,-2.8074,-2.8958,-3.0797,0.0,0.0,0.0,0.0,0.0,0.0,0.0,0.0,0.0,-3.3808,-3.3463,-3.4839,0.0,0.0,0.0,0.0,0.0,0.0,0.0,0.0,-3.2535,0.0,0.0,0.0,0.0,0.0,0.0,0.0,0.0,0.0,0.0,0.0,0.0,0.0,0.0,-3.4977,-3.6332,0.0,0.0,-4.5547,-4.7807,-5.0117,-5.1825,-5.2653,-5.1548,-4.7933,-4.4712,-4.5276,0.0,-4.0315,-4.1933,-4.3626,-4.451,-4.3488,-4.4128,-4.4895,-4.5259,-4.4655,0.0,0.0,0.0,0.0,0.0,0.0,0.0,0.0,0.0,0.0,0.0,0.0,-6.8284,-7.1133,-7.2485,-7.3672,-7.4869,-7.5489,-7.6335,-7.729,-7.8659,-7.9771,-8.0766,-8.2048,-8.2733,-8.2733,-8.3706,-8.3761,-8.305,-8.2611,-8.1968,-8.119,-7.9701,-7.9532,-8.0074,-7.8485,-7.7738,-7.7189,-7.4891,-7.254,-7.0846,0.0,0.0,0.0,0.0,0.0,-1.9828,-2.1303,-2.2366,-2.3997,-2.6843,-2.7162,-2.7507,-2.8525,-2.8265,-2.8309,-2.9062,-3.0734,0.0,0.0,0.0,0.0,0.0,0.0,0.0,0.0,0.0,-3.4312,-3.4013,-3.5001,-3.5519,0.0,0.0,0.0,0.0,0.0,0.0,0.0,0.0,0.0,0.0,0.0,0.0,0.0,0.0,0.0,0.0,0.0,0.0,0.0,0.0,0.0,0.0,0.0,0.0,0.0,0.0,-4.3187,-4.5924,-4.8686,-5.0921,-5.2201,-5.1272,-4.7682,-4.4611,0.0,0.0,-4.0265,-4.2356,-4.3663,-4.4159,-4.3409,-4.4128,-4.4586,-4.3849,-4.3761,-4.48,0.0,0.0,0.0,0.0,0.0,0.0,0.0,0.0,0.0,0.0,0.0,0.0,-6.7827,-6.9931,-7.1856,-7.3951,-7.4564,-7.5489,-7.6568,-7.7061,-7.7932,-7.9065,-8.0766,-8.1472,-8.1472,-8.2684,-8.302,-8.2751,-8.2013,-8.1518,-8.119,-7.9938,-7.9635,-7.9623,-7.8223,-7.7093,-7.5901,-7.3783,-7.1149,-6.9297,0.0,0.0,0.0,0.0,0.0,-1.9456,-1.985,-2.1051,-2.2684,-2.4732,-2.4945,-2.5685,-2.7851,-2.7859,-2.8144,-2.9276,-2.978,0.0,0.0,0.0,0.0,0.0,0.0,0.0,-3.4013,-3.5001,-3.5001,-3.4013,-3.5001,-3.5519,-3.5519,-3.5519,-3.5001,-3.3945,0.0,0.0,0.0,0.0,0.0,0.0,0.0,0.0,0.0,0.0,0.0,0.0,0.0,0.0,0.0,0.0,0.0,0.0,0.0,-3.5073,-3.5738,-3.6937,-3.9973,-4.3614,-4.6401,-4.9188,-5.1147,-5.0569,-4.7079,-4.3827,0.0,0.0,-3.9479,-4.1277,-4.2548,-4.3329,-4.3329,-4.4128,-4.4812,-4.4812,-4.6087,-4.7953,-5.0306,0.0,0.0,0.0,0.0,0.0,0.0,0.0,0.0,0.0,0.0,0.0,-6.5687,-6.7827,-6.9783,-7.1856,-7.3812,-7.4869,-7.4869,-7.6436,-7.729,-7.729,-7.9065,-7.9803,-7.9893,-7.9893,-8.0345,-8.1077,-8.0386,-8.046,-8.1224,-8.0479,-7.969,-7.8782,-7.7841,-7.5808,-7.3011,-7.1212,-6.8875,-6.735,0.0,0.0,0.0,0.0,0.0,0.0,-2.1871,-2.2414,-2.374,-2.6673,-2.6155,-2.6406,-2.8776,-2.7721,-2.7283,-2.8405,-2.9334,0.0,0.0,0.0,0.0,0.0,0.0,0.0,-3.5001,-3.5359,-3.5359,-3.5067,-3.5806,-3.6178,-3.6178,-3.5486,-3.5212,-3.5267,-3.3784,0.0,0.0,0.0,0.0,0.0,0.0,0.0,0.0,0.0,0.0,0.0,0.0,0.0,0.0,0.0,0.0,0.0,0.0,0.0,0.0,-3.751,-4.0096,-4.295,-4.5475,-4.7595,-4.8938,-4.8471,-4.6113,-4.405,-4.4428,0.0,-4.1162,-4.2519,-4.3061,-4.3479,-4.3928,-4.4464,-4.5277,-4.6749,-4.753,-4.837,0.0,0.0,0.0,0.0,0.0,0.0,0.0,0.0,0.0,0.0,0.0,0.0,-6.3746,-6.5713,-6.8408,-7.1856,-7.3812,-7.4869,-7.4869,-7.5354,-7.5594,-7.5728,-7.7321,-7.8028,-7.8155,-7.8772,-7.9515,-8.0353,-7.9628,-7.9835,-8.0445,-7.968,-7.9098,-7.8592,-7.5714,-7.4233,-7.3359,-6.9714,-6.8173,-6.8196,0.0,0.0,0.0,0.0,0.0,0.0,-2.288,-2.3441,-2.4572,-2.6897,-2.6205,-2.6298,-2.8368,-2.7112,-2.6666,-2.7996,-2.8534,0.0,0.0,0.0,0.0,0.0,0.0,0.0,-3.5489,-3.5519,-3.5759,-3.6237,-3.6626,-3.6722,-3.6615,-3.5967,-3.5309,-3.4715,-3.3656,-3.2981,0.0,0.0,0.0,0.0,0.0,0.0,-3.5835,0.0,0.0,0.0,0.0,0.0,0.0,0.0,0.0,0.0,0.0,0.0,0.0,0.0,-4.141,-4.3228,-4.4757,-4.657,-4.7823,-4.7206,-4.5512,0.0,0.0,0.0,-4.1947,-4.3061,-4.3329,-4.3449,-4.3868,-4.4711,-4.5728,-4.6952,-4.7861,-4.8435,-4.8429,0.0,0.0,0.0,0.0,0.0,0.0,0.0,0.0,0.0,0.0,0.0,-6.2873,-6.4631,-6.6906,-6.9458,-7.2314,-7.412,-7.4869,-7.412,-7.3812,-7.3812,-7.4766,-7.5248,-7.5248,-7.6696,-7.7982,-7.9056,-7.86,-7.9131,0.0,-7.9248,-7.8658,-7.8014,-7.4599,-7.2788,-7.2028,-6.8692,-6.7928,-6.8888,0.0,0.0,0.0,0.0,0.0,0.0,0.0,-2.4372,-2.5455,-2.6073,-2.5521,-2.5673,-2.7297,-2.6511,-2.6375,-2.7918,-2.7666,0.0,0.0,0.0,0.0,0.0,0.0,-3.3893,-3.5489,-3.5519,-3.6118,-3.7345,-3.7434,-3.7275,-3.6995,-3.6876,-3.5543,-3.3146,-3.2909,-3.2636,0.0,0.0,0.0,0.0,-3.396,-3.5922,0.0,0.0,0.0,0.0,0.0,0.0,0.0,0.0,0.0,0.0,0.0,0.0,0.0,0.0,0.0,0.0,0.0,-4.5959,-4.7447,-4.6542,-4.5128,-4.397,-4.4048,0.0,0.0,-4.3061,-4.3329,-4.3329,-4.3389,-4.4856,-4.6031,-4.5911,-4.7461,-4.8368,0.0,0.0,0.0,0.0,0.0,0.0,0.0,0.0,0.0,0.0,0.0,-6.336,-6.2923,-6.4735,-6.5792,-6.5844,-6.9486,-7.2515,-7.4426,-7.2628,-7.1712,-7.1712,-7.1856,-7.1856,-7.1999,-7.3922,-7.5801,0.0,-7.7477,-7.85,-8.0209,-7.9206,-7.8275,-7.7277,-7.4092,-7.1595,-6.9521,-6.8119,-6.7955,-6.8941,0.0,0.0,0.0,0.0,0.0,0.0,0.0,0.0,0.0,0.0,-2.8054,-2.8064,-2.9435,-2.8408,-2.7632,0.0,0.0,0.0,0.0,0.0,0.0,0.0,-3.3391,-3.433,-3.5489,-3.5519,-3.5908,-3.6716,-3.7674,-3.834,-3.8779,-3.7613,-3.6955,-3.6661,-3.4178,-3.2997,0.0,0.0,0.0,0.0,-3.494,-3.6102,0.0,0.0,0.0,0.0,-4.1067,-4.145,0.0,0.0,0.0,0.0,0.0,0.0,0.0,0.0,-4.4161,-4.5017,-4.4306,0.0,-4.5303,-4.4314,-4.3767,-4.3441,0.0,0.0,0.0,0.0,0.0,0.0,0.0,-4.4618,-4.5828,-4.7915,-4.8802,-4.8885,0.0,0.0,0.0,0.0,0.0,0.0,0.0,0.0,0.0,0.0,0.0,-6.2519,-6.336,-6.4323,-6.5077,-6.5713,-6.7207,-6.8749,-7.0255,-6.9783,-6.9635,-6.9635,-7.1105,-7.1856,-7.1999,-7.3448,-7.5372,-7.7509,-7.6933,-7.8383,-8.0849,-7.8761,-7.8056,-7.7733,-7.2094,-6.9802,-6.9521,-6.8145,-6.7981,-6.9185,0.0,0.0,0.0,0.0,0.0,0.0,0.0,0.0,0.0,0.0,-2.9001,-2.8926,-2.9633,-2.901,-2.8518,0.0,0.0,0.0,0.0,0.0,0.0,-3.2566,-3.3686,-3.461,-3.5489,-3.5519,-3.6118,-3.7345,-3.8362,-3.9133,-3.953,-3.8517,-3.7757,-3.7169,-3.4641,-3.3445,-3.3532,-3.3743,0.0,-3.5156,-3.5975,0.0,0.0,0.0,0.0,0.0,-4.2922,-4.3457,0.0,-4.4559,-4.4661,-4.4409,0.0,0.0,0.0,0.0,-4.525,-4.5844,-4.4814,-4.5207,-4.5547,-4.4146,-4.4018,-4.4227,-4.4227,0.0,0.0,0.0,0.0,0.0,0.0,0.0,0.0,-4.6575,-4.7061,0.0,0.0,0.0,0.0,0.0,0.0,0.0,0.0,0.0,0.0,0.0,0.0,-6.2393,-6.3911,-6.4304,-6.4551,-6.4775,-6.522,-6.6924,-7.0227,-6.9337,-6.9337,-7.0227,-7.1423,-7.1856,-7.197,-7.33,-7.5218,-7.7509,-7.6774,-7.7673,-7.9575,-7.8175,-7.7284,-7.6588,-7.2046,-7.0593,-7.0857,-6.9234,-6.9568,-7.1391,0.0,0.0,0.0,0.0,0.0,0.0,0.0,0.0,0.0,0.0,0.0,0.0,0.0,0.0,0.0,0.0,0.0,0.0,0.0,0.0,-3.2473,-3.2821,-3.4017,-3.4951,-3.5639,-3.5549,-3.6447,-3.8392,-3.917,-3.9742,-4.0205,-3.9676,-3.8401,-3.6455,-3.4793,-3.4136,-3.4197,-3.4705,-3.5402,-3.6192,-3.718,0.0,0.0,0.0,0.0,0.0,0.0,0.0,0.0,-4.6134,-4.6413,-4.6419,-4.5821,0.0,0.0,0.0,0.0,0.0,-4.5729,-4.65,-4.7003,-4.48,-4.4796,-4.5304,-4.5304,0.0,0.0,0.0,0.0,0.0,0.0,0.0,0.0,0.0,0.0,0.0,0.0,0.0,0.0,0.0,0.0,0.0,0.0,0.0,0.0,0.0,-6.0342,-6.2635,-6.4437,-6.458,-6.4354,-6.3827,-6.4133,-6.6635,-7.1709,-6.957,-6.9486,-7.1423,-7.1712,-7.1856,-7.197,-7.33,-7.5218,-7.7509,-7.6774,-7.7172,-7.8362,-7.7603,-7.6667,-7.5397,-7.2768,-7.2115,-7.2371,-7.0773,-7.1737,-7.4344,0.0,0.0,0.0,0.0,0.0,0.0,0.0,0.0,0.0,0.0,0.0,0.0,0.0,0.0,0.0,0.0,0.0,0.0,0.0,-3.2198,-3.3226,-3.3779,-3.4817,-3.5669,-3.6327,-3.5789,-3.6447,-3.8392,-3.9649,-4.083,-4.1989,-4.1481,-3.9516,-3.6337,-3.5621,-3.5264,-3.5319,-3.5943,-3.7043,-3.8325,-3.9104,0.0,0.0,0.0,0.0,0.0,0.0,0.0,0.0,-4.7104,-4.698,-4.6484,-4.6569,0.0,0.0,0.0,0.0,0.0,-4.7309,-4.7987,-4.8098,-4.5042,-4.4796,-4.5304,-4.5304,-4.5214,0.0,0.0,0.0,0.0,0.0,0.0,0.0,0.0,0.0,0.0,0.0,0.0,0.0,0.0,0.0,0.0,0.0,0.0,0.0,0.0,-6.0899,-6.3215,-6.5013,-6.5157,-6.4906,-6.4354,-6.6072,-6.8358,-7.0866,-6.7855,-6.7368,-6.9337,-7.1105,-7.1856,-7.197,-7.33,-7.5218,-7.7509,-7.6806,-7.8173,-8.0539,-7.782,-7.7198,-7.7674,-7.2934,-7.1452,-7.2057,-7.2313,-7.3471,-7.5833,0.0,0.0,0.0,0.0,0.0,0.0,0.0,0.0,0.0,0.0,0.0,0.0,0.0,0.0,0.0,0.0,0.0,0.0,-3.2211,-3.2908,-3.3956,-3.531,-3.5472,-3.5818,-3.6477,-3.6866,-3.7853,-3.9469,-4.1175,-4.2491,-4.3339,-4.1937,-3.9816,-3.7309,-3.6741,-3.6441,-3.6532,-3.7729,-3.8912,-4.0018,0.0,0.0,0.0,0.0,0.0,0.0,0.0,0.0,0.0,0.0,-4.8152,-4.7814,-4.7511,0.0,0.0,0.0,0.0,0.0,-4.757,-4.7804,-4.768,-4.6001,-4.5699,-4.5493,-4.415,-4.383,0.0,0.0,0.0,0.0,0.0,0.0,0.0,0.0,0.0,0.0,0.0,0.0,0.0,0.0,0.0,0.0,0.0,0.0,0.0,-6.0498,-6.1911,-6.3457,-6.5564,-6.6847,-6.7234,-6.6666,-6.8679,-7.0704,-7.2359,-7.0863,-7.1043,-7.272,-7.3228,-7.3503,-7.3503,-7.3742,-7.5218,-7.7509,-7.6806,-7.7706,-7.9335,-7.8298,-7.719,-7.6055,-7.4375,-7.3444,-7.3201,-7.4702,-7.6526,-7.8905,0.0,0.0,0.0,0.0,0.0,0.0,0.0,0.0,0.0,0.0,0.0,0.0,0.0,0.0,0.0,0.0,0.0,-3.2604,-3.3457,-3.3819,-3.457,-3.5938,-3.623,-3.6652,-3.7375,-3.8063,-3.9349,-4.1324,-4.2821,-4.3796,-4.4241,-4.2081,-4.0123,-3.8442,-3.7945,-3.7772,-3.7957,-3.9555,-4.059,-4.1317,0.0,0.0,0.0,0.0,0.0,0.0,0.0,0.0,0.0,0.0,0.0,0.0,0.0,0.0,0.0,-4.7861,-4.7631,-4.7443,-4.8061,-4.7956,-4.754,-4.6811,-4.6551,-4.5941,-4.4453,-4.4049,0.0,0.0,0.0,0.0,0.0,0.0,0.0,0.0,0.0,0.0,0.0,0.0,0.0,0.0,0.0,0.0,0.0,0.0,0.0,-6.1948,-6.3433,-6.4902,-6.672,-6.8673,-6.9748,-6.9481,-7.1336,-7.2942,-7.4188,-7.4487,-7.5125,-7.5886,-7.5377,-7.5018,-7.4869,-7.418,-7.531,-7.7732,-7.7179,-7.7512,-7.875,-7.9046,-7.7787,-7.555,-7.6055,-7.5548,-7.4898,-7.7135,-7.9257,-8.1423,0.0,0.0,0.0,0.0,0.0,0.0,0.0,0.0,0.0,0.0,0.0,0.0,0.0,0.0,0.0,0.0,-3.4069,-3.4194,-3.3568,-3.4685,-3.5186,-3.4685,-3.718,-3.9149,-4.0068,-3.899,-4.0247,-4.4018,-4.4167,-4.4275,-4.4383,-4.2395,-4.0859,-3.9568,-3.9051,-3.9061,-3.951,-4.09,-4.1755,-4.2324,-4.2981,0.0,0.0,0.0,0.0,0.0,0.0,0.0,0.0,0.0,0.0,0.0,0.0,0.0,-4.9528,-4.8252,-4.8376,-4.9018,-4.9734,-4.9693,-4.8914,-4.7025,-4.6376,0.0,-4.796,-4.8296,0.0,-4.8813,0.0,0.0,0.0,0.0,0.0,0.0,0.0,0.0,0.0,0.0,0.0,0.0,0.0,0.0,0.0,0.0,-6.2218,-6.178,-6.6094,-6.8944,-6.9135,-7.0687,-7.1741,-7.2265,-7.3756,-7.4937,-7.5484,-7.6797,-7.6972,-7.5916,-7.5856,-7.5497,-7.4869,-7.418,-7.5556,-7.8435,-7.7915,-7.8972,-8.1018,-8.0243,-7.9846,-7.9349,-7.7211,-7.6541,-7.7228,-7.9033,-8.068,-8.2296,0.0,0.0,0.0,0.0,0.0,0.0,0.0,0.0,0.0,0.0,0.0,-3.2368,-3.2876,0.0,0.0,0.0,-3.4547,-3.4952,-3.5538,-3.602,-3.66,-3.7154,-3.7834,-3.9188,-4.1168,-4.256,-4.4485,-4.6823,-4.6621,-4.5716,-4.431,-4.2469,-4.0907,-3.9643,-3.9417,-3.9662,-4.032,-4.1565,-4.2396,-4.303,-4.3688,-4.3688,0.0,0.0,0.0,0.0,0.0,0.0,0.0,0.0,-4.9065,-4.8521,-4.8404,-4.8242,-4.8114,-4.8436,-4.8477,-4.8477,-4.9221,-4.8762,-4.8031,-4.7585,0.0,0.0,0.0,-4.6591,-4.7351,-4.7377,-4.8106,0.0,0.0,0.0,0.0,0.0,0.0,0.0,0.0,0.0,0.0,0.0,0.0,0.0,0.0,0.0,-6.3414,-6.6238,-6.8149,-7.0091,-7.1745,-7.3265,-7.4448,-7.5072,-7.6558,-7.7238,-7.6915,-7.7462,-7.7173,-7.5916,-7.5916,-7.5557,-7.4869,-7.4629,-7.5955,-7.8531,-7.8459,-7.9724,-8.2002,-8.1682,-8.1001,-7.9753,-7.7334,-7.6085,-7.5966,-7.7676,-7.8659,-7.9372,0.0,0.0,0.0,0.0,0.0,0.0,0.0,0.0,-3.0252,0.0,0.0,0.0,0.0,-3.3779,0.0,0.0,-3.5556,-3.6026,-3.6756,-3.7187,-3.7657,-3.8142,-3.8764,-4.0098,-4.2064,-4.5596,-4.7535,-4.7933,-4.7606,-4.6272,-4.3988,-4.2342,-4.115,-4.0508,-4.0022,-4.0363,-4.1259,-4.203,-4.2491,-4.2761,-4.3419,-4.3419,0.0,0.0,0.0,0.0,0.0,0.0,0.0,0.0,-4.8655,-4.8048,-4.8311,-4.7941,-4.7646,-4.8402,-4.8139,-4.7639,-4.8102,-4.7638,-4.6956,0.0,0.0,0.0,-4.4995,-4.6638,-4.851,-4.8862,-4.9389,0.0,0.0,0.0,0.0,0.0,0.0,0.0,0.0,0.0,0.0,0.0,0.0,0.0,0.0,-6.3644,-6.5383,-6.8846,-7.0449,-7.2167,-7.4036,-7.5707,-7.6762,-7.7199,-7.8033,-7.825,-7.7801,-7.7592,-7.6963,-7.5916,-7.5916,-7.5557,-7.4869,-7.4659,-7.6016,-7.8531,-7.8491,-7.992,-8.2441,-8.2644,-8.1684,-7.9805,-7.7496,-7.6169,-7.5863,-7.6931,-7.7676,-7.8282,0.0,0.0,0.0,0.0,0.0,0.0,0.0,0.0,-2.9887,-3.1265,-3.2034,0.0,0.0,0.0,0.0,0.0,-3.7483,-3.7614,-3.6868,-3.817,-3.8308,-3.6878,-4.0147,-4.2354,-4.3064,-4.7457,-4.8836,-4.6939,-4.6809,-4.5537,-4.3269,-4.1983,-4.179,-4.2359,-4.0995,-4.1115,-4.2342,-4.2342,-4.1983,-4.1444,-4.2102,-4.2372,-4.2483,0.0,0.0,0.0,0.0,0.0,0.0,0.0,-4.7997,-4.8443,-4.7796,-4.8172,-4.8722,-4.8107,-4.7394,-4.6776,-4.6673,-4.6486,0.0,0.0,0.0,0.0,0.0,0.0,0.0,0.0,0.0,-5.1731,-5.0338,0.0,0.0,0.0,0.0,0.0,0.0,0.0,0.0,0.0,0.0,0.0,0.0,-6.7349,-6.9063,-6.8509,-7.293,-7.56,-7.5628,-7.7681,-7.8789,-7.8789,-7.816,-7.7801,-7.7801,-7.7143,-7.6514,-7.5886,-7.5886,-7.5527,-7.4839,-7.418,-7.5556,-7.8499,-7.7979,-7.9462,-8.2441,-8.3186,-8.2022,-7.9649,-7.7901,-7.729,-7.729,-7.729,-7.8313,-7.9803,0.0,0.0,0.0,0.0,0.0,0.0,0.0,0.0,-3.2286,-3.252,-3.3659,0.0,0.0,0.0,0.0,0.0,0.0,0.0,-3.9611,-4.0469,-4.0526,-3.9695,-4.1081,-4.1754,-4.1567,-4.3915,-4.6357,-4.8829,-4.7858,-4.6147,-4.3796,-4.349,-4.2544,-4.1229,-4.1853,-4.1663,-4.1025,-4.1983,-4.2252,-4.2102,-4.2282,-4.2372,-4.2436,0.0,0.0,0.0,0.0,0.0,0.0,0.0,0.0,0.0,-4.6793,-4.7113,-4.7452,-4.7827,-4.8105,-4.8192,-4.7504,-4.7169,0.0,0.0,0.0,0.0,0.0,0.0,0.0,0.0,0.0,0.0,0.0,0.0,0.0,0.0,0.0,0.0,0.0,0.0,0.0,0.0,0.0,0.0,0.0,-6.8208,-7.0072,-7.3268,-7.4725,-7.6462,-7.8508,-7.8738,-7.8998,-7.9507,-7.84,-7.7592,-7.7113,-7.6485,-7.5826,-7.5198,-7.5198,-7.4839,-7.418,-7.3971,-7.4719,-7.6275,-7.6088,-7.7182,-7.9268,-7.987,-7.934,-7.8028,-7.7548,-7.6568,-7.5594,-7.5594,-7.5996,-7.6365,0.0,0.0,0.0,0.0,0.0,0.0,-3.215,-3.2874,-3.3345,-3.3191,-3.4226,-3.4857,0.0,0.0,0.0,0.0,0.0,0.0,-4.0816,-4.1429,-4.1639,-4.1251,-4.1853,-4.2388,-4.2875,-4.3562,-4.5187,-4.7898,-4.6514,-4.4886,-4.3161,-4.3363,-4.2918,-4.1891,-4.264,-4.25,-4.1624,-4.2402,-4.2462,-4.1983,-4.2252,-4.2192,-4.2046,0.0,0.0,0.0,0.0,0.0,0.0,0.0,0.0,0.0,-4.6048,-4.6494,-4.676,-4.6562,-4.6776,-4.6991,-4.5958,0.0,0.0,0.0,0.0,0.0,0.0,0.0,0.0,0.0,0.0,0.0,0.0,0.0,0.0,0.0,0.0,0.0,0.0,0.0,0.0,0.0,0.0,0.0,0.0,-7.071,-7.2451,-7.5075,-7.6031,-7.7034,-7.8465,-7.8901,-7.9232,-7.9516,-7.8625,-7.7866,-7.7441,-7.6211,-7.5288,-7.4869,-7.4869,-7.454,-7.3881,-7.3612,-7.4274,-7.5678,-7.6369,-7.7231,-7.8139,-7.8236,-7.7905,-7.729,-7.6568,-7.5728,-7.4869,-7.4869,-7.4869,-7.4869,0.0,0.0,-3.1495,-3.2171,0.0,0.0,-3.3389,-3.3558,-3.3592,-3.3567,-3.4219,-3.484,0.0,0.0,0.0,0.0,0.0,0.0,-4.1,-4.1603,-4.1937,-4.1895,-4.2382,-4.3572,-4.548,-4.4983,-4.4771,-4.488,-4.3741,-4.2823,-4.2013,-4.2542,-4.3077,-4.3727,-4.3576,-4.3379,-4.315,-4.321,-4.2521,-4.1444,-4.2043,-4.1923,-4.137,-4.1526,0.0,0.0,0.0,0.0,0.0,0.0,0.0,0.0,-4.539,-4.6062,-4.6532,-4.5042,-4.4599,-4.4327,-4.3497,0.0,0.0,0.0,0.0,0.0,0.0,0.0,0.0,0.0,0.0,0.0,0.0,0.0,0.0,0.0,0.0,0.0,0.0,0.0,0.0,0.0,0.0,0.0,0.0,-7.4135,-7.534,-7.5005,-7.6822,-7.7785,-7.7124,-7.8593,-7.9499,-7.9499,-7.8715,-7.8343,-7.8343,-7.6092,-7.4869,-7.4869,-7.4869,-7.4569,-7.3971,-7.3313,-7.3991,-7.598,-7.74,-7.8136,-7.8141,-7.7303,-7.6999,-7.6931,-7.5489,-7.4869,-7.4869,-7.4869,-7.4869,-7.4869,0.0,0.0,-3.2104,-3.228,0.0,0.0,-3.4235,-3.4742,-3.5043,-3.485,-3.5518,-3.5931,-3.5779,-3.6412,0.0,-3.913,0.0,0.0,0.0,-4.2846,-4.2958,-4.2501,-4.2616,-4.2681,-4.2685,-4.3005,-4.2751,-4.1847,-4.3322,-4.3702,-4.3079,-4.4131,-4.4359,-4.4002,-4.4856,-4.396,-4.1833,-4.2342,-4.2102,-4.1384,-4.1534,-4.1504,-4.137,-4.0858,-4.0802,0.0,0.0,0.0,0.0,0.0,0.0,0.0,-4.4572,-4.5682,-4.6752,-4.6406,-4.5824,-4.56,0.0,0.0,0.0,0.0,0.0,0.0,0.0,0.0,0.0,0.0,0.0,0.0,0.0,0.0,0.0,0.0,0.0,0.0,0.0,0.0,0.0,0.0,0.0,0.0,0.0,-7.4952,-7.5766,-7.6343,-7.8504,-7.9435,-7.8759,-8.0354,-8.1221,-8.1221,-7.9307,-7.8343,-7.8343,-7.6092,-7.4869,-7.4869,-7.4869,-7.4809,-7.4629,-7.3971,-7.3597,-7.3606,-7.3971,-7.4375,-7.4861,-7.4644,-7.4902,-7.5354,-7.5006,-7.4869,-7.4869,-7.4869,-7.4869,-7.4869,0.0,0.0,0.0,0.0,0.0,0.0,0.0,0.0,-3.6223,-3.6444,-3.7111,-3.7526,-3.7627,-3.7824,0.0,0.0,0.0,0.0,0.0,-4.3419,-4.356,-4.3105,-4.3105,-4.2808,-4.2262,-4.2808,-4.2501,-4.1296,-4.2859,-4.388,-4.438,-4.4808,-4.523,-4.5521,-4.5495,-4.4285,-4.2342,-4.2671,-4.2432,-4.1863,-4.2192,-4.1953,-4.1354,-4.0995,-4.054,-4.0069,-4.0152,0.0,0.0,0.0,0.0,0.0,0.0,0.0,-4.6118,-4.5362,-4.5028,-4.4949,0.0,0.0,0.0,0.0,0.0,0.0,0.0,0.0,0.0,0.0,0.0,0.0,0.0,0.0,0.0,0.0,0.0,0.0,0.0,0.0,0.0,0.0,0.0,0.0,0.0,-7.6212,-7.6532,-7.6344,-7.8199,-7.9118,-7.8405,-8.0611,-8.1955,-8.1955,-8.0012,-7.8974,-7.8974,-7.6282,-7.4869,-7.4869,-7.4869,-7.4869,-7.4869,-7.451,-7.4001,-7.3402,-7.3702,-7.4061,-7.436,-7.436,-7.4569,-7.4869,-7.4869,-7.4869,-7.4869,-7.4869,-7.4869,-7.4869,0.0,0.0,0.0,0.0,0.0,0.0,0.0,0.0,0.0,-3.7793,-3.8288,-3.8799,-3.9434,-3.919,-3.9835,0.0,0.0,0.0,0.0,0.0,0.0,-4.3597,-4.3426,-4.3105,-4.2577,-4.2995,-4.2768,-4.185,-4.2591,-4.42,-4.6493,-4.5342,-4.5667,-4.7308,-4.5868,-4.4616,-4.3479,-4.315,-4.2671,-4.2222,-4.2641,-4.2192,-4.1205,-4.1205,-4.0457,-3.9523,-4.0224,-4.1107,-4.1853,-4.2163,0.0,0.0,0.0,0.0,-4.5563,-4.3959,-4.3587,-4.3667,0.0,0.0,0.0,0.0,0.0,0.0,0.0,0.0,0.0,0.0,0.0,0.0,0.0,0.0,0.0,0.0,0.0,0.0,0.0,0.0,0.0,0.0,0.0,0.0,0.0,-7.7263,-7.7224,-7.6181,-7.7785,-7.8522,-7.8186,-8.0971,-8.2572,-8.2572,-8.0766,-7.9803,-7.9803,-7.6467,-7.4869,-7.4869,-7.4869,-7.4749,-7.454,-7.4659,-7.442,-7.3911,-7.448,-7.4719,-7.4719,-7.4839,-7.4869,-7.4869,-7.4869,-7.4869,-7.4869,-7.4869,-7.4869,-7.4869,0.0,0.0,0.0,0.0,0.0,0.0,0.0,0.0,0.0,0.0,-3.7984,-3.838,-3.9388,-3.9691,-4.0591,-4.2537,-4.2929,-4.3453,-4.4353,0.0,0.0,-4.3943,-4.3212,-4.2501,-4.1937,-4.1979,-4.2043,-4.2055,-4.2819,-4.5892,-5.1124,-4.6846,-4.5921,-4.7903,-4.6081,-4.4885,-4.4077,-4.2372,-4.1594,-4.1474,-4.0995,-4.0696,-4.0516,-4.0516,-4.0068,-3.9463,-3.9702,-4.0318,-4.1148,-4.2026,-4.3313,0.0,0.0,0.0,-4.6364,-4.4749,-4.3388,-4.2778,0.0,0.0,0.0,0.0,0.0,0.0,0.0,0.0,0.0,0.0,0.0,0.0,0.0,0.0,0.0,0.0,0.0,0.0,0.0,0.0,0.0,0.0,0.0,0.0,0.0,-7.6604,-7.7029,-7.7046,-7.91,-8.0752,-8.1505,-8.3277,-8.4251,-8.4251,-8.1388,-7.9803,-7.9803,-7.6467,-7.4869,-7.4869,-7.4869,-7.427,-7.3193,-7.3762,-7.3971,-7.3881,-7.4001,-7.4031,-7.4061,-7.4629,-7.4869,-7.4869,-7.4869,-7.4869,-7.4869,-7.4869,-7.4869,-7.4869,0.0,0.0,0.0,0.0,0.0,0.0,0.0,0.0,0.0,0.0,0.0,-3.9242,-4.0053,-4.0853,-4.1983,-4.3652,-4.3847,-4.4162,-4.4858,-4.4346,-4.3998,-4.3998,-4.3177,-4.2422,-4.181,-4.181,-4.1894,-4.2085,-4.2846,-4.6254,-5.1993,-4.9029,-4.9324,-5.2125,-4.7782,-4.5723,-4.5274,-4.291,-4.1713,-4.1384,-4.1474,-4.1294,-4.0905,-4.0546,-4.0217,-4.0064,-4.0662,-4.1421,-4.2238,-4.3146,-4.4158,-4.5016,-4.471,0.0,0.0,0.0,-4.2848,0.0,0.0,0.0,0.0,0.0,0.0,0.0,0.0,0.0,0.0,0.0,0.0,0.0,0.0,0.0,0.0,0.0,0.0,0.0,0.0,0.0,0.0,0.0,0.0,0.0,0.0,-7.5587,-7.5942,-7.6696,-7.8121,-7.9537,-8.0899,-8.2435,-8.3004,-8.2076,-8.0159,-7.8676,-7.7842,-7.5917,-7.4689,-7.433,-7.433,-7.3821,-7.2894,-7.2445,-7.2624,-7.3343,-7.3343,-7.3343,-7.3373,-7.3672,-7.3762,-7.3821,-7.418,-7.433,-7.436,-7.4749,-7.4869,-7.4869,0.0,0.0,0.0,0.0,0.0,0.0,0.0,0.0,0.0,0.0,0.0,-4.0114,-4.0861,0.0,0.0,0.0,-4.461,-4.4784,-4.5204,-4.4638,-4.4261,-4.4146,-4.3279,-4.2505,-4.181,-4.1682,-4.1775,-4.2117,-4.2702,-4.6433,-5.2946,-5.1034,-5.279,-5.7253,-5.0713,-4.7549,-4.689,-4.4227,-4.303,-4.2821,-4.2132,-4.1564,-4.1085,-4.0576,-4.0307,-4.0334,-4.1586,-4.2322,-4.2937,-4.3976,-4.4785,-4.5242,-4.461,-4.3932,0.0,0.0,0.0,0.0,0.0,0.0,0.0,0.0,0.0,0.0,0.0,0.0,0.0,0.0,0.0,0.0,0.0,0.0,0.0,0.0,0.0,0.0,0.0,0.0,0.0,0.0,0.0,0.0,0.0,0.0,-7.4565,-7.5459,-7.6509,-7.788,-7.9385,-8.0682,-8.0856,-7.987,-7.8356,-7.7053,-7.6019,-7.4789,-7.3791,-7.3133,-7.3133,-7.2624,-7.1637,-7.0979,-7.1038,-7.1697,-7.2176,-7.2505,-7.2654,-7.2834,-7.2924,-7.2954,-7.3462,-7.3642,-7.3702,-7.421,-7.436,-7.439,0.0,0.0,0.0,0.0,0.0,0.0,0.0,0.0,0.0,0.0,0.0,-4.0514,-4.1603,-4.2375,-4.3267,-4.4471,-4.5184,-4.5547,-4.5568,-4.5243,-4.4896,-4.4599,-4.3664,0.0,-4.181,-4.1206,-4.136,-4.2272,-4.2339,-4.6878,-5.5446,-5.2268,-5.5016,-6.2301,-5.5092,-5.087,-4.8955,-4.6262,-4.5873,-4.6621,-4.2252,-4.0487,-4.0457,-4.0397,-4.0008,-3.9691,-4.1914,-4.2302,-4.1977,-4.3468,-4.4509,-4.4957,-4.4289,-4.4029,-4.3858,0.0,0.0,0.0,0.0,0.0,0.0,0.0,0.0,0.0,0.0,0.0,0.0,0.0,0.0,0.0,0.0,0.0,0.0,0.0,0.0,0.0,0.0,0.0,0.0,0.0,0.0,0.0,0.0,0.0,-7.2478,-7.3447,-7.4889,-7.6395,-7.7981,-7.8197,-7.8527,-7.9078,-7.6141,-7.4811,-7.5306,-7.3183,-7.1697,-7.1068,-7.1068,-7.0051,-6.8256,-6.9482,-6.9363,-6.8345,-7.0201,-7.1368,-7.1996,-7.2654,-7.2924,-7.2924,-7.2954,-7.2954,-7.2984,-7.3013,-7.3013,-7.3103,0.0,0.0,0.0,0.0,0.0,0.0,0.0,0.0,0.0,0.0,0.0,0.0,0.0,-4.2114,-4.331,-4.4471,-4.5011,-4.5263,-4.5263,-4.4738,-4.4346,-4.4204,-4.3382,-4.2546,-4.181,-4.1206,-4.1106,-4.1576,-4.1576,-4.4722,-5.068,-4.9863,-5.1406,-5.4825,-5.2123,-5.102,-5.084,-4.6052,-4.4317,-4.4496,-4.1564,-4.0905,-4.1474,-3.9768,-3.9768,-4.0815,-4.1801,0.0,-4.3283,-4.4865,-4.5461,-4.5499,-4.5349,-4.4203,-4.2842,-4.2045,-4.2138,0.0,0.0,0.0,0.0,0.0,0.0,0.0,0.0,0.0,0.0,0.0,0.0,0.0,0.0,0.0,0.0,0.0,0.0,0.0,0.0,0.0,0.0,0.0,0.0,0.0,0.0,0.0,0.0,-7.2641,-7.2776,-7.3359,-7.4451,-7.4982,-7.459,-7.3461,-7.3208,-7.2645,-7.1947,-7.1126,-7.0081,-6.9034,-6.9034,-6.8435,-6.7358,-6.7418,-6.7418,-6.7358,-6.7627,-6.8615,-7.0021,-6.9812,-7.026,-7.1068,-7.1457,-7.1876,-7.2295,-7.2744,-7.2924,-7.2954,0.0,0.0,0.0,0.0,0.0,-3.8183,-3.7902,-3.8683,-3.9149,-3.8631,0.0,0.0,0.0,0.0,-4.3148,-4.4471,-4.48,-4.4919,-4.4919,-4.4482,-4.4146,-4.3998,-4.3453,-4.2736,-4.181,-4.163,-4.1587,-4.1576,-4.1576,-4.3876,-4.8247,-4.7664,-4.8675,-5.0944,-4.9011,-4.931,-5.0958,-4.7225,-4.5263,-4.4453,-4.2037,-4.1454,-4.1942,-4.1053,-4.1007,-4.1577,0.0,0.0,0.0,-4.4278,-4.425,-4.3908,-4.468,-4.399,-4.2851,-4.1983,-4.2162,-4.288,-4.3748,0.0,0.0,0.0,0.0,0.0,0.0,0.0,0.0,0.0,0.0,0.0,0.0,0.0,0.0,0.0,0.0,0.0,0.0,0.0,0.0,0.0,0.0,0.0,0.0,0.0,0.0,-6.9791,-6.9896,0.0,-7.0727,-7.1251,-7.062,-6.8868,-6.9973,-6.9975,-6.8974,-6.8734,-6.8166,-6.7298,-6.7089,-6.664,-6.5981,-6.5772,-6.5802,-6.5951,-6.5533,-6.661,-6.8615,-6.8166,-6.8645,-6.9722,-7.035,-7.0859,-7.1338,-7.1996,-7.2385,-7.2595,0.0,0.0,-3.728,-3.87,-3.8971,-3.9242,-3.9952,-4.0054,-4.0087,-4.0003,0.0,0.0,0.0,0.0,0.0,-4.4519,-4.4636,-4.4636,-4.4599,-4.4599,-4.4373,-4.3998,-4.4004,-4.3314,-4.1888,-4.2546,-4.2695,-4.2252,-4.2252,-4.4429,-4.8591,-4.5956,-4.7289,-5.1757,-4.659,-4.6049,-4.9126,-4.9656,-4.8942,-4.7079,0.0,-4.1989,-4.1705,-4.4211,0.0,0.0,-4.575,-4.4785,0.0,-4.1619,0.0,0.0,-4.2024,-4.3436,-4.4077,-4.2791,-4.2851,-4.3359,0.0,0.0,0.0,0.0,0.0,0.0,0.0,0.0,0.0,0.0,0.0,0.0,0.0,0.0,0.0,0.0,0.0,0.0,0.0,0.0,0.0,0.0,0.0,0.0,0.0,0.0,0.0,-6.5084,-6.6277,-6.7125,-6.7094,-6.7094,-6.6782,-6.5951,-6.661,-6.6909,-6.6909,-6.6281,-6.5951,-6.5922,-6.5263,-6.4605,-6.4006,-6.4665,-6.4605,-6.3977,-6.3977,-6.5443,-6.7837,-6.7867,-6.8315,-6.9004,-6.9662,-6.9961,-7.0051,-7.0649,-7.1308,-7.1966,0.0,-3.7212,-3.7719,-3.8125,-3.8633,-3.889,-3.8517,-3.8877,-3.9049,0.0,0.0,0.0,-4.1013,-4.3757,-4.5508,-4.5471,-4.5715,-4.5417,-4.4221,-4.3943,-4.3758,-4.3664,-4.3761,-4.3451,-4.2625,-4.2952,-4.2327,-4.0745,-4.0745,-4.08,-4.0912,-4.1494,-4.2802,-4.458,-4.4364,-4.431,-4.4265,-4.3974,0.0,-4.5543,-4.1814,-4.1637,0.0,0.0,0.0,0.0,0.0,-4.2782,-4.3249,0.0,-4.2879,-4.3045,-4.3136,-4.3705,-4.4257,-4.3868,-4.3898,-4.3928,-4.3449,0.0,0.0,0.0,0.0,0.0,0.0,0.0,0.0,0.0,0.0,0.0,0.0,0.0,0.0,0.0,0.0,0.0,0.0,0.0,0.0,0.0,0.0,0.0,0.0,0.0,0.0,0.0,-6.5349,-6.543,-6.4946,-6.4916,-6.5015,-6.5263,-6.5473,-6.5323,-6.4844,-6.4635,-6.4336,-6.3887,-6.3707,-6.3528,-6.3348,-6.3528,-6.3498,-6.3318,-6.3318,-6.4006,-6.5144,-6.5622,-6.652,-6.7597,-6.8256,-6.9123,-6.9991,-7.0171,-7.0949,-7.1906,-3.7691,-3.7782,-3.7953,-3.8254,-3.8631,-3.8776,-3.8307,-3.878,-3.912,0.0,0.0,0.0,-4.1495,-4.4796,-4.6506,-4.5413,-4.5551,-4.516,-4.3897,-4.3892,-4.3869,-4.3615,-4.4038,-4.3906,-4.3033,-4.3093,-4.2306,-4.0545,-4.05,-3.9865,-3.8718,-3.9435,-4.009,-4.0832,-4.1489,-4.1566,-4.1084,-4.0723,0.0,0.0,-4.1468,0.0,0.0,-4.2261,-4.2154,0.0,0.0,0.0,-4.4528,-4.3552,-4.3256,0.0,0.0,-4.2701,-4.3631,-4.3822,-4.3902,-4.3926,-4.4094,-4.502,-4.6439,-4.8381,0.0,0.0,-5.253,-5.4895,0.0,0.0,0.0,0.0,0.0,0.0,0.0,0.0,0.0,0.0,0.0,0.0,0.0,0.0,0.0,0.0,0.0,-6.4066,-6.4216,-6.4216,-6.4216,-6.4036,-6.3647,-6.3617,-6.3797,-6.4186,-6.3947,-6.3617,-6.3199,-6.2929,-6.275,-6.266,-6.266,-6.281,-6.3079,-6.3079,-6.3079,-6.3079,-6.3079,-6.3288,-6.3647,-6.4336,-6.5383,-6.667,-6.7597,-6.8615,-6.9632,-7.0171,-7.1009,-7.1936,0.0,-3.8266,-3.8023,-3.8646,-3.8771,-3.8758,-3.8794,-3.9182,-3.9564,0.0,-3.9975,-4.0918,-4.3083,-4.5717,-4.6722,-4.5223,-4.5113,-4.4673,-4.3721,-4.4344,-4.4453,-4.3872,-4.451,-4.4387,-4.3197,-4.309,-4.2345,-4.0943,-4.0823,-4.0324,-3.9529,-3.89,-3.8943,-3.9431,-3.8711,-3.8781,-3.9409,-3.9409,-4.0077,-4.1191,-4.1796,-4.2474,0.0,0.0,-4.5257,-4.4912,-4.6731,-4.6732,-4.5428,-4.3755,-4.2891,0.0,0.0,-4.1113,-4.2583,-4.3279,-4.3429,-4.3748,-4.5078,-4.6919,-4.901,-5.1733,-5.1927,0.0,-5.4449,-5.4176,-5.3853,0.0,0.0,0.0,0.0,0.0,0.0,0.0,0.0,0.0,0.0,0.0,0.0,0.0,0.0,0.0,-6.1762,-6.2361,-6.275,-6.275,-6.281,-6.2869,-6.2869,-6.2869,-6.2869,-6.2869,-6.2301,-6.2002,-6.2002,-6.1403,-6.1403,-6.2002,-6.2002,-6.2301,-6.2869,-6.2929,-6.2959,-6.2959,-6.3049,-6.3079,-6.3109,-6.3677,-6.4635,-6.5922,-6.7238,-6.8226,-6.9034,-7.026,-7.1188,-7.1996,-3.803,-3.7883,-3.7833,-3.8019,-3.8456,-3.8737,-3.8653,-3.8004,-3.7994,-3.9334,-4.1032,-4.319,-4.6111,-4.7438,-4.799,-4.7695,-4.7627,-4.6759,-4.4838,-4.4834,-4.4664,-4.3988,-4.4308,-4.3973,-4.3037,-4.318,-4.189,-3.922,-3.9718,-3.8982,-3.7188,-3.8047,-3.8521,-3.8672,-3.8462,-3.8781,-3.9409,-3.9409,0.0,-3.9434,-4.0402,0.0,-4.2711,-4.2889,-4.3118,-4.3457,-4.4326,-4.503,-4.5294,-4.4055,-4.3682,-4.3519,0.0,0.0,0.0,-4.3767,-4.392,-4.4006,-4.6001,-4.7681,-4.908,-5.0131,-5.1564,0.0,-5.2169,-5.2775,-5.372,0.0,0.0,0.0,0.0,0.0,0.0,0.0,0.0,0.0,0.0,0.0,0.0,0.0,0.0,0.0,-5.9697,-6.0266,-6.0685,-6.0685,-6.1194,-6.1493,-6.1493,-6.1493,-6.1493,-6.1493,-6.1373,-6.1313,-6.1313,-6.1194,-6.1194,-6.1313,-6.1313,-6.1373,-6.1523,-6.2061,-6.2301,-6.2331,-6.2839,-6.3079,-6.3079,-6.3199,-6.3707,-6.4515,-6.5862,-6.7119,-6.8256,-6.9064,-7.044,-7.1996,-3.7718,-3.7508,-3.7203,-3.7203,-3.7717,-3.8203,-3.8446,-3.8572,-3.9218,-4.0696,-4.3166,-4.507,-4.5865,-4.7325,-4.7807,-4.6759,-4.6635,-4.5792,-4.3996,-4.4618,-4.4435,-4.2911,-4.3731,-4.3741,-4.2506,-4.1876,-4.0737,-3.9237,-3.8775,-3.8385,-3.8147,-3.872,-3.9229,-3.9632,-4.0039,-3.9924,-3.9564,-4.0233,-3.9713,-3.8468,-4.0184,0.0,-4.197,-4.2118,-4.3011,-4.4217,-4.4217,-4.4945,-4.5673,-4.4267,-4.4041,0.0,-4.2006,-4.167,-4.2312,0.0,-4.4783,-4.523,-4.7283,-4.908,-5.0606,-5.1211,-5.1993,0.0,0.0,-5.0834,-5.0895,0.0,0.0,0.0,0.0,0.0,0.0,0.0,0.0,0.0,0.0,0.0,0.0,0.0,0.0,0.0,-5.7154,-5.8351,-5.9249,-5.9578,-5.9907,-6.0116,-6.0116,-6.0116,-6.0116,-6.0116,-5.9787,-5.9608,-5.9608,-5.9279,-5.9458,-6.0116,-6.0116,-6.0475,-6.1134,-6.1463,-6.1792,-6.2121,-6.245,-6.3177,-6.3984,-6.3394,-6.3659,-6.4592,-6.5201,-6.6311,-6.7597,-6.8615,-6.9812,-7.1068,-3.7404,-3.6904,-3.6384,-3.6384,-3.6849,-3.7494,-3.8272,-3.9145,-4.0307,-4.2079,-4.4637,-4.5912,-4.5154,-4.6198,-4.6517,-4.5522,-4.4529,-4.3722,-4.3103,-4.3838,-4.3423,-4.1471,-4.2899,-4.3086,-4.1597,-4.0344,-3.9539,-3.9283,-3.8107,-3.8182,-3.9296,-3.9699,-4.0188,-4.0674,-4.1278,-4.0692,-3.9337,0.0,0.0,-3.7672,0.0,-4.0977,-4.0863,-4.1833,-4.3263,-4.4819,-4.4669,-4.5296,-4.5899,-4.397,-4.3861,-4.3951,-4.138,-4.1354,0.0,0.0,0.0,0.0,-4.9334,-5.1642,-5.3338,-5.3206,-5.3272,-5.2885,0.0,0.0,0.0,0.0,0.0,0.0,0.0,0.0,0.0,0.0,0.0,0.0,0.0,0.0,0.0,0.0,0.0,0.0,-5.4669,-5.6059,-5.7304,-5.8112,-5.8171,-5.8231,-5.8351,-5.8351,-5.8351,-5.8351,-5.7842,-5.7633,-5.7752,-5.7184,-5.7513,-5.871,-5.871,-5.9447,-6.0946,-6.1067,-6.166,-6.2718,-6.287,-6.3678,-6.5032,-6.3902,-6.4015,-6.4746,-6.4774,-6.5562,-6.6789,-6.8106,-6.9123,-6.9961,-3.66,-3.6133,-3.5619,-3.5619,-3.6154,-3.6985,-3.8212,-3.7739,-3.8283,-4.1482,-4.2992,-4.4526,-4.6431,-4.4318,-4.4061,-4.7219,-4.3182,-4.163,-4.4308,-4.233,-4.0855,-4.0364,-4.1597,-4.1534,-3.9991,-3.9765,-3.9057,-3.7631,-3.8102,-3.8152,-3.7901,-3.973,-4.0256,-3.9765,-3.9893,-3.9221,0.0,0.0,-3.7714,0.0,-3.8806,-3.9284,0.0,-4.1235,-4.2308,-4.271,-4.4116,-4.5045,-4.516,0.0,-4.2641,-4.3512,0.0,-4.1522,-4.3141,-4.6052,0.0,0.0,0.0,0.0,0.0,0.0,-5.6381,-5.7376,0.0,0.0,-5.0717,-4.9317,0.0,0.0,0.0,0.0,0.0,0.0,0.0,0.0,0.0,0.0,0.0,0.0,0.0,0.0,0.0,-5.2937,-5.3384,-5.467,-5.476,-5.5029,-5.5598,-5.5628,-5.5628,-5.5628,-5.5568,-5.5807,-5.6376,-5.6316,-5.6615,-5.7334,-5.7334,-5.8291,-6.0228,-6.0784,-6.2362,-6.4774,-6.5377,-6.5419,-6.5111,-6.4923,-6.432,-6.3339,-6.3944,-6.4575,-6.5413,-6.6729,-6.8016,-6.9303,-3.5879,-3.5718,-3.5519,-3.5519,-3.6357,-3.7315,-3.8242,-4.0588,-4.2386,-4.268,-4.4438,-4.5303,-4.4303,-4.3694,0.0,-4.4061,0.0,-4.1585,0.0,0.0,-3.9979,-3.888,-4.051,-4.0629,-3.9119,-3.9895,-3.9757,-3.8571,-3.8584,-3.8886,-3.9535,-3.9963,-4.0224,-4.0411,-3.9879,0.0,-3.7974,0.0,0.0,0.0,0.0,0.0,0.0,-4.0275,-4.1806,-4.2811,-4.4141,-4.4769,-4.4703,0.0,-4.3144,0.0,0.0,0.0,0.0,-4.9066,0.0,0.0,0.0,0.0,0.0,0.0,0.0,0.0,-5.1556,0.0,-4.8409,0.0,0.0,0.0,0.0,0.0,0.0,0.0,-5.1744,0.0,0.0,0.0,0.0,0.0,0.0,0.0,0.0,-5.126,-5.1788,-5.2703,-5.3713,-5.4144,-5.3833,-5.4135,-5.4092,-5.3443,-5.3832,-5.4162,-5.4431,-5.485,-5.5702,-5.7106,-5.7403,-5.8807,-6.1116,-6.1369,-6.2868,-6.5116,-6.5436,-6.5867,-6.6259,-6.5436,-6.4813,-6.4239,-6.3665,-6.3857,-6.4605,-6.5922,-6.7268,-6.8585,-3.5519,-3.5519,-3.5519,-3.5519,-3.6417,-3.7494,-3.8512,-4.1989,-4.4167,-4.32,-4.4083,-4.4053,-4.2189,-4.1828,0.0,0.0,-4.0931,-4.0237,0.0,0.0,-3.8464,0.0,0.0,0.0,0.0,-3.9847,-4.006,-3.9409,-3.8872,-3.9175,-4.0262,-4.0025,-4.0196,-4.0554,-3.9966,-3.8983,-3.7769,0.0,0.0,-3.6519,-3.8236,-3.8466,-3.8065,-3.9848,-4.1455,-4.2886,-4.384,-4.4267,-4.4152,-4.2985,-4.379,0.0,-4.5805,-4.7671,-5.0297,0.0,0.0,0.0,-5.6776,0.0,0.0,0.0,0.0,0.0,0.0,0.0,0.0,0.0,0.0,0.0,0.0,0.0,-5.1619,-5.2568,0.0,-5.1251,0.0,0.0,0.0,0.0,0.0,0.0,0.0,-5.0203,-5.0632,-5.135,-5.2491,-5.287,-5.2007,-5.2568,-5.2489,-5.1409,-5.2037,-5.2456,-5.2636,-5.3863,-5.5237,-5.6712,-5.7681,-5.957,-6.216,-6.2128,-6.3667,-6.6191,-6.6191,-6.6613,-6.7061,-6.6048,-6.5219,-6.4401,-6.3478,-6.3348,-6.3917,-6.5263,-6.658,-6.7897,-3.5519,-3.5519,-3.5519,-3.5519,-3.6058,-3.7165,-3.908,-3.9642,-4.0412,-4.2222,0.0,0.0,0.0,0.0,0.0,0.0,0.0,-3.6064,-4.0921,0.0,-3.5237,0.0,0.0,-3.9528,0.0,-3.9439,-3.9409,-3.9409,-3.8691,-3.8485,-3.8673,-4.0039,-4.0287,-3.9663,-3.9715,-3.8793,-3.7206,-3.7643,-3.7258,-3.6553,-3.8239,-3.9246,-3.9672,0.0,-4.1204,-4.2258,-4.2836,0.0,0.0,-4.1962,-4.3901,-4.7033,-4.7814,0.0,0.0,0.0,0.0,0.0,0.0,-6.0662,0.0,-5.4907,0.0,0.0,0.0,0.0,-5.072,0.0,0.0,0.0,-5.082,-5.1651,-5.2101,-5.0982,-5.1595,0.0,0.0,0.0,0.0,0.0,0.0,0.0,0.0,0.0,0.0,0.0,-5.0338,-5.0184,-4.9842,-5.0522,-5.0406,-4.9434,-5.0002,-5.0631,-5.1289,-5.3714,-5.5318,-5.6093,-5.7892,-6.0211,-6.2793,-6.2793,-6.5026,-6.8992,-6.8992,-6.8307,-6.7164,-6.7164,-6.5544,-6.3194,-6.3079,-6.3079,-6.3258,-6.4575,-6.5892,-6.7208,-3.5127,-3.5651,-3.6148,-3.6148,0.0,-3.818,-3.9361,-4.1059,-4.1896,0.0,0.0,0.0,0.0,0.0,-4.0612,0.0,0.0,-4.0195,-4.1823,-3.9469,0.0,0.0,0.0,-3.9711,0.0,0.0,-4.0305,-3.9011,-3.8941,-3.8652,-3.8228,-3.8627,-3.9073,-3.9596,-3.8436,-3.7368,0.0,0.0,0.0,0.0,0.0,-3.9848,-4.1254,0.0,-4.0978,-4.1681,-4.2233,-4.3653,0.0,-4.5114,-4.7347,-5.0558,-5.2081,-5.4827,-5.786,-5.9581,-6.1956,-6.3668,-6.2081,-6.308,-6.31,-5.7121,0.0,0.0,0.0,0.0,0.0,0.0,0.0,0.0,0.0,-5.2795,-5.3353,-5.263,-5.2438,-5.1792,0.0,0.0,0.0,0.0,0.0,0.0,0.0,0.0,0.0,0.0,-5.0208,-5.05,-4.9715,-5.0151,-5.0203,-4.961,-4.9975,-5.0668,-5.1631,-5.3402,-5.5386,-5.7656,-5.8743,-6.0882,-6.3969,-6.3969,-6.5867,-6.9113,-6.9113,-6.84,-6.7164,-6.7164,-6.5544,-6.3079,-6.3079,-6.3079,-6.3228,-6.4545,-6.5592,-6.6458,-3.5517,-3.6221,-3.6738,0.0,0.0,-3.8487,-3.9456,0.0,0.0,0.0,-4.1208,0.0,-4.0013,0.0,-4.179,0.0,-4.2632,-4.271,-4.283,-4.1929,0.0,-4.014,-4.1063,0.0,0.0,0.0,0.0,-3.8871,-3.8755,-3.8318,-3.7709,-3.7774,-3.8179,-3.8873,-3.7792,-3.7035,0.0,0.0,-3.658,0.0,0.0,-4.0023,0.0,0.0,-4.1453,-4.2233,0.0,-4.437,-4.619,-4.7785,-5.0388,-5.3562,-5.6396,-5.9128,-6.1588,-6.3126,-6.4959,-6.5968,-6.3678,-6.3867,-6.3444,-5.8344,-5.6416,-5.488,-5.1169,0.0,-5.2587,0.0,0.0,0.0,0.0,-5.4547,-5.3989,-5.3703,-5.2708,-5.1386,0.0,-4.9289,0.0,0.0,0.0,0.0,0.0,0.0,0.0,-4.8861,-5.0051,-5.0389,0.0,-4.9985,-5.0205,-4.9658,-5.0314,-5.1117,-5.2103,-5.3882,-5.5963,-5.8525,-5.961,-6.1709,-6.4613,-6.4613,-6.6102,-6.8673,-6.8203,-6.7537,-6.6812,-6.6266,-6.4894,-6.3079,-6.3079,-6.3079,-6.3199,-6.4276,-6.4993,-6.5411,-3.647,-3.6909,0.0,0.0,-3.702,0.0,0.0,0.0,-4.0977,0.0,-4.0336,-4.032,-3.9866,-4.015,-4.1259,-4.3444,-4.3419,0.0,-4.4544,-4.4875,0.0,0.0,-4.4001,-4.3905,-4.2438,0.0,0.0,0.0,-3.8171,-3.7538,-3.7151,-3.7487,-3.7663,-3.7796,-3.7808,0.0,-3.7044,-3.7723,-3.7736,-3.7362,-3.9019,-3.9747,-4.0004,-4.1224,-4.2656,-4.4029,-4.4774,-4.558,-4.6813,-4.9802,-5.28,-5.6115,-6.0486,-6.2867,-6.4432,-6.6339,-6.7455,-6.7107,-6.3153,-6.3132,-6.3186,-5.8455,-5.7244,-5.6346,-5.3271,0.0,-5.6194,0.0,0.0,0.0,0.0,-5.6776,-5.4128,-5.3931,-5.2332,-5.0608,-4.9221,-4.9018,0.0,0.0,0.0,0.0,0.0,0.0,-5.0507,-4.9052,-4.9593,-4.955,0.0,-4.9977,-5.034,-4.9416,-5.0717,-5.1773,-5.2557,-5.4946,-5.6975,-5.8606,-6.036,-6.2415,-6.4613,-6.4613,-6.5797,-6.7809,-6.6533,-6.6027,-6.5937,-6.4695,-6.3678,-6.3079,-6.3079,-6.3079,-6.3023,-6.368,-6.3965,-6.4009,-3.6237,-3.6253,-3.6694,0.0,-3.8313,-3.8677,0.0,0.0,0.0,0.0,-4.2197,-4.3556,-4.4374,-4.4519,-4.5776,-4.8573,-4.8802,0.0,0.0,0.0,0.0,-4.8936,-4.6914,-4.5592,-4.5299,-4.2054,0.0,-3.8895,0.0,-3.6493,-3.707,-3.5981,-3.6318,-3.7796,-3.7442,0.0,-3.5435,-3.6813,-3.7518,-3.7914,-3.9195,-4.1001,-4.2971,0.0,-4.4543,-4.6705,-4.5608,-4.7813,-5.1245,-5.2082,-5.6091,-6.1051,-6.2787,-6.4951,-6.7113,-6.8181,-6.9011,-6.892,-6.5869,-6.5692,-6.537,-6.1152,-5.9338,-5.8399,-5.758,-5.867,-5.9563,0.0,0.0,0.0,0.0,-5.7897,-5.664,-5.3243,-5.0921,-4.9424,-4.9052,0.0,0.0,-4.9999,0.0,0.0,0.0,0.0,-4.9187,-4.8274,-4.8376,-4.8354,-4.8073,0.0,-5.0134,-5.0445,-5.1101,-5.2165,-5.3651,-5.4799,-5.6823,-5.9698,-6.0131,-6.1873,-6.4613,-6.4613,-6.5797,-6.7809,-6.6533,-6.6027,-6.5937,-6.4695,-6.3678,-6.3079,-6.3079,-6.2292,-6.1255,-6.2389,-6.2251,-6.1518,-3.649,-3.6416,0.0,-3.7066,0.0,0.0,-3.7975,0.0,0.0,-4.1259,-4.3357,0.0,-4.5806,-4.7493,-4.9576,-5.1765,-5.2801,0.0,0.0,0.0,0.0,-5.282,-4.9913,-4.7649,-4.6315,-4.2207,0.0,-3.8161,0.0,-3.5487,-3.6061,-3.513,-3.5305,-3.6425,-3.6197,-3.568,0.0,-3.63,-3.7534,-3.8869,-3.9827,-4.1282,0.0,-4.3949,-4.5762,-4.7824,-4.7782,-4.9946,-5.3139,-5.4818,-5.8663,-6.3066,-6.4314,-6.6369,-6.8571,-6.935,-7.0094,-7.0186,-6.8013,-6.7782,-6.7379,-6.4471,-6.3193,-6.2383,-6.1581,-6.2,-6.2263,-6.1426,-6.2497,-6.2802,-6.0484,0.0,-5.6664,-5.2503,-5.0777,-4.9965,0.0,0.0,0.0,0.0,-5.0304,0.0,0.0,-4.9695,-4.8714,-4.797,-4.7936,-4.8071,-4.8376,0.0,-5.0525,-5.0925,-5.2785,-5.4072,-5.4795,-5.6162,-5.7859,-6.0114,-6.0114,-6.1501,-6.414,-6.4444,-6.5177,-6.6076,-6.5089,-6.4674,-6.4673,-6.3364,-6.291,-6.3079,-6.2292,-6.048,-5.834,-5.9589,-5.9627,-5.9022,-3.6991,0.0,0.0,0.0,0.0,0.0,0.0,-4.0721,0.0,-4.2615,0.0,-4.6858,-4.7151,-5.0337,-5.2904,-5.4252,0.0,-5.6767,-5.6557,-5.7567,-5.7251,-5.5296,-5.2656,-4.9803,-4.6591,-4.208,0.0,0.0,0.0,-3.474,-3.5099,-3.4809,-3.4733,-3.4897,-3.4812,0.0,0.0,-3.6146,-3.7749,-3.9701,-4.0631,-4.1453,-4.2377,-4.4805,-4.6727,-4.8464,-5.0692,-5.2229,-5.3837,-5.7307,-6.039,-6.3093,-6.5109,-6.7117,-6.8977,-6.9925,-7.0635,-7.0872,-6.9599,-6.9217,-6.8894,-6.7572,-6.7164,-6.6786,-6.5254,-6.4771,-6.4704,-6.4685,-6.3524,-6.2649,-6.3134,-5.9471,-5.5277,-5.1894,-5.1285,0.0,0.0,0.0,0.0,0.0,0.0,0.0,0.0,-4.9357,-4.8612,-4.797,-4.7936,-4.8206,-4.8815,0.0,-5.1217,-5.1217,-5.4566,-5.6258,-5.6021,-5.7712,-5.9167,-6.025,-6.0047,-6.1163,-6.3396,-6.4038,-6.4087,-6.3758,-6.3156,-6.292,-6.2884,-6.1599,-6.1768,-6.2555,-6.0629,-5.8076,-5.5551,-5.6389,-5.6725,-5.6608,0.0,0.0,0.0,0.0,0.0,-4.0006,-4.2106,-4.4029,-4.607,-4.8068,-5.0279,-5.2607,-5.4871,-5.5735,-5.6858,-5.8313,-5.9308,0.0,0.0,0.0,0.0,-5.734,-5.4063,-5.1058,-4.8311,-4.3079,-3.9998,0.0,-3.5755,-3.5192,-3.728,-3.5538,-3.5116,-3.5922,0.0,0.0,-3.4774,-3.642,0.0,-3.921,-4.1387,-4.3231,-4.4961,-4.6815,-4.8313,-4.9873,-5.3182,-5.4872,-5.5946,-5.7821,-6.0251,-6.2851,-6.4971,-6.6406,-6.7624,-6.9586,-7.0297,-7.0198,-6.9467,-6.9217,-6.8894,-6.7572,-6.7164,-6.7374,-6.8111,-6.7877,-6.7537,-6.8081,-6.6997,-6.5008,-6.2245,-5.7509,-5.3653,0.0,0.0,0.0,0.0,0.0,0.0,0.0,0.0,-5.0101,0.0,0.0,-4.8071,-4.7936,0.0,-4.797,-4.8105,0.0,-5.1217,0.0,-5.3078,-5.5175,0.0,-5.6697,-5.7915,-6.1061,-5.981,-6.0385,-6.2584,-6.2719,-6.3115,-6.3758,-6.264,-6.2477,-6.2884,-6.1599,-6.0993,-6.06,-5.7569,-5.5918,-5.5234,-5.4526,-5.4556,-5.487,0.0,0.0,0.0,0.0,0.0,0.0,0.0,-4.9035,0.0,-5.0565,-5.2191,-5.4331,-5.692,-5.8285,-5.9422,-6.0735,-6.1087,-6.1259,-6.1052,-6.0775,-5.9688,-5.7801,-5.4456,0.0,-4.8311,-4.3156,-4.0099,-3.927,-3.5956,-3.4958,-3.6192,-3.5437,-3.5189,-3.544,0.0,-3.5173,0.0,0.0,-3.8182,-4.0377,-4.2284,-4.4289,-4.6403,-4.8248,-4.9739,-5.1257,-5.4186,-5.5563,-5.627,-5.8585,-6.0707,-6.2651,-6.4106,-6.5595,-6.7015,-6.8098,-6.9248,-7.014,-6.9812,-6.9962,-7.017,-6.9442,-6.9346,-6.9438,-6.9669,-6.9428,-6.8942,-6.8113,-6.732,-6.5696,-6.1975,-5.7645,-5.4532,0.0,0.0,0.0,0.0,0.0,-5.1792,0.0,0.0,0.0,0.0,0.0,0.0,0.0,0.0,0.0,0.0,0.0,-5.0811,0.0,0.0,0.0,-5.6765,0.0,-5.8321,-6.0114,-5.9742,-6.0351,-6.1839,-6.2618,-6.2649,-6.2145,-6.1944,-6.1953,-6.1929,-6.1134,-5.9572,-5.7696,-5.6049,-5.4916,-5.4158,-5.4088,-5.3719,-5.2816,0.0,-3.9468,0.0,0.0,-4.5101,0.0,-5.022,-5.3618,-5.528,-5.3375,-5.4221,-5.5876,-5.8198,-6.0063,-6.138,-6.2037,-6.2091,-6.1762,-6.0954,-6.0386,-5.9162,-5.711,-5.4257,-5.1135,-4.7712,-4.3067,-4.0149,0.0,-3.6257,-3.4916,-3.5035,-3.5383,-3.5152,-3.4492,-3.4729,0.0,-3.6204,-3.7026,-3.9157,-4.2036,-4.3777,-4.5598,-4.7522,-4.9552,-5.1096,-5.2382,-5.4593,-5.5576,-5.6359,-5.8998,-6.0791,-6.211,-6.3159,-6.4816,-6.6406,-6.6711,-6.8199,-6.9755,-7.0094,-7.0423,-7.0714,-7.1188,-7.1098,-7.0714,-7.0276,-6.9925,-6.9147,-6.7218,-6.6203,-6.4715,-6.1603,-5.8254,-5.5886,0.0,0.0,0.0,0.0,0.0,0.0,0.0,0.0,0.0,-5.0101,0.0,0.0,0.0,0.0,0.0,-4.8702,0.0,0.0,0.0,0.0,-5.5547,-5.6156,0.0,-5.8727,-5.9505,-5.9742,-6.0385,-6.1366,-6.238,-6.2075,-6.0706,-6.1377,-6.1361,-6.0664,-6.0168,-5.8202,-5.5419,-5.5049,-5.4055,-5.3055,-5.416,-5.3488,-5.2065,0.0,0.0,0.0,0.0,0.0,0.0,-5.3204,-5.6185,-5.8577,-5.8918,-5.9004,-5.9974,-6.2255,-6.2668,-6.2665,-6.2151,-6.2091,-6.1553,-6.0266,-6.0116,-5.8508,-5.4852,-5.3486,-5.0963,-4.7222,-4.3212,-4.0727,0.0,-3.6835,-3.5633,-3.6131,-3.5726,-3.4914,-3.3885,-3.4967,-3.5492,-3.5664,-3.9013,-4.1477,-4.3448,-4.6264,-4.7916,-4.8891,-5.0887,-5.2203,-5.3155,-5.5022,-5.6119,-5.6934,-5.8558,-5.9641,-6.0689,-6.2854,-6.4106,-6.5087,-6.6406,-6.7421,-6.8402,-6.9823,-6.9319,-6.8837,-7.0838,-7.0356,-6.9528,-7.0063,-6.9113,-6.7861,-6.6981,-6.414,-6.1501,-6.0419,-5.8287,-5.6494,-5.5818,0.0,0.0,0.0,0.0,-5.3112,-5.2401,0.0,0.0,0.0,-5.0033,0.0,0.0,-4.8525,0.0,0.0,0.0,0.0,-5.1153,-5.2841,-5.5006,-5.7645,-5.6562,-5.7746,-6.1061,-5.9742,-5.9877,-6.1332,-6.0853,-6.0685,-6.0738,-6.0939,-6.0452,-5.9648,-5.8603,-5.7085,-5.5287,-5.3674,-5.3042,-5.3055,-5.416,-5.442,-5.3948,0.0,0.0,0.0,0.0,0.0,0.0,0.0,-5.8871,-6.0347,-6.0996,-6.1084,-6.1463,-6.245,-6.2121,-6.1642,-6.0954,-6.0894,-6.0505,-5.9548,-5.9488,-5.8254,-5.5253,-5.358,-5.1014,-4.7496,-4.4041,-4.1455,0.0,0.0,-3.6572,-3.5788,-3.5905,-3.56,-3.4835,-3.6115,-3.6962,-3.7756,-4.0363,-4.3049,-4.5598,-4.7163,-4.8985,-5.0811,-5.2089,-5.2876,-5.3576,-5.5609,-5.6562,-5.7103,-5.8998,-5.9877,-6.0351,-6.1738,-6.3294,-6.4715,-6.5324,-6.6643,-6.7858,-6.7691,-6.7546,-6.7757,-6.8552,-6.7976,-6.7479,-6.8041,-6.732,-6.6237,-6.5087,-6.2956,-6.1061,-6.025,-5.866,-5.734,-5.707,0.0,0.0,0.0,0.0,0.0,-5.2482,0.0,-5.0762,0.0,-4.983,0.0,0.0,0.0,0.0,0.0,0.0,0.0,-5.186,0.0,-5.4227,-5.726,-5.6677,-5.7844,-6.0727,-6.0556,-6.0944,-6.1975,-6.1368,-6.1051,-6.0777,-6.0313,-5.9248,-5.7864,-5.684,-5.5446,-5.3784,-5.3179,-5.2929,-5.3055,-5.416,-5.3799,-5.2623,-5.1333,0.0,-5.2939,0.0,-5.6368,-5.7685,-6.0005,-6.0783,-6.1343,-6.2002,-6.1762,-6.1583,-6.1792,-6.1403,-6.0835,-6.0146,-6.0086,-5.9727,-5.886,-5.883,-5.7576,-5.4827,-5.3303,0.0,-4.7403,-4.4611,-4.2133,-3.9948,-3.8969,-3.7487,-3.5529,-3.6404,-3.6577,-3.6135,-3.8062,-3.9255,-3.9957,-4.2067,-4.4385,-4.68,-4.8088,-4.9719,-5.1623,-5.2964,-5.3774,-5.4397,-5.6156,-5.707,-5.7679,-5.9268,-6.008,-6.0622,-6.1637,-6.3159,-6.4647,-6.485,-6.617,-6.7453,-6.6768,-6.6626,-6.6839,-6.7206,-6.6626,-6.5965,-6.6154,-6.5595,-6.458,-6.2854,-6.1501,-6.052,-6.0148,-5.8896,-5.7954,-5.8174,-5.6576,0.0,0.0,-5.4939,0.0,-5.283,-5.2275,-5.1356,-4.9791,-5.0304,0.0,0.0,0.0,0.0,0.0,0.0,0.0,0.0,0.0,0.0,-5.7206,-5.7723,-5.882,-6.067,-6.157,-6.209,-6.2125,-6.1633,-6.1343,-6.1233,-6.0491,-5.9165,-5.7272,-5.6536,-5.4809,-5.2929,-5.2929,-5.2929,-5.3055,-5.416,-5.3632,-5.2501,-5.8154,-5.9928,-6.109,-6.1743,-6.2465,-6.2749,-6.2198,-6.1553,-6.1343,-6.2002,-6.0924,-6.0386,-6.1044,-6.1104,-6.0835,-6.0146,-6.0086,-5.9518,-5.8231,-5.8141,-5.6435,0.0,0.0,-5.0013,-4.6421,-4.4644,-4.271,-4.0501,0.0,0.0,-3.5554,-3.7391,-3.7944,-3.7528,-4.097,-4.2331,-4.2005,-4.4264,-4.5663,-4.6521,-4.9253,-5.0397,-5.0723,-5.3532,-5.504,-5.5784,-5.6528,-5.7746,-5.8998,-5.9032,-6.0047,-6.1535,-6.3024,-6.4005,-6.4749,-6.5459,-6.6203,-6.6981,-6.7692,-6.6957,-6.6204,-6.755,-6.6868,-6.5733,-6.484,-6.4072,-6.2888,-6.0622,-5.9573,-5.9268,-5.9979,-5.8896,-5.8137,-5.8943,-5.7763,0.0,0.0,-5.6184,0.0,-5.3653,-5.3463,-5.2881,-5.1315,-5.186,0.0,0.0,0.0,0.0,0.0,0.0,-5.2482,-5.3463,-5.5637,-5.7246,-5.8096,-5.9678,-6.0797,-6.1397,-6.2957,-6.2906,-6.1567,-6.1116,-6.1325,-6.2061,-6.2091,-6.0586,-5.7977,-5.8005,-5.5972,-5.2929,-5.2929,-5.2929,-5.3055,-5.416,-5.4561,-5.4502,-5.9115,-6.0636,-6.1853,-6.2418,-6.3209,-6.3398,-6.281,-6.2135,-6.1477,-6.0796,-5.9967,-5.9488,-5.9727,-5.9757,-5.9488,0.0,-5.874,-5.8381,0.0,-5.7423,-5.619,-5.3599,-5.2016,-4.9796,-4.6742,-4.4814,-4.2911,-4.1078,0.0,-3.9499,-3.799,-3.9492,-4.0001,-3.9953,-4.2251,-4.3488,-4.3864,-4.5836,-4.7166,-4.8152,-4.9757,-5.1145,-5.2351,-5.4015,-5.5074,-5.5818,-5.6562,-5.7746,-5.9099,-5.9573,-6.0757,-6.2212,-6.3193,-6.4005,-6.4647,-6.4884,-6.5831,-6.6677,-6.6034,-6.5171,-6.4596,-6.4984,-6.3595,-6.2306,-6.2986,-6.211,-6.0689,-5.8964,-5.8389,-5.8371,-5.8633,-5.8256,-5.825,-5.9026,-5.8308,-5.7694,-5.7655,0.0,-5.5973,-5.4437,-5.4218,-5.3415,-5.1414,-5.186,0.0,0.0,0.0,0.0,0.0,0.0,-5.4149,-5.505,-5.6258,-5.8089,-6.0532,-6.107,-6.1889,-6.3053,-6.4072,-6.3786,-6.2421,-6.2856,-6.267,-6.2007,-6.0168,-5.884,-5.7878,-5.5472,-5.381,-5.2929,-5.2929,-5.2929,-5.3005,-5.3708,-5.4461,-5.5171,-6.0945,-6.2353,-6.3284,-6.3153,-6.4059,-6.4318,-6.3142,-6.227,-6.1366,-6.0606,-5.9458,-5.871,-5.862,-5.868,0.0,-5.8171,-5.7872,-5.7453,-5.6795,-5.6526,-5.5159,-5.2494,-5.0928,-4.8735,-4.5745,-4.4509,-4.3087,-4.1656,-4.0974,-4.0807,-4.1194,-4.2015,-4.2467,-4.2721,-4.4647,-4.5493,-4.5698,-4.7108,-4.8071,-4.8691,-5.0066,-5.1421,-5.2954,-5.425,-5.5329,-5.6224,-5.6934,-5.7983,-5.9133,-5.9844,-6.0926,-6.211,-6.2854,-6.3599,-6.4241,-6.4512,-6.5459,-6.6137,-6.5087,-6.4594,-6.4261,-6.3463,-6.2232,-6.1165,-6.1143,-6.0148,-5.8998,-5.8084,-5.7933,-5.7877,-5.7973,-5.7955,-5.8254,-5.9099,-5.8574,-5.8121,-5.8435,-5.7774,-5.6747,0.0,0.0,-5.4233,-5.2292,-5.2503,-5.2739,0.0,0.0,0.0,0.0,0.0,-5.5529,-5.6658,-5.7973,-5.9763,-6.2076,-6.3366,-6.4072,-6.4226,-6.4122,-6.4033,-6.3991,-6.353,-6.3022,-6.2366,-5.9972,-5.8634,-5.7751,-5.4942,-5.3427,-5.2929,-5.2929,-5.2929,-5.298,-5.3507,-5.4411,-5.5541,-6.3155,-6.458,-6.5194,-6.398,-6.5024,-6.5274,-6.3262,-6.1863,-6.0905,-6.0937,-5.9219,-5.7992,-5.7812,-5.7902,-5.7992,-5.7992,0.0,0.0,-5.6077,-5.5478,-5.3583,-4.999,-4.9166,-4.7297,-4.3929,-4.3765,-4.3325,-4.2351,-4.1638,-4.2463,-4.4733,-4.4886,-4.5225,-4.5743,-4.7555,-4.7938,-4.7429,-4.7967,-4.8237,-4.8415,-5.0064,-5.1497,-5.2765,-5.4502,-5.5854,-5.6968,-5.7645,-5.8355,-5.9133,-5.981,-6.0588,-6.1434,-6.211,-6.2821,-6.3599,-6.4309,-6.5087,-6.5527,-6.4783,-6.5087,-6.5121,-6.299,-6.2347,-6.1637,-5.9438,-5.8389,-5.7881,-5.7814,-5.7843,-5.7867,-5.7933,-5.7973,-5.8259,-5.9096,-5.8589,-5.8326,-5.904,-5.8474,-5.7413,-5.5893,-5.5724,-5.5119,-5.3685,-5.3518,-5.3518,0.0,0.0,0.0,0.0,-5.5461,-5.6593,-5.8211,-6.0478,-6.2144,-6.3135,-6.6182,-6.6867,-6.522,-6.3616,-6.4026,-6.6039,-6.3403,-6.254,-6.2877,-6.1197,-5.9436,-5.7806,-5.5972,-5.4299,-5.2929,-5.2929,-5.2929,-5.298,-5.3507,-5.4411,-5.5541,0.0,0.0,-6.4228,-6.3949,-6.5379,-6.5801,-6.3269,-6.1567,-6.002,-5.8744,-5.7842,-5.7453,-5.7782,-5.7094,-5.6645,-5.6645,-5.6466,-5.5897,-5.476,-5.4521,-5.2836,-4.9245,-4.8636,-4.6894,-4.3904,-4.3388,-4.3365,-4.3781,-4.5531,-4.6537,-4.6747,-4.7724,-4.8238,-4.8387,-4.8328,-4.8207,-4.8027,-4.7698,-4.7818,-4.8385,-4.9542,-5.134,-5.3471,-5.4665,-5.6154,-5.7645,-5.7814,-5.8355,-5.9032,-5.9201,-6.0182,-6.1332,-6.1501,-6.2076,-6.2821,-6.3565,-6.4681,-6.5527,-6.4783,-6.4715,-6.4613,-6.3531,-6.1941,-6.0216,-5.8524,-5.8017,-5.7712,-5.7171,-5.7056,-5.723,-5.7956,-5.8089,-5.8303,-5.9091,-5.9042,-5.8761,-5.8317,-5.8107,-5.7413,0.0,-5.5724,-5.5119,-5.3685,-5.3518,-5.3721,0.0,0.0,-5.4487,-5.6258,-5.7152,-5.8289,-5.9872,-6.1609,-6.3833,-6.6512,-6.7283,-6.7955,-6.8435,-6.5105,-6.4505,-6.6103,-6.4351,-6.2854,-6.1594,-6.0087,-5.8282,-5.6478,-5.437,-5.3316,-5.2929,-5.2929,-5.2929,-5.298,-5.3507,-5.4411,-5.5491,-6.2302,-6.3193,-6.3768,-6.3294,-6.4647,-6.4941,-6.2444,-6.0421,-5.8297,-5.6053,-5.5987,-5.6077,-5.5718,-5.6077,-5.6017,-5.5209,-5.5478,-5.5418,-5.47,-5.3444,-5.1642,-4.9158,-4.7534,-4.5928,-4.4369,-4.4061,-4.4651,-4.6008,-4.7502,-4.8209,-4.8282,-4.928,-4.9553,-4.9254,-4.8895,-4.8745,-4.8716,-4.8356,-4.8566,-4.9284,-5.0616,-5.2345,-5.4177,-5.5221,-5.6554,-5.7881,-5.7881,-5.8355,-5.9066,-5.9404,-6.0317,-6.1366,-6.1704,-6.2076,-6.2482,-6.2888,-6.3802,-6.4546,-6.3802,-6.3835,-6.3835,-6.2787,-6.1028,-5.9471,-5.8998,-5.8626,-5.8434,-5.8388,-5.8109,-5.8062,-5.8516,-5.8608,-5.8482,-5.817,-5.8107,-5.796,-5.7519,-5.7446,-5.7013,-5.5821,-5.6007,-5.5609,-5.4194,-5.4329,-5.4532,-5.46,-5.4872,-5.5726,-5.74,-5.9287,-6.0516,-6.0965,-6.2896,-6.5154,-6.765,-6.8269,-6.9275,-7.059,-6.6717,-6.5623,-6.6926,-6.4045,-6.2511,-6.2016,-5.9284,-5.7652,-5.6783,-5.425,-5.3281,-5.3256,-5.303,-5.308,-5.3306,-5.3607,-5.5101,-5.7009,-6.2381,-6.3091,-6.3396,-6.255,-6.3429,-6.3367,-6.0799,-5.8654,-5.637,-5.3518,-5.4162,-5.4371,-5.3025,-5.494,-5.5628,-5.4042,-5.4431,-5.479,-5.473,-5.257,-5.0657,-4.9197,-4.6835,-4.5555,-4.5342,-4.5555,-4.6538,-4.8355,-4.8548,-4.8981,-4.9583,-5.0122,-5.0092,-4.9553,-4.9464,-4.9374,-4.9254,-4.9164,-4.9494,-5.0214,-5.1695,-5.3121,-5.4421,-5.5377,-5.6393,-5.7372,-5.7372,-5.7876,-5.8614,-5.9405,-6.029,-6.1133,-6.193,-6.2313,-6.2381,-6.2381,-6.2854,-6.3193,-6.255,-6.2854,-6.299,-6.1501,-6.025,-5.9471,-5.9844,-5.9471,-5.9293,-6.0117,-5.9698,-5.9159,-5.9204,-5.9197,-5.8731,-5.7226,-5.6895,-5.6859,-5.6969,-5.6768,-5.643,-5.5964,-5.6352,-5.6152,-5.4873,-5.5446,-5.5649,-5.5141,-5.6368,-5.766,-5.8863,-6.1623,-6.3021,-6.2732,-6.4751,-6.6623,-6.8238,-6.9245,-7.0521,-7.1862,-6.8002,-6.6671,-6.7663,-6.3417,-6.1976,-6.2264,-5.886,-5.7466,-5.7416,-5.4962,-5.3833,-5.3783,-5.3608,-5.3822,-5.4227,-5.4719,-5.6756,-5.9322,-6.2279,-6.2516,-6.2584,-6.2415,-6.2584,-6.1575,-5.8023,-5.6371,-5.4969,-5.3451,-5.3354,-5.2995,-5.1678,-5.3832,-5.4999,-5.3982,-5.3294,-5.2875,-5.2665,-5.2263,-5.117,-4.928,-4.8753,-4.8038,-4.6785,-4.7909,-4.8709,-4.9017,-5.014,-5.0803,-5.093,-5.102,-5.102,-5.09,-5.0331,-4.9793,-4.9224,-4.8686,-4.8805,-4.9434,-4.9794,-5.1236,-5.3165,-5.3309,-5.4168,-5.5084,-5.5084,-5.5536,-5.6316,-5.7489,-5.8654,-5.9975,-6.1088,-6.1907,-6.2381,-6.2381,-6.2482,-6.255,-6.2415,-6.2482,-6.2212,-6.0655,-6.0622,-6.0622,-5.9438,-5.9099,-5.9293,-6.0117,-5.9698,-5.9159,-5.9204,-5.9197,-5.8914,-5.796,-5.7262,-5.7042,-5.7703,-5.6685,-5.6073,-5.6631,-5.6169,-5.577,-5.5516,-5.619,-5.6833,-5.734,-5.8256,-5.9783,-6.1919,-6.3813,-6.582,-6.7724,-6.8164,-6.9119,-7.0734,-7.0673,-7.1051,-7.1862,-6.8002,-6.6026,-6.5871,-6.3855,-6.1613,-5.9494,-5.8831,-5.7759,-5.6403,-5.503,-5.4436,-5.4552,-5.6046,-5.6705,-5.6972,-5.8914,-6.0371,-6.1409,-6.2212,-6.2381,-6.2381,-6.2381,-5.9019,-5.6271,-5.6,-5.4279,-5.3254,-5.3989,-5.2937,-5.1887,-5.1289,-5.2306,-5.2875,-5.2486,-5.2486,-5.2276,-5.1708,-5.1276,-5.0719,-4.9808,-4.8638,-4.8139,-4.8239,-4.9582,-5.011,-4.9757,-5.0738,-5.105,-5.069,-5.105,-5.1229,-5.1199,-5.0541,-5.0272,-5.0272,-4.9613,-4.9733,-5.0393,-5.097,-5.1932,-5.2989,-5.3569,-5.4168,-5.4653,-5.5005,-5.5613,-5.6338,-5.7268,-5.8703,-6.0175,-6.0736,-6.1568,-6.2482,-6.2888,-6.2719,-6.2381,-6.2381,-6.211,-6.1637,-6.0926,-6.1028,-6.1129,-6.0419,-6.0632,-6.1183,-6.2016,-6.1628,-6.1142,-6.1131,-6.0444,-5.9575,-5.8804,-5.7277,-5.6491,-5.7291,-5.6088,-5.538,-5.616,-5.6634,-5.6879,-5.687,-5.7915,-5.8744,-5.9215,-6.0004,-6.1545,-6.3979,-6.5685,-6.7664,-6.9927,-7.0096,-7.0144,-7.039,-7.0554,-7.0453,-7.0027,-6.7776,-6.6004,-6.4819,-6.238,-6.0697,-5.971,-5.8109,-5.7371,-5.7145,-5.6662,-5.6468,-5.6695,-5.8214,-5.9154,-5.9886,-6.0937,-6.2592,-6.4263,-6.2144,-6.2381,-6.2178,-6.1467,-5.5739,-5.1917,-5.3952,-5.2516,-5.1876,-5.368,-5.3245,-5.2723,-5.2723,-5.2723,-5.2544,-5.2063,-5.2425,-5.2265,-5.1259,-5.069,-5.0435,-5.0435,-4.8924,-4.8539,-4.9679,-5.0698,-5.096,-5.0481,-5.096,-5.096,-5.0481,-5.099,-5.1229,-5.1199,-5.069,-5.0661,-5.096,-5.0451,-5.0603,-5.1393,-5.2329,-5.2776,-5.2989,-5.3828,-5.4094,-5.4143,-5.4592,-5.5317,-5.6226,-5.7032,-5.8382,-5.9903,-6.0614,-6.1467,-6.2434,-6.3451,-6.3226,-6.2618,-6.2448,-6.2096,-6.1817,-6.1367,-6.1763,-6.2084,-6.1913,-6.2468,-6.3203,-6.4179,-6.3717,-6.3019,-6.2801,-6.1814,-6.0518,-5.9164,-5.7302,-5.6212,-5.6795,-5.5502,-5.4957,-5.6062,-5.7219,-5.7946,-5.8157,-5.9695,-6.0716,-6.0878,-6.2158,-6.3857,-6.6017,-6.7482,-6.8839,-7.0343,-7.0821,-7.0758,-7.0167,-7.0392,-6.9859,-6.8634,-6.7264,-6.5623,-6.3651,-6.0746,-5.9663,-5.9799,-5.7664,-5.7495,-5.8472,-5.8523,-5.8706,-5.9341,-6.0733,-6.1893,-6.2844,-6.3376,-6.5039,-6.716,-6.2009,-6.2381,-6.1501,-5.8693,-5.4348,-5.1289,-5.1468,-5.1349,-5.1229,-5.1476,-5.492,-5.7406,-5.7406,-5.7406,-5.6547,-5.4505,-5.3805,-5.2815,-5.1293,-5.1165,-5.1101,-5.1101,-5.0947,-5.0917,-5.1011,-5.1105,-5.1199,-5.1139,-5.1199,-5.1199,-5.1139,-5.1199,-5.1229,-5.1229,-5.1169,-5.084,-5.0301,-5.0272,-5.0849,-5.1884,-5.1971,-5.2343,-5.29,-5.2989,-5.2794,-5.2382,-5.2442,-5.3284,-5.4594,-5.5686,-5.6591,-5.7808,-6.0739,-6.1659,-6.208,-6.3915,-6.4005,-6.3294,-6.2584,-6.2939,-6.3159,-6.1742,-6.31,-6.4552,-6.3877,-6.3736,-6.4273,-6.5873,-6.4996,-6.3671,-6.291,-6.2695,-6.1652,-5.8673,-5.7433,-5.6795,-5.6887,-5.5504,-5.5334,-5.7521,-5.7807,-5.8157,-5.8863,-6.1071,-6.2401,-6.2402,-6.5361,-6.7595,-6.8522,-6.9317,-6.9422,-6.8608,-7.0056,-7.1088,-7.1759,-7.0915,-7.0099,-6.9377,-6.6332,-6.3736,-6.1853,-5.9806,-5.8537,-5.8051,-5.8353,-5.928,-6.0355,-5.9789,-6.0602,-6.2505,-6.4216,-6.5331,-6.6228,-6.7875,-6.9019,-6.9833,-5.9438,-5.9607,-5.9235,-5.8084,-5.4221,-5.1229,-5.1229,-5.1229,-5.1229,-5.1229,-5.5134,-5.7881,-5.7881,-5.5377,-5.3828,-5.3913,-5.2843,-5.1819,-5.1229,-5.1588,-5.1648,-5.1229,-5.1618,-5.1828,-5.1828,-5.1828,-5.2037,-5.2426,-5.2037,-5.2037,-5.2426,-5.2007,-5.1828,-5.1798,-5.1409,-5.1079,-5.084,-5.1607,-5.2086,-5.2616,-5.3278,-5.3777,-5.3945,-5.3632,-5.3435,-5.3407,-5.4724,-5.5616,-5.6361,-5.8373,-5.9777,-6.067,-6.1051,-6.2245,-6.3583,-6.3809,-6.4038,-6.3937,-6.2719,-6.3049,-6.3477,-6.2402,-6.3937,-6.553,-6.4817,-6.5811,-6.7141,-6.775,-6.7433,-6.6774,-6.5983,-6.4604,-6.3042,-6.1281,-5.9127,-5.7788,-5.8269,-5.6564,-5.6099,-5.8351,-5.8608,-5.9253,-6.1071,-6.2465,-6.3939,-6.5545,-6.689,-6.8136,-6.9399,-6.9173,-6.8785,-6.8417,-6.8037,-6.8002,-6.8269,-6.791,-6.6679,-6.4538,-6.3684,-6.173,-5.8876,-5.8366,-5.816,-5.7901,-5.8127,-5.9404,-6.112,-6.1253,-6.2728,-6.4984,-6.647,-6.7668,-6.8643,-6.9347,-7.026,-7.1188,-5.6697,-5.7239,-5.748,-5.6047,-5.3221,-5.1229,-5.1229,-5.1229,-5.1479,-5.2154,-5.5571,-5.7881,-5.7881,-5.5134,-5.3309,-5.3514,-5.2754,-5.1972,-5.1199,-5.1648,-5.1887,-5.1828,-5.2067,-5.2306,-5.2516,-5.2516,-5.2725,-5.3174,-5.2725,-5.2725,-5.3174,-5.2725,-5.2396,-5.2187,-5.1947,-5.1708,-5.1623,-5.2947,-5.3819,-5.4197,-5.5089,-5.5403,-5.5208,-5.4687,-5.4442,-5.476,-5.6466,-5.7464,-5.8279,-6.0352,-6.1504,-6.2231,-6.1886,-6.3429,-6.5189,-6.4681,-6.458,-6.4491,-6.3961,-6.3979,-6.3973,-6.352,-6.5035,-6.6657,-6.6684,-6.7836,-6.8995,-6.9503,-6.9441,-6.8935,-6.7871,-6.6133,-6.4276,-6.2673,-6.0402,-5.8899,-5.9082,-5.7769,-5.7446,-5.9541,-5.995,-6.0899,-6.2788,-6.4147,-6.5703,-6.7461,-6.8028,-6.8471,-6.8715,-6.8498,-6.7892,-6.6713,-6.6085,-6.5293,-6.4381,-6.4978,-6.4178,-6.1828,-6.1262,-5.9623,-5.7078,-5.7129,-5.7277,-5.765,-5.7826,-5.9122,-6.1027,-6.2011,-6.3841,-6.6157,-6.7716,-6.8974,-6.9991,-7.0201,-7.0829,-7.1637,-5.4126,-5.5886,-5.647,-5.2063,-5.1199,-5.1199,-5.1229,-5.1199,-5.2033,-5.4337,-5.6547,-5.7881,-5.7881,-5.7881,-5.6658,-5.3773,-5.4168,-5.3569,-5.1416,-5.1229,-5.1798,-5.3144,-5.2546,-5.2516,-5.3174,-5.3204,-5.3204,-5.3204,-5.3204,-5.3204,-5.3204,-5.3204,-5.2845,-5.2247,-5.2905,-5.2815,-5.2342,-5.4237,-5.5642,-5.6723,-5.725,-5.7102,-5.6605,-5.5933,-5.5752,-5.6155,-5.6807,-5.8341,-6.0056,-6.0821,-6.1046,-6.1359,-6.3317,-6.5254,-6.6812,-6.6812,-6.5764,-6.4958,-6.6677,-6.6109,-6.4999,-6.4999,-6.6427,-6.8128,-6.9743,-6.9486,-6.9376,-7.0991,-7.0697,-6.9633,-6.8017,-6.7004,-6.537,-6.2142,-6.0893,-6.0012,-5.918,-5.9032,-5.9638,-6.1328,-6.2125,-6.2962,-6.3801,-6.6155,-6.7559,-6.7619,-6.9038,-6.8856,-6.6437,-6.764,-6.6713,-6.3065,-6.429,-6.3607,-6.048,-6.2496,-6.3128,-6.2455,-5.905,-5.7309,-5.7078,-5.5943,-5.5993,-5.7072,-5.765,-5.8539,-5.9916,-6.1683,-6.3588,-6.5579,-6.8042,-6.9393,-7.0051,-7.0679,-7.0889,-7.1098,-5.6765,-5.7306,-5.748,-5.6126,-5.5889,-5.4806,-5.1727,-5.3007,-5.493,-5.6678,-5.748,-5.748,-5.647,-5.541,-5.4337,-5.3165,-5.2575,-5.2093,-5.1887,-5.1468,-5.2037,-5.3832,-5.3264,-5.3204,-5.3892,-5.3892,-5.4132,-5.4581,-5.4132,-5.4132,-5.4581,-5.4132,-5.3803,-5.3593,-5.3324,-5.3084,-5.3098,-5.5309,-5.6352,-5.6755,-5.7658,-5.7937,-5.7637,-5.6315,-5.6738,-5.811,-5.9344,-6.1069,-6.2989,-6.4573,-6.51,-6.5234,-6.635,-6.6176,-6.5646,-6.6525,-6.6136,-6.5501,-6.6159,-6.646,-6.6621,-6.6773,-6.7943,-6.9309,-6.9926,-7.0639,-7.1331,-7.2022,-7.1464,-7.0314,-6.8754,-6.7249,-6.5526,-6.3414,-6.237,-6.1941,-6.2164,-6.1704,-6.1995,-6.3451,-6.4008,-6.4566,-6.5361,-6.6581,-6.7683,-6.8327,-6.8572,-6.8204,-6.7049,-6.6344,-6.4684,-6.2072,-6.1842,-6.0903,-5.8731,-6.0522,-6.0076,-5.7586,-5.6563,-5.584,-5.5382,-5.54,-5.5993,-5.7072,-5.765,-5.8917,-6.0354,-6.0474,-6.2619,-6.5894,-6.4946,-6.5917,-6.7858,-6.6764,-6.7695,-6.9651,-5.7273,-5.6697,-5.6325,-5.6934,-5.7509,-5.6393,-5.188,-5.1853,-5.3323,-5.5817,-5.5797,-5.5542,-5.5296,-5.4505,-5.3687,-5.2989,-5.1911,-5.1498,-5.2157,-5.1588,-5.2127,-5.4132,-5.3563,-5.3623,-5.4581,-5.461,-5.479,-5.5179,-5.479,-5.4458,-5.4304,-5.4559,-5.4131,-5.3331,-5.3814,-5.3982,-5.4149,-5.6549,-5.7427,-5.729,-5.8372,-5.8391,-5.7708,-5.6652,-5.7526,-5.9388,-6.0889,-6.2762,-6.4853,-6.6289,-6.7015,-6.732,-6.776,-6.7329,-6.6656,-6.715,-6.6711,-6.633,-6.7203,-6.7376,-6.7536,-6.8778,-6.9449,-6.9984,-7.0478,-7.0954,-7.1357,-7.1472,-7.1039,-7.021,-6.8916,-6.7781,-6.6635,-6.5338,-6.4743,-6.4422,-6.4487,-6.4093,-6.4127,-6.505,-6.5214,-6.561,-6.6527,-6.7267,-6.8006,-6.8463,-6.7869,-6.7044,-6.6022,-6.4247,-6.238,-6.0789,-5.9956,-5.8731,-5.6956,-5.7949,-5.7442,-5.5419,-5.4675,-5.4381,-5.4235,-5.4561,-5.5214,-5.6093,-5.6646,-5.7582,-5.8641,-5.92,-6.1156,-6.3579,-6.2918,-6.3939,-6.5855,-6.4722,-6.62,-6.8688,-5.6359,-5.5074,-5.4329,-5.5683,-5.7002,-5.647,-5.2124,-4.9551,-4.9316,-5.3028,-5.2784,-5.2786,-5.4326,-5.4421,-5.3999,-5.2812,-5.188,-5.1656,-5.2257,-5.187,-5.2382,-5.4119,-5.3669,-5.3841,-5.4999,-5.5059,-5.5119,-5.5179,-5.5018,-5.4245,-5.3069,-5.4406,-5.3979,-5.2128,-5.4331,-5.5239,-5.5381,-5.7715,-5.8434,-5.8021,-5.8894,-5.8414,-5.7084,-5.6862,-5.8154,-6.028,-6.1562,-6.3669,-6.5899,-6.6576,-6.7286,-6.7895,-6.7895,-6.8402,-6.8842,-6.8098,-6.7387,-6.7161,-6.9056,-6.8576,-6.8097,-7.0675,-7.0787,-7.0477,-7.1174,-7.0587,-6.9958,-7.002,-6.9813,-6.9418,-6.8678,-6.8469,-6.8222,-6.7548,-6.7475,-6.7165,-6.6334,-6.6179,-6.6179,-6.5952,-6.6028,-6.6442,-6.72,-6.7975,-6.8252,-6.7964,-6.6821,-6.547,-6.3733,-6.163,-6.0111,-5.9228,-5.8202,-5.6956,-5.5181,-5.5181,-5.5022,-5.4889,-5.3538,-5.3042,-5.3263,-5.3453,-5.3803,-5.452,-5.4877,-5.5271,-5.5635,-5.7707,-5.9078,-5.9916,-6.1407,-6.2837,-6.388,-6.388,-6.553,-6.7947,-5.6777,-5.6697,-5.7036,-5.7374,-5.7679,-5.6963,-5.4253,-5.3597,-5.3407,-5.353,-5.3366,-5.3176,-5.3246,-5.3253,-5.2812,-5.1635,-5.2154,-5.2637,-5.279,-5.3991,-5.4517,-5.4022,-5.4391,-5.4291,-5.3593,-5.4132,-5.467,-5.5179,-5.3466,-5.2816,-5.2963,-5.3308,-5.3221,-5.2895,-5.4983,-5.5658,-5.531,-5.732,-5.7772,-5.7273,-5.7402,-5.7621,-5.7731,-5.6707,-5.8541,-6.1626,-6.1915,-6.3998,-6.6609,-6.6779,-6.7286,-6.7895,-6.7895,-6.803,-6.8132,-6.7963,-6.7387,-6.7029,-6.8223,-6.8849,-6.9491,-7.077,-7.155,-7.1872,-7.1431,-7.0,-6.9153,-7.0563,-6.9207,-6.7864,-6.8434,-6.7936,-6.7609,-6.8222,-6.8325,-6.8187,-6.7753,-6.7704,-6.7428,-6.6685,-6.7226,-6.7572,-6.7133,-6.7203,-6.6892,-6.5741,-6.5337,-6.4088,-6.1446,-6.0756,-5.919,-5.6327,-5.6126,-5.5181,-5.3427,-5.3427,-5.2692,-5.1205,-5.2302,-5.1596,-4.9291,-5.1005,-5.2259,-5.2935,-5.3032,-5.4084,-5.5993,-5.6099,-5.7487,-5.9631,-5.8533,-5.9815,-6.1808,-6.0412,-6.2152,-6.5501,-5.8581,-5.7534,-5.707,-5.778,-5.7881,-5.7297,-5.541,-5.4421,-5.3729,-5.3271,-5.2393,-5.1889,-5.2063,-5.2063,-5.194,-5.1648,-5.2704,-5.3396,-5.3396,-5.4853,-5.5288,-5.4419,-5.476,-5.4727,-5.4132,-5.3862,-5.4042,-5.473,-5.326,-5.2646,-5.2963,-5.2963,-5.2963,-5.3097,-5.4864,-5.5688,-5.579,-5.7334,-5.7469,-5.6671,-5.7536,-5.7623,-5.7181,-5.7821,-5.9705,-6.2075,-6.3084,-6.5071,-6.7286,-6.6914,-6.7146,-6.748,-6.7146,-6.6799,-6.6509,-6.6146,-6.5783,-6.568,-6.6514,-6.7428,-6.8403,-6.9593,-7.026,-7.0635,-7.0641,-6.9828,-6.9104,-6.9169,-6.7998,-6.7336,-6.8281,-6.8351,-6.8748,-7.0122,-7.0329,-7.0129,-6.9586,-6.9053,-6.828,-6.693,-6.7209,-6.7364,-6.6987,-6.6919,-6.6321,-6.5015,-6.3603,-6.221,-6.0535,-5.8436,-5.6692,-5.5367,-5.4675,-5.381,-5.2929,-5.2929,-5.1886,-4.9961,-5.0998,-5.0128,-4.7454,-4.8713,-5.0156,-5.1725,-5.1578,-5.323,-5.5817,-5.5792,-5.6979,-5.8679,-5.7871,-5.925,-6.179,-6.049,-6.2335,-6.5935,-6.0618,-5.8467,-5.6953,-5.7933,-5.8027,-5.7372,-5.5922,-5.4323,-5.3082,-5.2657,-5.1333,-5.0575,-5.1139,-5.1319,-5.1618,-5.2157,-5.35,-5.4259,-5.4109,-5.5502,-5.5875,-5.4946,-5.507,-5.5064,-5.482,-5.3862,-5.3683,-5.4371,-5.3377,-5.2876,-5.2963,-5.2963,-5.2963,-5.3069,-5.4627,-5.57,-5.6395,-5.7648,-5.7678,-5.698,-5.8362,-5.8293,-5.7375,-5.9325,-6.1082,-6.2676,-6.4276,-6.6134,-6.7624,-6.6727,-6.6635,-6.6713,-6.5837,-6.5316,-6.4863,-6.4158,-6.3933,-6.4093,-6.492,-6.5699,-6.6664,-6.8144,-6.8646,-6.8856,-6.9465,-6.9418,-6.8809,-6.7521,-6.6954,-6.7092,-6.7973,-6.8873,-6.9991,-7.1776,-7.1878,-7.1541,-7.0945,-7.0015,-6.8865,-6.7337,-6.7083,-6.7015,-6.7015,-6.7015,-6.6316,-6.4885,-6.2649,-6.0862,-5.9782,-5.6493,-5.4826,-5.5393,-5.4299,-5.37,-5.3291,-5.3291,-5.2189,-5.0104,-5.0104,-4.9031,-4.7051,-4.7208,-4.8552,-5.0889,-5.0889,-5.267,-5.5566,-5.6018,-5.6994,-5.8326,-5.8402,-6.0335,-6.2898,-6.255,-6.4359,-6.714,-6.1423,-6.0876,-6.0114,-5.9143,-5.8388,-5.7372,-5.5922,-5.5726,-5.4663,-5.1789,-5.2032,-5.2183,-5.1293,-5.1738,-5.2097,-5.2187,-5.4722,-5.5873,-5.4822,-5.7377,-5.7764,-5.5008,-5.5535,-5.5095,-5.3571,-5.3862,-5.4401,-5.5059,-5.3143,-5.2444,-5.2963,-5.2963,-5.2963,-5.3097,-5.5101,-5.6425,-5.7016,-5.8386,-5.9092,-5.9346,-5.9118,-5.9875,-6.1122,-6.0365,-6.1917,-6.4556,-6.4836,-6.5801,-6.6745,-6.5592,-6.5643,-6.5805,-6.4026,-6.3806,-6.4126,-6.3324,-6.3132,-6.3356,-6.4647,-6.5607,-6.6636,-6.7938,-6.8881,-6.9317,-6.8623,-6.7422,-6.6756,-6.785,-6.6896,-6.6323,-6.793,-6.8266,-6.8967,-7.0699,-7.0416,-7.0166,-7.048,-6.9896,-6.9279,-6.8879,-6.8166,-6.776,-6.776,-6.776,-6.679,-6.4352,-6.4412,-6.221,-5.6921,-5.7994,-5.7756,-5.5525,-5.6596,-5.6596,-5.5049,-5.5049,-5.364,-5.0651,-5.0651,-4.938,-4.7073,-4.7753,-4.9399,-5.1435,-5.1412,-5.3084,-5.6118,-5.6168,-5.7823,-6.0408,-6.076,-6.263,-6.4989,-6.5944,-6.6328,-6.6475,-6.1594,-6.1891,-6.177,-6.0665,-5.9574,-5.8599,-5.7717,-5.7345,-5.6393,-5.4305,-5.3569,-5.2989,-5.2245,-5.2476,-5.2755,-5.2755,-5.4854,-5.6088,-5.5442,-5.7388,-5.7596,-5.5566,-5.5814,-5.5463,-5.4311,-5.4251,-5.4888,-5.6183,-5.3715,-5.3123,-5.42,-5.3413,-5.3413,-5.4304,-5.5892,-5.7033,-5.7707,-5.9443,-6.0233,-6.0601,-6.1058,-6.1535,-6.2075,-6.2554,-6.3659,-6.4959,-6.5734,-6.6122,-6.6213,-6.5213,-6.3804,-6.2285,-6.102,-5.9743,-5.8634,-5.8228,-5.8847,-5.9845,-6.1466,-6.3088,-6.4873,-6.6432,-6.7834,-6.8711,-6.8177,-6.7925,-6.7748,-6.7467,-6.7146,-6.7316,-6.8611,-6.9228,-6.9923,-7.1296,-7.1066,-7.0706,-7.059,-7.0196,-6.9629,-6.92,-6.8808,-6.8571,-6.8571,-6.8571,-6.7468,-6.4833,-6.4165,-6.2058,-5.8207,-5.8156,-5.7868,-5.6828,-5.7624,-5.7624,-5.6828,-5.5945,-5.4909,-5.3835,-5.2017,-5.001,-4.8007,-4.8306,-4.987,-5.2082,-5.2695,-5.497,-5.8316,-5.9404,-6.0703,-6.2215,-6.2811,-6.4107,-6.585,-6.7553,-6.7971,-6.7618]},{"header":{"parameterUnit":"m.s-1","parameterCategory":1,"la1":30.6,"la2":28.766,"lo1":-90.7593,"lo2":-88.6598,"dy":0.0162,"dx":0.0183,"nx":116,"ny":114,"refTime":"2024-05-13T06:00:00:Z","depth":0,"parameterNumber":3,"parameterNumberName":"V-component_of_WINDS"},"data":[0.0,0.0,0.0,0.0,0.0,0.0,0.0,0.0,0.0,0.0,0.0,0.0,0.0,0.0,0.0,0.0,0.0,0.0,0.0,0.0,0.0,0.0,0.0,0.0,0.0,0.0,0.0,0.0,0.0,0.0,0.0,0.0,0.0,0.0,0.0,0.0,0.0,0.0,0.0,0.0,0.0,0.0,0.0,0.0,0.0,0.0,0.0,0.0,0.0,0.0,0.0,0.0,0.0,0.0,0.0,0.0,0.0,0.0,0.0,0.0,0.0,0.0,0.0,0.0,0.0,0.0,0.0,0.0,0.0,0.0,0.0,0.0,0.0,0.0,0.0,0.0,0.0,0.0,0.0,0.0,0.0,0.0,0.0,0.0,0.0,0.0,0.0,0.0,0.0,0.0,0.0,0.0,0.0,0.0,0.0,0.0,0.0,0.0,0.0,0.0,0.0,0.0,0.0,0.0,0.0,0.0,0.0,0.0,0.0,0.0,0.0,0.0,0.0,0.0,0.0,0.0,0.0,0.0,0.0,0.0,0.0,0.0,0.0,0.0,0.0,0.0,0.0,0.0,0.0,0.0,0.0,0.0,0.0,0.0,0.0,0.0,0.0,0.0,0.0,0.0,0.0,0.0,0.0,0.0,0.0,0.0,0.0,0.0,0.0,0.0,0.0,0.0,0.0,0.0,0.0,0.0,0.0,0.0,0.0,0.0,0.0,0.0,0.0,0.0,0.0,0.0,0.0,0.0,0.0,0.0,0.0,0.0,0.0,0.0,0.0,0.0,0.0,0.0,0.0,0.0,0.0,0.0,0.0,0.0,0.0,0.0,0.0,0.0,0.0,0.0,0.0,0.0,0.0,0.0,0.0,0.0,0.0,0.0,0.0,0.0,0.0,0.0,0.0,0.0,0.0,0.0,0.0,0.0,0.0,0.0,0.0,0.0,0.0,0.0,0.0,0.0,0.0,0.0,0.0,0.0,0.0,0.0,0.0,0.0,0.0,0.0,0.0,0.0,0.0,0.0,0.0,0.0,0.0,0.0,0.0,0.0,0.0,0.0,0.0,0.0,0.0,0.0,0.0,0.0,0.0,0.0,0.0,0.0,0.0,0.0,0.0,0.0,0.0,0.0,0.0,0.0,0.0,0.0,0.0,0.0,0.0,0.0,0.0,0.0,0.0,0.0,0.0,0.0,0.0,0.0,0.0,0.0,0.0,0.0,0.0,0.0,0.0,0.0,0.0,0.0,0.0,0.0,0.0,0.0,0.0,0.0,0.0,0.0,0.0,0.0,0.0,0.0,0.0,0.0,0.0,0.0,0.0,0.0,0.0,0.0,0.0,0.0,0.0,0.0,0.0,0.0,0.0,0.0,0.0,0.0,0.0,0.0,0.0,0.0,0.0,0.0,0.0,0.0,0.0,0.0,0.0,0.0,0.0,0.0,0.0,0.0,0.0,0.0,0.0,0.0,0.0,0.0,0.0,0.0,0.0,0.0,0.0,0.0,0.0,0.0,0.0,0.0,0.0,0.0,0.0,0.0,0.0,0.0,0.0,0.0,0.0,0.0,0.0,0.0,0.0,0.0,0.0,0.0,0.0,0.0,0.0,0.0,0.0,0.0,0.0,0.0,0.0,0.0,0.0,0.0,0.0,0.0,0.0,0.0,0.0,0.0,0.0,0.0,0.0,0.0,0.0,0.0,0.0,0.0,0.0,0.0,0.0,0.0,0.0,0.0,0.0,0.0,0.0,0.0,0.0,0.0,0.0,0.0,0.0,0.0,0.0,0.0,0.0,0.0,0.0,0.0,0.0,0.0,0.0,0.0,0.0,0.0,0.0,0.0,0.0,0.0,0.0,0.0,0.0,0.0,0.0,0.0,0.0,0.0,0.0,0.0,0.0,0.0,0.0,0.0,0.0,0.0,0.0,0.0,0.0,0.0,0.0,0.0,0.0,0.0,0.0,0.0,0.0,0.0,0.0,0.0,0.0,0.0,0.0,0.0,0.0,0.0,0.0,0.0,0.0,0.0,0.0,0.0,0.0,0.0,0.0,0.0,0.0,0.0,0.0,0.0,0.0,0.0,0.0,0.0,0.0,0.0,0.0,0.0,0.0,0.0,0.0,0.0,0.0,0.0,0.0,0.0,0.0,0.0,0.0,0.0,0.0,0.0,0.0,0.0,0.0,0.0,0.0,0.0,0.0,0.0,0.0,0.0,0.0,0.0,0.0,0.0,0.0,0.0,0.0,0.0,0.0,0.0,0.0,0.0,0.0,0.0,0.0,0.0,0.0,0.0,0.0,0.0,0.0,0.0,0.0,0.0,0.0,0.0,0.0,0.0,0.0,0.0,0.0,0.0,0.0,0.0,0.0,0.0,0.0,0.0,0.0,0.0,0.0,0.0,0.0,0.0,0.0,0.0,0.0,0.0,0.0,0.0,0.0,0.0,0.0,0.0,0.0,0.0,0.0,0.0,0.0,0.0,0.0,0.0,0.0,0.0,0.0,0.0,0.0,0.0,0.0,0.0,0.0,0.0,0.0,0.0,0.0,0.0,0.0,0.0,0.0,0.0,0.0,0.0,0.0,0.0,0.0,0.0,0.0,0.0,0.0,0.0,0.0,0.0,0.0,0.0,0.0,0.0,0.0,0.0,0.0,0.0,0.0,0.0,0.0,0.0,0.0,0.0,0.0,0.0,0.0,0.0,0.0,0.0,0.0,0.0,0.0,0.0,0.0,0.0,0.0,0.0,0.0,0.0,0.0,0.0,0.0,0.0,0.0,0.0,0.0,0.0,0.0,0.0,0.0,0.0,0.0,0.0,0.0,0.0,0.0,0.0,0.0,0.0,0.0,0.0,0.0,0.0,0.0,0.0,0.0,0.0,0.0,0.0,0.0,0.0,0.0,0.0,0.0,0.0,0.0,0.0,0.0,0.0,0.0,0.0,0.0,0.0,0.0,0.0,0.0,0.0,0.0,0.0,0.0,0.0,0.0,0.0,0.0,0.0,0.0,0.0,0.0,0.0,0.0,0.0,0.0,0.0,0.0,0.0,0.0,0.0,0.0,0.0,0.0,0.0,0.0,0.0,0.0,0.0,0.0,0.0,0.0,0.0,0.0,0.0,0.0,0.0,0.0,0.0,0.0,0.0,0.0,0.0,0.0,0.0,0.0,0.0,0.0,0.0,0.0,0.0,0.0,0.0,0.0,0.0,0.0,0.0,0.0,0.0,0.0,0.0,0.0,0.0,0.0,0.0,0.0,0.0,0.0,0.0,0.0,0.0,0.0,0.0,0.0,0.0,0.0,0.0,0.0,0.0,0.0,0.0,0.0,0.0,0.0,0.0,0.0,0.0,0.0,0.0,0.0,0.0,0.0,0.0,0.0,0.0,0.0,0.0,0.0,0.0,0.0,0.0,0.0,0.0,0.0,0.0,0.0,0.0,0.0,0.0,0.0,0.0,0.0,0.0,0.0,0.0,0.0,0.0,0.0,0.0,0.0,0.0,0.0,0.0,0.0,0.0,0.0,0.0,0.0,0.0,0.0,0.0,0.0,0.0,0.0,0.0,0.0,0.0,0.0,0.0,0.0,0.0,0.0,0.0,0.0,0.0,0.0,0.0,0.0,0.0,0.0,0.0,0.0,0.0,0.0,0.0,0.0,0.0,0.0,0.0,0.0,0.0,0.0,0.0,0.0,0.0,0.0,0.0,0.0,0.0,0.0,0.0,0.0,0.0,0.0,0.0,0.0,0.0,0.0,0.0,0.0,0.0,0.0,0.0,0.0,0.0,0.0,0.0,0.0,0.0,0.0,0.0,0.0,0.0,0.0,0.0,0.0,0.0,0.0,0.0,0.0,0.0,0.0,0.0,0.0,0.0,0.0,0.0,0.0,0.0,0.0,0.0,0.0,0.0,0.0,0.0,0.0,0.0,0.0,0.0,0.0,0.0,0.0,0.0,0.0,0.0,0.0,0.0,0.0,0.0,0.0,0.0,0.0,0.0,0.0,0.0,0.0,0.0,0.0,0.0,0.0,0.0,0.0,0.0,0.0,0.0,0.0,0.0,0.0,0.0,0.0,0.0,0.0,0.0,0.0,0.0,0.0,0.0,0.0,0.0,0.0,0.0,0.0,0.0,0.0,0.0,0.0,0.0,0.0,0.0,0.0,0.0,0.0,0.0,0.0,0.0,0.0,0.0,0.0,0.0,0.0,0.0,0.0,0.0,0.0,0.0,0.0,0.0,0.0,0.0,0.0,0.0,0.0,0.0,0.0,0.0,0.0,0.0,0.0,0.0,0.0,0.0,0.0,0.0,0.0,0.0,0.0,0.0,0.0,0.0,0.0,0.0,0.0,0.0,0.0,0.0,0.0,0.0,0.0,0.0,0.0,0.0,0.0,0.0,0.0,0.0,0.0,0.0,0.0,0.0,0.0,0.0,0.0,0.0,0.0,0.0,0.0,0.0,0.0,0.0,0.0,0.0,0.0,0.0,0.0,0.0,0.0,0.0,0.0,0.0,0.0,0.0,0.0,0.0,0.0,0.0,0.0,0.0,0.0,0.0,0.0,0.0,0.0,0.0,0.0,0.0,0.0,0.0,0.0,0.0,0.0,0.0,0.0,0.0,0.0,0.0,0.0,0.0,0.0,0.0,0.0,0.0,0.0,0.0,0.0,0.0,0.0,0.0,0.0,0.0,0.0,0.0,0.0,0.0,0.0,0.0,0.0,0.0,0.0,0.0,0.0,0.0,0.0,0.0,0.0,0.0,0.0,0.0,0.0,0.0,0.0,0.0,0.0,0.0,0.0,0.0,0.0,0.0,0.0,0.0,0.0,0.0,0.0,0.0,0.0,0.0,0.0,0.0,0.0,0.0,0.0,0.0,0.0,0.0,0.0,0.0,0.0,0.0,0.0,0.0,0.0,0.0,0.0,0.0,0.0,0.0,0.0,0.0,0.0,0.0,0.0,0.0,0.0,0.0,0.0,0.0,0.0,0.0,0.0,0.0,0.0,0.0,0.0,0.0,0.0,0.0,0.0,0.0,0.0,0.0,0.0,0.0,0.0,0.0,0.0,0.0,0.0,0.0,0.0,0.0,0.0,0.0,0.0,0.0,0.0,0.0,0.0,0.0,0.0,0.0,0.0,0.0,0.0,0.0,0.0,0.0,0.0,0.0,0.0,0.0,0.0,0.0,0.0,0.0,0.0,0.0,0.0,0.0,0.0,0.0,0.0,0.0,0.0,0.0,0.0,0.0,0.0,0.0,0.0,0.0,0.0,0.0,0.0,0.0,0.0,0.0,0.0,0.0,0.0,0.0,0.0,0.0,0.0,0.0,0.0,0.0,0.0,0.0,0.0,0.0,0.0,0.0,0.0,0.0,0.0,0.0,0.0,0.0,0.0,0.0,0.0,0.0,0.0,0.0,0.0,0.0,0.0,0.0,0.0,0.0,0.0,0.0,0.0,0.0,0.0,0.0,0.0,0.0,0.0,0.0,0.0,0.0,0.0,0.0,0.0,0.0,0.0,0.0,0.0,0.0,0.0,0.0,0.0,0.0,0.0,0.0,0.0,0.0,0.0,0.0,0.0,0.0,0.0,0.0,0.0,0.0,0.0,0.0,0.0,0.0,0.0,0.0,0.0,0.0,0.0,0.0,0.0,0.0,0.0,0.0,0.0,0.0,0.0,0.0,0.0,0.0,0.0,0.0,0.0,0.0,0.0,0.0,0.0,0.0,0.0,0.0,0.0,0.0,0.0,0.0,0.0,0.0,0.0,0.0,0.0,0.0,0.0,0.0,0.0,0.0,0.0,0.0,0.0,0.0,0.0,0.0,0.0,0.0,0.0,0.0,0.0,0.0,0.0,0.0,0.0,0.0,0.0,0.0,0.0,0.0,0.0,0.0,0.0,0.0,0.0,0.0,0.0,0.0,0.0,0.0,0.0,0.0,0.0,0.0,0.0,0.0,0.0,0.0,0.0,0.0,0.0,0.0,0.0,0.0,0.0,0.0,0.0,0.0,0.0,0.0,0.0,0.0,0.0,0.0,0.0,0.0,0.0,0.0,0.0,0.0,0.0,0.0,0.0,0.0,0.0,0.0,0.0,0.0,0.0,0.0,0.0,0.0,0.0,0.0,-3.1094,-3.0684,0.0,0.0,0.0,0.0,0.0,0.0,0.0,0.0,0.0,0.0,0.0,0.0,0.0,0.0,0.0,0.0,0.0,0.0,0.0,0.0,0.0,0.0,0.0,-3.2371,-3.3351,-3.4129,-3.4115,-3.449,-3.5377,0.0,0.0,0.0,0.0,0.0,-3.347,-3.3347,-3.2287,-3.0227,-3.1678,-3.2234,-3.2055,-3.326,-3.3696,-3.3561,0.0,0.0,0.0,0.0,0.0,0.0,0.0,0.0,0.0,0.0,0.0,0.0,0.0,0.0,0.0,0.0,0.0,0.0,0.0,0.0,0.0,0.0,0.0,0.0,0.0,0.0,0.0,0.0,0.0,0.0,0.0,0.0,0.0,0.0,0.0,0.0,0.0,0.0,0.0,0.0,0.0,0.0,0.0,0.0,0.0,0.0,0.0,0.0,0.0,0.0,0.0,0.0,0.0,0.0,0.0,0.0,0.0,0.0,0.0,0.0,0.0,0.0,0.0,0.0,0.0,0.0,0.0,0.0,0.0,0.0,-3.4082,-3.2871,0.0,0.0,0.0,0.0,0.0,0.0,0.0,0.0,0.0,0.0,0.0,0.0,0.0,0.0,0.0,0.0,0.0,0.0,0.0,0.0,0.0,-3.0848,-3.2061,-3.2983,-3.4127,-3.5639,-3.4894,-3.5001,-3.6559,-3.5684,0.0,0.0,-3.637,-3.6059,-3.4814,-3.4503,-3.3333,-3.1165,-3.1972,-3.3675,-3.6163,-3.7661,-3.7841,-3.702,-3.6947,0.0,0.0,0.0,0.0,0.0,0.0,0.0,0.0,0.0,0.0,0.0,0.0,0.0,0.0,0.0,0.0,0.0,0.0,0.0,0.0,0.0,0.0,0.0,0.0,0.0,0.0,0.0,0.0,0.0,0.0,0.0,0.0,0.0,0.0,0.0,0.0,0.0,0.0,0.0,0.0,0.0,0.0,0.0,0.0,0.0,0.0,0.0,0.0,0.0,0.0,0.0,0.0,0.0,0.0,0.0,0.0,0.0,0.0,0.0,0.0,0.0,0.0,0.0,-3.6783,-3.7387,-3.9043,-3.9609,-3.9922,-3.9902,-3.8281,-3.6309,-3.4238,-3.4726,0.0,0.0,0.0,0.0,0.0,0.0,0.0,0.0,0.0,0.0,0.0,0.0,0.0,0.0,0.0,0.0,0.0,0.0,0.0,-3.1667,-3.2919,-3.3035,-3.4119,-3.6677,-3.598,-3.6051,-3.7577,-3.7564,-3.7516,-3.7618,-3.65,-3.5712,-3.555,-3.4816,-3.3913,-3.2806,-3.4565,-3.7334,-4.0986,-4.1907,-4.3301,-4.4883,-4.0483,-4.0417,-4.3165,0.0,0.0,0.0,0.0,0.0,0.0,0.0,0.0,0.0,0.0,0.0,0.0,0.0,0.0,0.0,0.0,0.0,0.0,0.0,0.0,0.0,0.0,0.0,0.0,0.0,0.0,0.0,0.0,0.0,0.0,0.0,0.0,0.0,0.0,0.0,0.0,0.0,0.0,0.0,0.0,0.0,-3.3822,-3.4525,0.0,0.0,0.0,0.0,0.0,0.0,0.0,0.0,0.0,0.0,0.0,0.0,0.0,-3.4452,-3.7793,-3.6441,-3.6773,-3.8887,-4.0355,-4.0958,-4.0879,-4.2031,-4.2773,-4.3144,-4.3633,0.0,-3.7246,-3.625,0.0,0.0,0.0,0.0,0.0,0.0,0.0,0.0,0.0,0.0,0.0,0.0,0.0,0.0,0.0,0.0,0.0,0.0,0.0,0.0,0.0,-3.4372,-3.5665,-3.7399,-3.8994,-3.9591,-3.8912,-4.0149,-4.0318,-3.9032,-3.8328,-3.7647,-3.6894,-3.6009,-3.5644,-3.5841,-3.8826,-4.2071,-4.5556,-4.693,-4.8609,-5.039,-4.7635,-4.5699,-4.42,-4.1501,0.0,0.0,0.0,0.0,0.0,0.0,0.0,0.0,0.0,0.0,0.0,0.0,0.0,0.0,0.0,0.0,0.0,0.0,0.0,0.0,0.0,0.0,0.0,0.0,0.0,0.0,0.0,0.0,0.0,0.0,0.0,0.0,0.0,0.0,0.0,0.0,0.0,0.0,0.0,-3.4625,-3.6056,-3.568,-3.7613,-3.8617,0.0,0.0,0.0,0.0,0.0,0.0,0.0,0.0,0.0,-3.5055,-3.5079,-3.6066,-3.8143,-3.8202,-3.9682,-4.248,-4.373,-4.4238,-4.4082,-4.5137,-4.584,-4.625,-4.6641,-4.5508,-4.3144,-4.0391,-3.7676,-3.5156,0.0,0.0,0.0,0.0,-3.2408,-3.3248,0.0,0.0,0.0,0.0,0.0,0.0,0.0,0.0,0.0,0.0,0.0,0.0,-3.4833,-3.6068,-3.7588,-3.9878,-4.2159,-4.2981,-4.176,-4.2619,-4.2432,-4.0804,-3.995,-3.8975,-3.779,-3.7374,-3.7896,-3.9361,-4.2701,-4.5895,-4.9069,-5.0725,-5.2393,-5.3995,-5.3673,-5.1289,-4.7335,-4.5081,-4.2752,-4.0451,0.0,0.0,0.0,0.0,0.0,0.0,0.0,0.0,0.0,0.0,0.0,0.0,0.0,0.0,0.0,0.0,0.0,0.0,0.0,0.0,0.0,0.0,0.0,0.0,0.0,0.0,0.0,0.0,0.0,0.0,0.0,0.0,0.0,0.0,0.0,0.0,0.0,-3.6368,-3.7864,-3.6885,-3.9424,-4.059,0.0,0.0,0.0,0.0,0.0,0.0,-3.572,-3.7051,-3.7345,-3.6355,-3.7614,-3.8612,-3.9484,-4.0422,-4.2543,-4.5683,-4.6211,-4.6582,-4.6816,-4.7558,-4.8144,-4.8535,-4.8535,-4.8242,-4.7461,-4.3789,-4.0259,-3.7028,-3.6475,-3.5463,-3.4279,-3.323,-3.3258,-3.3631,0.0,0.0,0.0,0.0,0.0,0.0,0.0,0.0,0.0,0.0,0.0,-3.3235,-3.8361,-3.7935,-3.9575,-4.5364,-4.4879,-4.5143,-4.7287,-4.4636,-4.3084,-4.3228,-4.0272,-3.8406,-3.7822,-3.8739,-4.0487,-4.3041,-4.5155,-4.7698,-5.0669,-5.2089,-5.3664,-5.5325,-5.6482,-5.6635,-5.5778,-4.9227,-4.7242,-4.7902,-4.2197,0.0,0.0,0.0,0.0,0.0,0.0,0.0,0.0,0.0,0.0,0.0,0.0,0.0,0.0,0.0,0.0,0.0,0.0,0.0,0.0,0.0,0.0,0.0,0.0,0.0,0.0,0.0,0.0,0.0,0.0,0.0,0.0,0.0,0.0,0.0,0.0,0.0,0.0,-3.799,-4.2501,0.0,0.0,0.0,0.0,-3.8837,-4.0256,-4.0415,-3.8445,-4.0019,-4.0934,-4.0744,-4.176,-4.2748,-4.3898,-4.3794,-4.4962,-4.7441,-4.707,-4.7324,-4.8125,-4.8594,-4.9043,-4.9453,-4.9453,-4.8965,-4.793,-4.4863,-4.1436,-3.7899,-3.5843,-3.358,-3.1478,-3.1863,-3.2807,-3.3856,0.0,0.0,0.0,0.0,0.0,-2.9964,-3.1052,-3.1742,-3.2426,-3.317,-3.3915,-3.5971,-4.0275,-4.1755,-4.3999,-4.8032,-4.9367,-4.9937,-4.9755,-4.7818,-4.6507,-4.6187,-4.262,-4.0696,-4.0841,-4.1559,-4.3449,-4.6531,-4.9235,-5.1805,-5.414,-5.6208,-5.7988,-5.9467,-6.0237,-6.0472,-6.0047,-5.4222,-5.0727,-4.8663,-4.4516,-4.1241,0.0,0.0,0.0,0.0,0.0,0.0,0.0,0.0,0.0,0.0,0.0,0.0,0.0,0.0,0.0,0.0,0.0,0.0,0.0,0.0,0.0,0.0,0.0,0.0,0.0,0.0,0.0,0.0,0.0,0.0,0.0,0.0,0.0,0.0,0.0,0.0,0.0,-4.4463,-4.7476,0.0,-4.6656,-4.4936,-4.3164,-4.1696,-4.1697,-4.1647,-4.1523,-4.3125,-4.3747,-4.3125,-4.3866,-4.4606,-4.5543,-4.5417,-4.6707,-4.9258,-4.9101,-4.918,-4.9473,-4.9629,-4.9805,-4.9922,-4.9648,-4.9355,-4.8926,-4.7285,-4.4087,-3.9992,-3.9277,-3.7176,-3.4702,-3.3923,-3.3968,-3.4321,0.0,0.0,0.0,-2.9062,-2.994,-3.0755,-3.1655,-3.2445,-3.3342,-3.4451,-3.546,-3.7861,-4.2559,-4.4705,-4.7372,-5.1242,-5.2564,-5.2773,-5.1725,-4.9313,-4.7519,-4.6645,-4.3512,-4.2164,-4.3015,-4.4725,-4.7037,-5.015,-5.2414,-5.466,-5.6678,-5.8069,-5.9512,-6.1088,-6.2149,-6.2494,-6.234,-5.9017,-5.4962,-5.056,-4.7239,-4.4496,-4.196,0.0,0.0,0.0,0.0,0.0,0.0,0.0,0.0,0.0,0.0,0.0,0.0,0.0,0.0,0.0,0.0,0.0,0.0,0.0,0.0,0.0,0.0,0.0,0.0,0.0,0.0,0.0,0.0,0.0,0.0,0.0,0.0,0.0,0.0,0.0,-4.8047,-5.001,-5.2025,-5.2742,-5.1416,-4.7858,-4.5474,-4.4827,-4.4273,-4.4071,-4.4444,-4.5742,-4.6133,-4.4966,-4.6048,-4.6753,-4.659,-4.7453,-4.8784,-5.0391,-5.0254,-5.0176,-5.0176,-5.0332,-5.0391,-5.0371,-4.9941,-4.9746,-4.9668,-4.7826,-4.4764,-4.1169,-4.0925,-3.8498,-3.5121,-3.4275,-3.4016,-3.4012,0.0,-2.7666,-2.8287,-2.9422,-3.0333,-3.1311,-3.2433,-3.3293,-3.4394,-3.6046,-3.6376,-3.8872,-4.5223,-4.669,-4.9478,-5.5133,-5.4063,-5.3186,-5.3291,-4.8872,-4.5721,-4.457,-4.2835,-4.2699,-4.4206,-4.8168,-5.1411,-5.3824,-5.4668,-5.605,-5.7877,-5.74,-5.8278,-6.0115,-6.1993,-6.2847,-6.2934,-6.3314,-6.0182,-5.4462,-5.049,-4.8241,-4.6733,0.0,0.0,0.0,0.0,0.0,0.0,0.0,0.0,0.0,0.0,0.0,0.0,0.0,0.0,0.0,0.0,0.0,0.0,0.0,0.0,0.0,0.0,0.0,0.0,0.0,0.0,0.0,0.0,0.0,0.0,0.0,0.0,0.0,-4.1363,-4.6836,-5.1701,-5.4139,-5.5889,-5.6232,-5.4299,-5.2133,-5.0053,-4.8312,-4.7911,-4.7596,-4.6894,-4.7773,-4.7679,-4.635,-4.8767,-4.9377,-4.7545,-4.9584,-5.0801,-5.0801,-5.0391,-5.0215,-5.0234,-5.0644,-5.082,-5.0762,-5.0351,-5.0156,-4.9869,-4.6463,-4.3434,-4.1073,-4.0363,-3.6913,-3.2572,-3.2572,-3.2572,-3.2532,-2.8002,-2.8192,-2.8665,-2.9831,-3.0709,-3.1539,-3.246,-3.3293,-3.4174,-3.5238,-3.7955,-4.1589,-4.6287,-4.8644,-5.1439,-5.5414,-5.2822,-5.1226,-5.183,-4.705,-4.4212,-4.4365,-4.5925,-4.7902,-5.0165,-5.1901,-5.4026,-5.6659,-5.6885,-5.7809,-5.9351,-6.0081,-6.1271,-6.2835,-6.3733,-6.4438,-6.4875,-6.4416,-6.2508,-5.9264,-5.4467,-5.1116,-4.8455,0.0,0.0,0.0,0.0,0.0,0.0,0.0,0.0,0.0,0.0,0.0,0.0,0.0,0.0,0.0,0.0,0.0,0.0,0.0,0.0,0.0,0.0,0.0,0.0,0.0,0.0,0.0,0.0,0.0,0.0,0.0,-4.4656,-4.7383,-4.8217,-5.2939,-5.6811,-5.8105,-5.9903,-5.9643,-5.6059,-5.2947,-5.0434,-4.8549,-4.7894,-4.7662,-4.7812,-4.8691,-4.8943,-4.8518,-4.9622,-4.9893,-4.9512,-5.0009,-5.0508,-5.0801,-5.0683,-5.0801,-5.1094,-5.1211,-5.0918,-5.0351,-5.0234,-4.8822,-4.6274,-4.547,-4.2307,-3.8441,-3.8241,-3.605,-3.3173,-3.3173,-3.3173,-3.3106,-2.7862,-2.8192,-2.8634,-2.9307,-3.054,-3.1568,-3.2045,-3.3366,-3.4614,-3.5459,-3.8799,-4.2404,-4.584,-4.8713,-5.1225,-5.3275,-5.1658,-5.011,-4.9007,-4.577,-4.4313,-4.523,-4.8627,-5.1671,-5.4189,-5.6189,-5.8017,-5.976,-5.9545,-5.9935,-6.0955,-6.1838,-6.2908,-6.42,-6.5143,-6.5764,-6.6136,-6.5127,-6.3862,-6.2125,-5.7882,-5.474,-5.2124,-4.6942,-4.4548,-4.3926,-4.2306,-4.2462,-4.309,-4.12,0.0,0.0,0.0,0.0,0.0,0.0,0.0,0.0,0.0,0.0,0.0,0.0,0.0,0.0,0.0,0.0,0.0,0.0,0.0,0.0,0.0,0.0,0.0,0.0,-4.9559,-5.3286,-5.6188,-5.8465,-6.0543,-6.2247,-6.2994,-6.1798,-5.8077,-5.4475,-5.152,-5.0015,-4.861,-4.8027,-4.8457,-4.8965,-4.9336,-4.9512,-4.9766,-5.0,-5.0176,-5.0176,-5.0312,-5.0547,-5.0547,-5.0664,-5.0898,-5.0898,-5.0644,-5.0156,-4.8805,-4.725,-4.5047,-4.2741,-3.9981,-3.7297,0.0,0.0,0.0,0.0,-3.232,-3.2961,-2.7391,-2.7946,-2.8402,-2.8464,-3.0086,-3.1384,-3.1384,-3.344,-3.5247,-3.5878,-3.8993,-4.1975,-4.4133,-4.7212,-4.9364,-4.9891,-5.013,-4.8853,-4.577,-4.5083,-4.5505,-4.7173,-5.114,-5.4485,-5.6934,-6.0306,-6.2099,-6.2381,-6.2049,-6.2132,-6.255,-6.2849,-6.3633,-6.4783,-6.6203,-6.6728,-6.6525,-6.5349,-6.4326,-6.3219,-6.0357,-5.8262,-5.618,-5.0789,-4.9823,-5.093,-4.7788,-4.7145,-4.7349,-4.5201,0.0,0.0,0.0,0.0,0.0,0.0,0.0,0.0,0.0,0.0,0.0,0.0,0.0,0.0,0.0,0.0,0.0,0.0,0.0,0.0,0.0,0.0,0.0,0.0,-5.4934,-5.8908,-6.3979,-6.3528,-6.3564,-6.5773,-6.5193,-6.3043,-5.9416,-5.5812,-5.301,-5.1256,-4.9292,-4.8457,-4.8848,0.0,0.0,0.0,0.0,-4.9687,-5.0019,-5.0019,-5.0058,-5.0098,-5.0098,-5.0137,-5.0176,-5.0176,-4.9947,-4.949,-4.6944,-4.5406,-4.4359,-3.9346,-3.6889,-3.648,-3.648,-3.4941,-3.2585,-2.9891,-3.0149,-3.1707,-2.8029,-2.8298,-2.8515,-2.8821,-3.0271,-3.1384,-3.1384,-3.344,-3.4723,-3.3887,-3.821,-4.1176,-4.0756,-4.3588,-4.6265,-4.819,-4.5665,-4.4243,-4.4763,-4.5637,-4.7683,-5.1056,-5.4289,-5.7083,-5.938,-6.1908,-6.2965,-6.2381,-6.2851,-6.3155,-6.3328,-6.393,-6.472,-6.5527,-6.6406,-6.6235,-6.526,-6.4959,-6.3635,-6.1414,-6.0391,-5.8696,-5.6522,-5.2812,-5.1678,-5.1708,-4.9494,-5.0515,-5.245,-5.0352,-5.0393,-5.0767,-4.7914,-4.5923,0.0,0.0,0.0,0.0,0.0,0.0,0.0,0.0,0.0,0.0,0.0,0.0,0.0,0.0,0.0,0.0,0.0,0.0,0.0,-5.5496,-5.8903,-6.2817,-6.8106,-6.8542,-6.7581,-6.5475,-6.5965,-6.3593,-5.6136,-5.4919,-5.3018,-4.9051,-4.8699,-4.8769,-4.8848,-4.9199,-4.9277,-4.9004,-4.9336,-4.9394,-4.9121,-4.9101,-4.9297,-4.9648,-4.9648,0.0,-5.0176,-5.0176,-4.8805,-4.6507,-4.6034,-4.3101,-3.876,-3.7704,-3.47,-3.0912,-3.0912,-3.0521,-2.97,-2.684,-2.6126,-2.6602,-2.8748,-2.8883,-2.8883,-2.9257,-3.0808,-3.2008,-3.2008,-3.3834,-3.5042,-3.446,-3.7936,-4.0242,-3.9786,-4.1843,-4.3442,-4.396,-4.2307,-4.2332,-4.4993,-4.6737,-4.9487,-5.3247,-5.6664,-5.9336,-6.1197,-6.3463,-6.4241,-6.3497,-6.4241,-6.441,-6.4072,-6.4816,-6.5358,-6.573,-6.6474,-6.6263,-6.5337,-6.4752,-6.3481,-6.1908,-6.1033,-6.0014,-5.8754,-5.5812,-5.464,-5.456,-5.3979,-5.4882,-5.603,-5.3978,-5.3798,-5.3783,-5.0274,-4.8124,-4.6429,0.0,0.0,0.0,0.0,0.0,0.0,0.0,0.0,0.0,0.0,0.0,0.0,0.0,0.0,-4.632,-4.8226,0.0,-5.6326,-5.928,-6.2999,-6.658,-6.9572,-7.1098,-7.0917,-6.789,-6.7508,-6.4923,-5.8584,-5.7518,-5.5648,-5.2386,-5.224,-5.1847,-5.0803,-5.0844,-5.0334,-4.8867,-4.9082,-4.9082,-4.8867,-4.8867,-4.8965,-4.9199,-4.9199,-4.9297,-4.9512,-4.8139,-4.6856,-4.5309,-4.2596,-3.9963,-3.71,-3.4303,-3.0888,-2.7057,-2.583,-2.6035,-2.6821,-2.3944,-2.4598,-2.6627,-2.9125,-2.9295,-2.9354,-2.9863,-3.1425,-3.2596,-3.2596,-3.4243,-3.5411,-3.5133,-3.7427,-3.8958,-3.8528,-3.9849,-4.0394,-3.9545,-4.0205,-4.2132,-4.5673,-4.8098,-5.1074,-5.4837,-5.7971,-6.028,-6.1761,-6.3515,-6.417,-6.3651,-6.464,-6.4891,-6.4454,-6.5309,-6.5647,-6.5564,-6.6305,-6.6124,-6.5118,-6.4188,-6.3366,-6.2595,-6.1489,-6.1216,-6.1248,-5.8927,-5.8053,-5.811,-5.8288,-5.8279,-5.791,-5.6312,-5.5641,-5.4859,-5.1662,-4.9972,-4.8717,-4.5959,-4.4028,0.0,0.0,0.0,0.0,0.0,0.0,0.0,0.0,0.0,-4.2589,-4.5425,-4.8574,-5.1608,-5.423,-5.8124,-6.1679,-6.375,-6.7245,-7.0019,-7.1044,-7.28,-7.3159,-7.1283,-6.9302,-6.6352,-6.2147,-6.0257,-5.829,-5.6053,-5.5856,-5.4983,-5.3259,-5.3081,-5.2027,-4.9564,-4.9564,-4.938,-4.8867,-4.8867,-4.8867,-4.8867,-4.8867,-4.8663,-4.8069,-4.5943,-4.44,-4.3244,-3.802,-3.5691,-3.5295,-3.0497,-2.6832,-2.4119,-2.1871,-2.2051,-2.3222,-2.0824,-2.2828,-2.6518,-2.8432,-2.9061,-2.989,-3.0991,-3.1983,-3.2596,-3.2596,-3.4243,-3.5098,-3.3983,-3.6081,-3.68,-3.4459,-3.5497,-3.658,-3.7141,-4.0569,-4.3843,-4.6374,-4.9229,-5.2535,-5.6359,-5.733,-5.8422,-5.9762,-5.9686,-5.9871,-6.0328,-6.2235,-6.333,-6.3892,-6.5093,-6.5462,-6.4982,-6.5742,-6.4641,-6.2487,-6.2903,-6.2426,-6.1327,-6.1104,-6.1789,-6.2761,-6.1865,-6.1421,-6.1289,-6.0012,-5.8274,-5.6465,-5.7211,-5.5581,-5.3365,-5.3756,-5.2886,-5.1245,-4.8226,-4.5282,-4.2444,-3.9704,-3.6479,-3.413,-3.4848,-3.6225,-3.8522,0.0,0.0,-4.8259,-5.084,-5.3506,-5.6323,-5.9008,-6.1981,-6.5544,-7.0631,-7.1674,-7.2799,-7.5239,-7.4679,-7.4091,-7.4296,-7.0991,-6.7152,-6.2754,-6.0501,-5.8266,-5.603,-5.5879,-5.5705,-5.553,-5.5508,-5.4279,-5.2027,-5.2027,-5.0964,-4.8867,-4.8867,-4.8867,-4.8867,-4.8867,-4.7698,-4.5361,-4.5173,-4.2482,-3.7855,-3.2494,-3.0117,-2.9915,-2.6842,-2.3865,-2.1259,-2.1054,-1.9537,-1.7376,-1.7158,-1.856,-2.0969,-2.989,-3.0414,-3.1034,-3.2229,-3.2537,-3.2664,-3.2883,-3.4159,-3.4765,-3.3979,-3.5361,-3.5994,-3.4904,-3.5324,-3.6087,-3.7278,-3.939,-4.2352,-4.6474,-4.87,-5.1775,-5.5953,-5.7581,-5.8486,-5.8807,-6.0271,-6.0915,-6.0444,-6.2885,-6.4144,-6.444,-6.6201,-6.6862,-6.6698,-6.738,-6.6971,-6.5574,-6.5863,-6.5409,-6.4702,-6.4702,-6.4988,-6.5362,-6.4156,-6.2843,-6.1466,-5.9864,-5.8122,0.0,-5.4932,-5.389,-5.2865,-5.1796,-5.0728,-4.9566,-4.7471,-4.5221,-4.2589,-3.9047,-3.7469,0.0,0.0,-3.9235,-4.2422,-4.5889,-4.9064,-5.1991,-5.4559,-5.7184,-5.9765,-6.205,-6.5719,-6.9381,0.0,-7.4463,-7.6414,-7.7583,-7.6298,-7.5142,-7.4684,-7.1268,-6.826,-6.633,-6.4291,-6.227,-6.0027,-5.9859,-5.9354,-5.7949,-5.7925,-5.6204,-5.2545,-5.2387,-5.1326,-4.8848,-4.8867,-4.8867,-4.8848,-4.7307,-4.613,-4.4984,-4.1907,-3.8441,-3.4756,-3.0937,-2.8291,-2.6842,-2.5471,-2.3323,-2.0798,-2.2305,-2.2141,-2.0576,-1.7596,-1.8899,-2.2425,-3.0586,-3.0903,-3.1273,-3.2463,-3.2611,-3.2705,-3.3224,-3.402,-3.4469,-3.4134,-3.47,-3.5005,-3.485,-3.4949,-3.5455,-3.6487,-3.7793,-4.0397,-4.4683,-4.6795,-4.9792,-5.3833,-5.597,-5.7146,-5.7352,-5.9674,-6.0683,-6.0424,-6.303,-6.4605,-6.5288,-6.7074,-6.7824,-6.7732,-6.845,-6.8386,-6.7556,-6.7752,-6.762,-6.7164,-6.7164,-6.7144,-6.687,-6.4708,-6.2409,-6.0154,-5.884,-5.6602,-5.3917,-5.2031,-5.1095,-5.0488,-4.8985,-4.8178,-4.7436,-4.5844,-4.3891,-4.1719,-3.8926,0.0,0.0,-3.9571,-4.2589,-4.6373,-4.9218,-5.2263,-5.5331,-5.7898,-6.0296,-6.2505,-6.4498,-6.8341,-7.1634,-7.302,-7.6268,-7.8491,-7.8683,-7.7055,-7.5244,-7.4035,-7.0699,-6.8406,-6.7909,-6.6848,-6.5656,-6.4631,-6.4497,-6.3779,-6.2032,-6.1401,-5.9211,-5.5222,-5.3904,-5.2207,-4.9911,-4.8439,-4.7883,-4.7883,-4.5173,-4.3624,-4.2673,-3.8246,-3.5153,-3.32,-3.0546,-2.8088,-2.6219,-2.5165,-2.3615,-2.1926,-2.3527,-2.4077,-2.3444,-1.9726,-2.1058,-2.483,-2.9547,-2.9638,-3.0004,-3.1182,-3.1971,-3.268,-3.3457,-3.391,-3.4134,-3.4201,-3.3827,-3.3307,-3.2756,-3.3239,-3.3576,-3.3606,-3.6137,-3.8433,-4.0128,-4.348,-4.6711,-4.9534,-5.1234,-5.2989,-5.4915,-5.5783,-5.7213,-5.9104,-6.1692,-6.388,-6.5956,-6.7309,-6.759,-6.7136,-6.7801,-6.7427,-6.6273,-6.6946,-6.7266,-6.7164,-6.7164,-6.7165,-6.6621,-6.2914,-5.9927,-5.7674,-5.69,-5.28,-4.7983,-4.8843,-4.7099,-4.478,-4.6162,-4.6553,-4.608,-4.3666,-4.1066,-3.911,0.0,0.0,-4.1409,-4.3083,-4.611,-4.9611,-5.3384,-5.6161,-5.8662,-6.1403,-6.2989,-6.4563,-6.6745,-6.8913,-7.1433,-7.4997,-7.6763,-7.7947,-7.8467,-7.6238,-7.3973,-7.2486,-6.9791,-6.7293,0.0,-6.6258,-6.7321,-6.8654,-6.8737,-6.8737,-6.8586,-6.6752,-6.4476,-6.2208,-5.8003,-5.4654,-5.2387,-4.7583,-4.5173,-4.5173,-4.2482,-3.9981,-3.7478,-3.477,-3.3414,-3.32,-3.0546,-2.9319,-2.889,-2.5977,-2.4538,-2.4327,-2.4107,-2.3756,-2.3375,-2.3183,-2.4757,-2.6794,-2.9875,-3.0386,-3.0938,-3.1532,-3.2301,-3.2674,-3.2224,-3.2944,-3.3237,-3.2498,-3.2688,0.0,0.0,0.0,0.0,0.0,-3.6199,-3.8029,-4.0547,-4.2237,-4.4487,-4.7419,-4.9764,-5.119,-5.1592,-5.4788,-5.6423,-5.634,-5.9572,-6.1817,-6.3155,-6.5932,-6.7352,-6.7657,-6.9434,-7.0021,-6.9616,-6.9849,-6.9949,-6.9783,-6.7729,-6.6543,-6.5279,-6.0076,-5.6001,-5.2539,0.0,-4.702,-4.5489,-4.3072,-4.2099,-4.1715,-4.1114,-4.1474,-4.1854,-4.0556,-4.0464,-4.0692,0.0,0.0,-4.4929,-4.6428,-4.9625,-5.321,-5.6061,-5.849,-6.0475,-6.1822,-6.2091,-6.2265,-6.298,-6.5719,-6.8757,-7.1719,-7.4574,-7.7133,-7.9284,-7.6529,-7.3593,-7.1456,-6.9267,0.0,0.0,0.0,0.0,-6.678,-6.6918,-6.7469,-6.8832,-6.6906,-6.4793,-6.2532,-5.815,-5.4829,-5.2366,-4.7564,-4.4984,-4.4984,-4.0754,-3.7282,-3.477,-3.38,-3.3414,-3.32,-3.035,-2.9049,-2.9013,-2.7577,-2.6867,-2.6644,-2.8512,-2.8747,-2.8295,-2.8466,-3.0013,-3.1382,0.0,-3.0933,-3.1498,-3.1591,-3.229,0.0,0.0,0.0,0.0,0.0,0.0,0.0,0.0,0.0,0.0,0.0,0.0,-3.6466,-3.8461,-3.9098,-4.0509,-4.2901,-4.5341,-4.6893,-4.741,-5.0923,-5.2668,-5.2492,-5.5532,-5.7544,-5.8641,-6.1965,-6.3934,-6.4741,-6.7318,-6.8538,-6.8504,-6.7853,-6.7631,-6.7396,-6.427,-6.233,-6.068,-5.539,-5.1285,0.0,-4.3008,-4.1637,-4.164,-3.9122,-3.8666,-3.8936,-3.8032,-3.8135,-3.8692,-3.8886,-4.0482,-4.2222,0.0,-4.5757,-4.9154,-5.0501,-5.3473,-5.6573,-5.8918,-6.022,-6.1104,-6.1044,-6.0321,-5.9451,-5.877,-6.0746,-6.3487,-6.6569,-6.9964,-7.3355,-7.6765,-7.4391,-7.1714,-6.9998,-6.7856,-6.5981,0.0,0.0,0.0,-6.7573,-6.7889,-6.8882,-7.0561,-6.8298,-6.6206,-6.4821,-5.8972,-5.518,-5.3615,-4.6951,-4.2673,-4.0737,-3.7358,-3.4801,-3.3253,-3.3146,-3.3106,-3.3093,-3.1074,-3.0132,-3.0021,-2.9664,-2.9307,-2.8987,-3.0923,-3.1156,-3.0859,-3.1854,-3.3283,-3.3975,0.0,0.0,-3.1654,0.0,0.0,0.0,0.0,0.0,0.0,0.0,0.0,0.0,0.0,0.0,0.0,0.0,0.0,0.0,-3.4013,-3.4309,-3.5141,-3.6387,-3.8333,-4.0377,-4.2531,-4.4445,-4.6242,-4.7856,-4.9713,-5.1383,-5.2851,-5.5863,-5.7595,-5.8469,-6.1568,-6.2932,-6.2898,-6.1283,-6.0622,-6.0341,-5.7216,-5.5004,-5.3308,-4.9046,-4.5961,-4.3283,-3.875,-3.6916,-3.6682,-3.7051,-3.6816,-3.6493,-3.7144,-3.6988,-3.6981,-3.8912,-4.1256,-4.3579,-4.5508,-4.9677,-5.3849,-5.5126,-5.7311,-5.9668,-6.1553,-6.1433,-6.0535,-5.911,-5.7761,-5.6258,0.0,0.0,-5.6374,-6.0383,-6.3524,-6.7069,-7.1588,-7.0186,-6.8624,0.0,0.0,0.0,0.0,0.0,0.0,-7.047,0.0,-7.2355,-7.3656,-7.0646,-6.8888,-6.8737,-6.0262,-5.5856,-5.5879,-4.6113,-3.8621,-3.3387,-3.3106,-3.2959,-3.2919,-3.2666,-3.2532,-3.2505,-3.2505,-3.2525,-3.2243,-3.223,-3.188,-3.1543,-3.1556,-3.1218,-3.1108,-3.372,-3.4743,-3.4759,0.0,0.0,0.0,0.0,0.0,0.0,0.0,0.0,0.0,0.0,0.0,0.0,0.0,0.0,0.0,0.0,0.0,0.0,-3.4013,-3.3888,-3.4039,-3.4344,-3.6275,-3.7658,-3.8206,-4.0908,-4.2555,-4.297,-4.4756,-4.6473,-4.819,-5.0057,-5.1706,-5.315,-5.5127,-5.5961,-5.5961,-5.5529,-5.5352,-5.5044,-5.1999,-5.0101,-4.8713,-4.4795,-4.1792,-3.918,-3.6343,-3.4724,-3.4008,0.0,0.0,0.0,0.0,-3.8488,-4.0268,-4.3136,-4.5399,-4.7799,-5.1173,-5.4399,-5.7209,-5.8515,-5.9329,-5.9967,-6.0475,-5.9308,-5.766,-5.5918,-5.339,-5.1049,0.0,0.0,0.0,-5.8288,-6.2463,0.0,-7.1471,-7.1045,0.0,-6.9766,0.0,-6.7807,-6.6161,-6.6131,0.0,0.0,-6.9632,-7.0236,-7.1662,-6.9889,-6.8132,-6.6597,-5.9667,-5.5879,-5.5879,-4.6113,-3.8512,-3.3093,-3.3013,-3.2746,-3.2332,-3.2478,-3.2305,-3.1891,-3.1891,-3.2638,-3.3987,-3.3741,-3.4486,-3.5739,-3.5989,-3.5832,-3.5873,-3.6817,-3.8645,-4.0693,0.0,0.0,0.0,0.0,0.0,0.0,0.0,0.0,0.0,0.0,0.0,0.0,0.0,0.0,0.0,0.0,0.0,0.0,0.0,-3.2199,-3.1894,-3.1894,-3.3005,-3.3823,-3.4208,-3.5906,-3.6997,-3.7451,-3.8676,-3.9966,-4.1234,-4.3104,-4.4899,-4.6487,-4.8509,-4.9586,-4.9945,-4.918,-4.8904,0.0,0.0,-4.4206,-4.3229,-4.08,-3.8751,-3.6761,-3.4528,-3.3403,0.0,0.0,0.0,-3.7297,-3.8952,-4.0913,-4.3269,-4.67,0.0,-5.1453,-5.5037,-5.7635,-5.9697,-6.0715,-6.0535,-5.9997,-5.9727,-5.7654,-5.5083,-5.2355,-4.8748,0.0,0.0,0.0,0.0,0.0,0.0,0.0,-6.9093,-6.9269,-6.902,0.0,-6.9661,0.0,-6.7567,-6.7687,-6.8315,0.0,-6.8565,-6.8736,-7.0358,-6.8539,-6.7061,-6.5844,-6.0407,-5.5812,-5.2733,-4.501,-3.9047,-3.4703,-3.3429,-3.2545,-3.2104,-3.3256,-3.3647,-3.3323,-3.442,-3.5438,-3.6059,-3.6012,-3.6514,-3.7177,-3.7365,-3.7557,-3.7808,-4.0562,-4.2682,-4.4712,0.0,0.0,0.0,0.0,0.0,0.0,0.0,0.0,0.0,0.0,-3.0702,-3.1091,0.0,0.0,0.0,0.0,0.0,0.0,0.0,0.0,-2.9804,-2.9804,-2.9934,-3.0343,-3.1167,-3.1167,-3.1609,-3.2379,-3.2828,-3.3449,-3.4223,-3.6208,-3.8018,-3.9541,-4.1811,-4.3315,-4.3958,-4.2636,-4.207,-4.1907,-3.9748,-3.8542,-3.7943,0.0,-3.6476,-3.5324,-3.3284,-3.2724,0.0,0.0,-3.7617,-3.883,-4.173,-4.4059,-4.6345,-5.0266,-5.2632,-5.4756,-5.7839,-5.9997,-6.1493,-6.1972,-6.0954,-5.9638,-5.889,-5.5984,-5.2381,-4.8769,0.0,-4.0773,-3.9782,-4.0562,-4.3299,-4.9273,0.0,-5.916,-6.5403,-6.6395,-6.6995,-6.875,-6.9176,-6.9153,-6.8555,-6.8944,-6.9385,-6.9754,-6.7957,-6.7564,-6.9448,-6.7148,-6.5529,-6.503,-6.093,-5.5526,-4.8496,-4.3915,-4.019,-3.7369,-3.4767,-3.3312,-3.3146,-3.4956,-3.5866,-3.5744,-3.803,-3.8761,-3.8468,-3.8541,-3.8301,-3.7876,-3.8146,-3.868,-3.9722,-4.4453,-4.6775,-4.822,0.0,0.0,0.0,0.0,0.0,0.0,0.0,0.0,0.0,0.0,-3.1689,-3.145,0.0,0.0,0.0,0.0,0.0,0.0,0.0,0.0,0.0,-2.9804,-3.0545,-3.1044,-3.1167,-3.1167,-3.1241,-3.1462,-3.0799,-3.0903,-3.1782,-3.224,-3.2937,-3.3987,-3.527,-3.5869,-3.6073,-3.6543,-3.6839,-3.6808,-3.6334,-3.6118,-3.5998,-3.5878,0.0,0.0,-3.2671,0.0,0.0,-3.7482,-4.0153,-4.2396,-4.5191,-4.7951,-5.081,-5.4815,-5.6541,-5.7928,-6.0715,-6.2061,-6.263,-6.2211,-6.0266,-5.8141,-5.6944,-5.2594,0.0,0.0,-4.1373,-3.7982,-3.8235,-3.8962,-4.1619,-4.8177,0.0,0.0,0.0,0.0,-6.8436,0.0,0.0,0.0,0.0,0.0,0.0,0.0,-6.727,-6.6469,-6.7301,-6.6415,-6.4209,-6.0622,-5.7731,-5.3796,-4.8496,-4.5645,-4.2864,-4.0024,-3.9098,-3.8414,-3.7991,-3.857,-3.8396,-3.7582,-3.8729,-3.9839,-4.0909,-4.066,-4.1677,-4.3538,-4.3272,-4.4922,-4.7691,-4.8728,-5.1039,-5.3704,0.0,0.0,0.0,0.0,0.0,0.0,0.0,-3.1243,-3.1898,-3.2886,-3.2736,-3.2437,-3.2078,-3.1634,-3.1119,0.0,0.0,0.0,0.0,0.0,0.0,-2.9804,-3.0696,-3.1167,-3.1167,-3.1167,-3.1167,-3.1167,0.0,-2.9985,-3.0495,-3.0495,-3.097,-3.1901,-3.2307,-3.3087,-3.4041,-3.4893,-3.5363,-3.5579,-3.6237,-3.6088,-3.5549,0.0,0.0,0.0,0.0,0.0,0.0,0.0,-4.0939,-4.3691,-4.7052,-5.0054,-5.2965,-5.6555,-5.8112,-5.9219,-6.1882,-6.2839,-6.2929,-6.2271,-5.9578,-5.6541,-5.4259,0.0,0.0,0.0,-3.8176,-3.5523,-3.6918,-3.7667,0.0,0.0,0.0,0.0,0.0,0.0,0.0,0.0,0.0,0.0,0.0,0.0,0.0,0.0,0.0,-6.6312,-6.5867,-6.477,-6.321,-6.1242,-5.8799,-5.5963,-5.2376,-4.8738,-4.5443,-4.2689,-4.1184,-4.0253,-3.9739,-4.12,-4.1544,-4.1221,-4.2676,-4.353,-4.4008,-4.3385,-4.3785,-4.498,-4.457,-4.6643,-4.9998,-5.1395,-5.4812,-5.8591,0.0,0.0,0.0,0.0,0.0,0.0,-3.1495,-3.1828,-3.2364,-3.3548,-3.3728,-3.3457,-3.2766,-3.1543,-3.0492,0.0,0.0,0.0,0.0,0.0,0.0,0.0,0.0,0.0,0.0,0.0,0.0,0.0,-3.0343,0.0,0.0,0.0,0.0,0.0,-3.1315,-3.2307,-3.3768,-3.4698,-3.5301,0.0,0.0,-3.6596,0.0,0.0,0.0,0.0,0.0,0.0,0.0,0.0,-4.0943,-4.3718,-4.713,-5.0212,-5.3174,-5.6346,-5.8052,-5.9458,-6.1972,-6.2869,-6.2869,-6.2091,-5.868,-5.4857,-5.2205,-4.7099,0.0,0.0,-3.6234,-3.404,-3.6028,-3.6456,-3.7762,0.0,0.0,0.0,0.0,0.0,0.0,0.0,0.0,0.0,0.0,0.0,0.0,0.0,0.0,-6.6481,-6.4534,-6.333,-6.2822,-6.2822,-6.0528,-5.846,-5.6573,-5.1819,-4.8235,-4.6167,-4.3661,-4.2158,-4.2052,-4.3938,-4.4819,-4.4727,-4.6274,-4.6836,-4.6367,-4.5508,-4.5215,-4.5273,-4.541,-4.7663,-5.1144,-5.4486,-5.8603,-6.2618,0.0,0.0,0.0,0.0,0.0,0.0,-3.2223,-3.2933,-3.3656,-3.4342,-3.45,-3.4266,-3.3456,-3.2736,-3.1421,0.0,0.0,0.0,0.0,0.0,0.0,0.0,0.0,0.0,0.0,0.0,0.0,0.0,0.0,0.0,0.0,0.0,0.0,0.0,0.0,0.0,-3.2806,-3.4698,0.0,0.0,0.0,0.0,0.0,0.0,0.0,0.0,0.0,0.0,0.0,0.0,0.0,-4.2731,-4.4287,-4.7399,-5.105,-5.3773,0.0,0.0,-6.0745,-6.2181,-6.278,-6.1523,-5.7304,-5.3234,-5.236,0.0,0.0,-4.0597,-3.7271,-3.4726,-3.6168,-3.5477,-3.5985,-4.0049,-4.2734,-4.5713,0.0,0.0,0.0,0.0,0.0,0.0,0.0,0.0,0.0,0.0,0.0,-6.708,-6.321,-6.2797,-6.2822,-6.2822,-6.0528,-5.9138,-5.8969,-5.4434,-5.1965,-5.1584,-4.8867,-4.7415,-4.7396,-4.7761,-4.7567,-4.7199,-4.7539,-4.7266,-4.6797,-4.5957,-4.584,-4.6346,-4.8469,-5.1356,-5.4839,-5.9959,-6.3421,-6.5503,0.0,0.0,0.0,0.0,0.0,0.0,-3.1657,-3.177,-3.2266,-3.3695,-3.3939,-3.4001,-3.4115,-3.3484,-3.2012,-2.9212,-2.8718,0.0,0.0,0.0,0.0,0.0,0.0,0.0,0.0,0.0,-3.1389,-3.1756,-3.0419,0.0,0.0,0.0,0.0,0.0,0.0,0.0,0.0,-3.4285,0.0,0.0,0.0,0.0,0.0,0.0,0.0,0.0,0.0,0.0,0.0,0.0,0.0,0.0,-4.1683,-4.3299,0.0,0.0,-5.4281,-5.6974,-5.9727,-6.1762,-6.275,-6.1433,-5.7124,-5.2583,-5.0064,0.0,-3.9618,-3.8424,-3.6123,-3.4775,-3.6168,-3.5259,-3.5234,-3.7642,-3.8477,0.0,0.0,0.0,0.0,0.0,0.0,0.0,0.0,0.0,0.0,0.0,0.0,-6.9486,-6.6623,-6.5266,-6.4042,-6.2822,-6.1952,-6.0719,-5.9307,-5.7412,-5.5856,-5.4477,-5.2019,-5.0699,-5.0699,-4.9306,-4.8359,-4.7949,-4.7695,-4.7324,-4.6875,-4.6016,-4.5918,-4.6464,-4.8805,-5.1698,-5.5313,-6.0646,-6.503,-6.8117,0.0,0.0,0.0,0.0,0.0,-3.0533,-3.1288,-3.1068,-3.1415,-3.3001,-3.3244,-3.3517,-3.4145,-3.324,-3.1857,-3.0094,-2.8786,0.0,0.0,0.0,0.0,0.0,0.0,0.0,0.0,0.0,-3.0895,-3.1167,-3.0292,-2.9804,0.0,0.0,0.0,0.0,0.0,0.0,0.0,0.0,0.0,0.0,0.0,0.0,0.0,0.0,0.0,0.0,0.0,0.0,0.0,0.0,0.0,0.0,0.0,0.0,0.0,0.0,-5.1468,-5.473,-5.8022,-6.0685,-6.2211,-6.1104,-5.6825,-5.2002,0.0,0.0,-3.9054,-3.7309,-3.5833,-3.5283,-3.6263,-3.5259,-3.4678,-3.5667,-3.5279,-3.6603,0.0,0.0,0.0,0.0,0.0,0.0,0.0,0.0,0.0,0.0,0.0,0.0,-6.9931,-6.7827,-6.5844,-6.372,-6.3123,-6.1952,-6.0362,-5.9667,-5.846,-5.6919,-5.4477,-5.3416,-5.3416,-5.1667,-5.0378,-4.9232,-4.8792,-4.8018,-4.6875,-4.6152,-4.6442,-4.7842,-5.0315,-5.3482,-5.7456,-6.3017,-6.7518,-7.0517,0.0,0.0,0.0,0.0,0.0,-3.054,-3.1308,-3.1505,-3.1801,-3.2524,-3.2656,-3.2875,-3.3487,-3.1628,-3.0848,-3.2089,-3.0704,0.0,0.0,0.0,0.0,0.0,0.0,0.0,-3.1167,-3.0292,-3.0292,-3.1167,-3.0292,-2.9804,-2.9804,-2.9804,-3.0292,-3.1241,0.0,0.0,0.0,0.0,0.0,0.0,0.0,0.0,0.0,0.0,0.0,0.0,0.0,0.0,0.0,0.0,0.0,0.0,0.0,-3.8275,-3.9518,-4.3248,-4.7638,-5.1977,-5.5299,-5.862,-6.0954,-6.0266,-5.6107,-5.1542,0.0,0.0,-3.8796,-3.8156,-3.715,-3.6358,-3.6358,-3.5259,-3.4385,-3.4385,-3.3792,-3.468,-3.8776,0.0,0.0,0.0,0.0,0.0,0.0,0.0,0.0,0.0,0.0,0.0,-7.1999,-6.9931,-6.798,-6.5844,-6.3882,-6.2822,-6.2822,-6.0528,-5.9307,-5.9307,-5.6919,-5.5879,-5.5682,-5.5682,-5.4194,-5.1652,-5.1211,-4.9548,-4.6894,-4.6465,-4.7882,-5.0674,-5.3499,-5.7385,-6.2357,-6.8469,-7.1635,-7.2858,0.0,0.0,0.0,0.0,0.0,0.0,-2.8762,-2.8688,-2.8927,-2.9493,-2.9693,-3.0511,-3.2382,-3.1749,-3.1664,-3.2966,-3.1183,0.0,0.0,0.0,0.0,0.0,0.0,0.0,-3.0292,-2.9934,-2.9934,-3.0216,-3.0312,-3.0357,-3.0357,-3.0984,-3.1705,-3.2458,-3.3055,0.0,0.0,0.0,0.0,0.0,0.0,0.0,0.0,0.0,0.0,0.0,0.0,0.0,0.0,0.0,0.0,0.0,0.0,0.0,0.0,-3.8005,-4.1702,-4.626,-4.898,-5.1489,-5.3173,-5.2435,-4.9667,-4.6622,-4.4623,0.0,-3.805,-3.7124,-3.6615,-3.6483,-3.686,-3.5527,-3.4742,-3.571,-3.4532,-3.4502,0.0,0.0,0.0,0.0,0.0,0.0,0.0,0.0,0.0,0.0,0.0,0.0,-7.3981,-7.2028,-6.9309,-6.5844,-6.3882,-6.2822,-6.2822,-6.2117,-6.1763,-6.1598,-5.933,-5.8266,-5.8096,-5.6187,-5.3887,-5.119,-5.0729,-4.8923,-4.6679,-4.8351,-4.9666,-5.1039,-5.7055,-6.0651,-6.321,-7.0325,-7.3427,-7.4097,0.0,0.0,0.0,0.0,0.0,0.0,-2.751,-2.7446,-2.7652,-2.822,-2.8598,-2.9724,-3.2065,-3.1605,-3.1779,-3.3365,-3.197,0.0,0.0,0.0,0.0,0.0,0.0,0.0,-2.9779,-2.9804,-3.0005,-3.0407,-3.0733,-3.1225,-3.1829,-3.2385,-3.3215,-3.4114,-3.4399,-3.5368,0.0,0.0,0.0,0.0,0.0,0.0,-3.9799,0.0,0.0,0.0,0.0,0.0,0.0,0.0,0.0,0.0,0.0,0.0,0.0,0.0,-3.5839,-3.9438,-4.3791,-4.657,-4.8243,-4.8247,-4.6516,0.0,0.0,0.0,-3.7769,-3.6615,-3.6358,-3.6458,-3.681,-3.5089,-3.4146,-3.5703,-3.4139,-3.4072,-3.8007,0.0,0.0,0.0,0.0,0.0,0.0,0.0,0.0,0.0,0.0,0.0,-7.4929,-7.3052,-7.0813,-6.8256,-6.5398,-6.3584,-6.2822,-6.3584,-6.3882,-6.3882,-6.2458,-6.1754,-6.1754,-5.9117,-5.5881,-5.2326,-5.2024,-4.9687,0.0,-4.9279,-5.1081,-5.2621,-5.9073,-6.3274,-6.6002,-7.1757,-7.4131,-7.4522,0.0,0.0,0.0,0.0,0.0,0.0,0.0,-2.7307,-2.7537,-2.8083,-2.8846,-3.006,-3.1961,-3.104,-3.1155,-3.3124,-3.2826,0.0,0.0,0.0,0.0,0.0,0.0,-3.0251,-2.9779,-2.9804,-3.0306,-3.1336,-3.1411,-3.226,-3.3752,-3.3939,-3.4776,-3.6173,-3.623,-3.7051,0.0,0.0,0.0,0.0,-4.0293,-3.9721,0.0,0.0,0.0,0.0,0.0,0.0,0.0,0.0,0.0,0.0,0.0,0.0,0.0,0.0,0.0,0.0,0.0,-4.3045,-4.5223,-4.6542,-4.5524,-4.3588,-4.1256,0.0,0.0,-3.6615,-3.6358,-3.6358,-3.6408,-3.4264,-3.3138,-3.507,-3.3079,-3.3554,0.0,0.0,0.0,0.0,0.0,0.0,0.0,0.0,0.0,0.0,0.0,-7.5845,-7.4988,-7.3169,-7.2114,-7.1856,-6.8284,-6.5292,-6.3286,-6.5108,-6.6,-6.6,-6.5844,-6.5844,-6.5687,-6.3695,-5.9757,0.0,-5.4502,-5.1467,-4.6542,-4.9494,-5.2302,-5.5121,-6.0267,-6.5318,-7.0131,-7.273,-7.416,-7.4579,0.0,0.0,0.0,0.0,0.0,0.0,0.0,0.0,0.0,0.0,-2.6276,-2.7339,-2.8675,-2.8657,-2.9245,0.0,0.0,0.0,0.0,0.0,0.0,0.0,-3.1548,-3.0641,-2.9779,-2.9804,-3.0131,-3.0809,-3.1612,-3.2458,-3.3267,-3.5383,-3.6794,-3.7634,-3.8294,-3.8805,0.0,0.0,0.0,0.0,-3.8975,-3.8546,0.0,0.0,0.0,0.0,-3.6173,-3.6032,0.0,0.0,0.0,0.0,0.0,0.0,0.0,0.0,-2.8679,-2.9937,-3.2785,0.0,-3.7345,-3.8691,-3.8722,-3.8265,0.0,0.0,0.0,0.0,0.0,0.0,0.0,-3.5332,-3.4534,-3.6436,-3.4971,-3.5192,0.0,0.0,0.0,0.0,0.0,0.0,0.0,0.0,0.0,0.0,0.0,-7.8247,-7.5845,-7.5646,-7.4533,-7.2028,-7.1443,-6.996,-6.7549,-6.798,-6.8132,-6.8132,-6.6597,-6.5844,-6.5687,-6.3287,-5.9418,-5.4524,-5.412,-5.1146,-4.715,-5.1638,-5.415,-5.596,-6.4064,-6.8296,-7.0131,-7.2758,-7.4188,-7.4192,0.0,0.0,0.0,0.0,0.0,0.0,0.0,0.0,0.0,0.0,-2.6691,-2.757,-2.8244,-2.8384,-2.8768,0.0,0.0,0.0,0.0,0.0,0.0,-3.2566,-3.1003,-3.0086,-2.9779,-2.9804,-3.0306,-3.1336,-3.219,-3.3275,-3.4667,-3.6872,-3.8255,-3.8827,-3.9501,-3.9858,-3.9785,-3.8988,0.0,-3.8198,-3.8076,0.0,0.0,0.0,0.0,0.0,-3.5382,-3.5034,0.0,-3.3426,-3.23,-3.124,0.0,0.0,0.0,0.0,-2.7458,-2.8507,-3.0656,-3.2544,-3.4322,-3.623,-3.6935,-3.7111,-3.7111,0.0,0.0,0.0,0.0,0.0,0.0,0.0,0.0,-3.8564,-3.828,0.0,0.0,0.0,0.0,0.0,0.0,0.0,0.0,0.0,0.0,0.0,0.0,-7.9145,-7.6504,-7.6634,-7.5914,-7.3862,-7.4043,-7.2082,-6.7522,-6.8435,-6.8435,-6.7522,-6.6312,-6.5844,-6.566,-6.3159,-5.9297,-5.4524,-5.4008,-5.1655,-4.8525,-5.273,-5.5381,-5.7191,-6.4586,-6.7874,-6.8725,-7.107,-7.1726,-7.108,0.0,0.0,0.0,0.0,0.0,0.0,0.0,0.0,0.0,0.0,0.0,0.0,0.0,0.0,0.0,0.0,0.0,0.0,0.0,0.0,-3.0414,-3.2253,-3.0229,-2.9327,-2.9905,-2.9829,-3.0583,-3.2215,-3.2867,-3.4244,-3.6201,-3.8315,-3.9592,-4.0134,-4.0558,-4.0502,-4.004,-3.8713,-3.813,-3.8139,-3.7342,0.0,0.0,0.0,0.0,0.0,0.0,0.0,0.0,-3.2454,-3.1012,-2.9572,-2.8911,0.0,0.0,0.0,0.0,0.0,-3.07,-3.2409,-3.3994,-3.6603,-3.7588,-3.8015,-3.8015,0.0,0.0,0.0,0.0,0.0,0.0,0.0,0.0,0.0,0.0,0.0,0.0,0.0,0.0,0.0,0.0,0.0,0.0,0.0,0.0,0.0,-8.1547,-7.9452,-7.7134,-7.6963,-7.6694,-7.6066,-7.5757,-7.272,-6.6578,-6.8366,-6.8284,-6.6312,-6.6,-6.5844,-6.566,-6.3159,-5.9297,-5.4524,-5.4008,-5.2053,-4.9443,-5.3086,-5.5702,-5.8116,-6.3535,-6.6081,-6.6899,-6.8643,-6.8374,-6.6646,0.0,0.0,0.0,0.0,0.0,0.0,0.0,0.0,0.0,0.0,0.0,0.0,0.0,0.0,0.0,0.0,0.0,0.0,0.0,-3.0422,-3.058,-3.1362,-3.0266,-2.993,-3.0482,-3.003,-3.0583,-3.2215,-3.3269,-3.4413,-3.5704,-3.9536,-4.1824,-4.2733,-4.2264,-4.0926,-3.9054,-3.9225,-3.8025,-3.6052,-3.6306,0.0,0.0,0.0,0.0,0.0,0.0,0.0,0.0,-3.103,-3.0218,-2.9471,-2.7843,0.0,0.0,0.0,0.0,0.0,-2.9994,-3.252,-3.4946,-3.6801,-3.7588,-3.8015,-3.8015,-3.7939,0.0,0.0,0.0,0.0,0.0,0.0,0.0,0.0,0.0,0.0,0.0,0.0,0.0,0.0,0.0,0.0,0.0,0.0,0.0,0.0,-8.2301,-8.0188,-7.7824,-7.7652,-7.7352,-7.6694,-7.501,-7.2666,-6.9944,-7.0882,-7.0374,-6.8435,-6.6597,-6.5844,-6.566,-6.3159,-5.9297,-5.4524,-5.403,-5.1252,-4.7678,-5.1998,-5.4558,-5.6175,-6.2567,-6.5474,-6.6028,-6.6846,-6.5864,-6.307,0.0,0.0,0.0,0.0,0.0,0.0,0.0,0.0,0.0,0.0,0.0,0.0,0.0,0.0,0.0,0.0,0.0,0.0,-2.9258,-2.9243,-2.9648,-3.083,-3.0163,-3.0055,-3.0608,-3.0934,-3.1763,-3.3119,-3.455,-3.5655,-3.6528,-3.9623,-4.1592,-4.2356,-4.1712,-4.0829,-3.9693,-3.8393,-3.725,-3.635,0.0,0.0,0.0,0.0,0.0,0.0,0.0,0.0,0.0,0.0,-2.9076,-2.8729,-2.7708,0.0,0.0,0.0,0.0,0.0,-2.9725,-3.2093,-3.4325,-3.6102,-3.8516,-4.0426,-4.0456,-4.0516,0.0,0.0,0.0,0.0,0.0,0.0,0.0,0.0,0.0,0.0,0.0,0.0,0.0,0.0,0.0,0.0,0.0,0.0,0.0,-8.2887,-8.1787,-8.0495,-7.8483,-7.7238,-7.633,-7.5685,-7.3649,-7.1324,-6.8966,-6.9334,-6.8307,-6.6055,-6.4786,-6.4177,-6.4177,-6.2704,-5.9297,-5.4524,-5.403,-5.1676,-4.8617,-5.0847,-5.3548,-5.6535,-6.0228,-6.2451,-6.3632,-6.296,-6.1419,-5.8921,0.0,0.0,0.0,0.0,0.0,0.0,0.0,0.0,0.0,0.0,0.0,0.0,0.0,0.0,0.0,0.0,0.0,-2.6402,-2.7457,-2.7755,-2.8624,-3.0156,-2.9866,-3.0214,-3.1361,-3.1938,-3.3018,-3.4675,-3.5931,-3.7076,-3.812,-3.9413,-4.0475,-4.1224,-4.0513,-3.9978,-3.9478,-3.7537,-3.6708,-3.6715,0.0,0.0,0.0,0.0,0.0,0.0,0.0,0.0,0.0,0.0,0.0,0.0,0.0,0.0,0.0,-2.7493,-2.75,-2.7668,-2.9452,-3.1441,-3.3443,-3.5435,-3.8716,-4.1913,-4.2928,-4.3287,0.0,0.0,0.0,0.0,0.0,0.0,0.0,0.0,0.0,0.0,0.0,0.0,0.0,0.0,0.0,0.0,0.0,0.0,0.0,-8.1466,-8.0464,-7.9436,-7.812,-7.5935,-7.4469,-7.4184,-7.1962,-6.9826,-6.7981,-6.7363,-6.5883,-6.3676,-6.3249,-6.2948,-6.2822,-6.2245,-5.937,-5.4682,-5.4042,-5.2037,-4.897,-5.0115,-5.2468,-5.5904,-5.7834,-5.9825,-6.1194,-5.9188,-5.732,-5.518,0.0,0.0,0.0,0.0,0.0,0.0,0.0,0.0,0.0,0.0,0.0,0.0,0.0,0.0,0.0,0.0,-2.4078,-2.4843,-2.5874,-2.6856,-2.7863,-2.8975,-2.931,-3.0724,-3.3621,-3.2717,-3.3771,-3.6935,-3.7061,-3.8319,-4.0491,-3.9018,-3.8944,-4.009,-3.9393,-3.8218,-3.6844,-3.7643,-3.7105,-3.5672,-3.6225,0.0,0.0,0.0,0.0,0.0,0.0,0.0,0.0,0.0,0.0,0.0,0.0,0.0,-2.6334,-2.7439,-2.793,-2.8301,-2.8859,-3.0452,-3.2683,-3.4955,-3.7388,0.0,-4.4334,-4.5234,0.0,-4.9241,0.0,0.0,0.0,0.0,0.0,0.0,0.0,0.0,0.0,0.0,0.0,0.0,0.0,0.0,0.0,0.0,-8.2192,-8.0513,-7.7729,-7.5901,-7.5779,-7.3198,-7.2055,-7.2581,-6.9992,-6.8667,-6.9169,-6.6759,-6.4874,-6.3701,-6.3651,-6.335,-6.2822,-6.2245,-5.9563,-5.5176,-5.4557,-5.153,-4.7248,-4.9898,-5.1113,-5.2023,-5.6613,-5.8998,-5.9259,-5.6896,-5.4675,-5.2429,0.0,0.0,0.0,0.0,0.0,0.0,0.0,0.0,0.0,0.0,0.0,-2.3301,-2.3127,0.0,0.0,0.0,-2.4078,-2.4588,-2.5584,-2.605,-2.6714,-2.787,-2.7741,-2.8734,-3.1305,-3.1926,-3.3068,-3.4965,-3.6261,-3.7518,-3.8518,-3.824,-3.798,-3.7785,-3.7569,-3.731,-3.6946,-3.6612,-3.637,-3.6107,-3.6659,-3.6659,0.0,0.0,0.0,0.0,0.0,0.0,0.0,0.0,-2.4329,-2.4456,-2.5198,-2.5922,-2.6807,-2.7824,-2.7988,-2.7988,-2.8418,-3.0618,-3.3011,-3.4256,0.0,0.0,0.0,-4.8246,-4.9898,-5.2849,-5.4136,0.0,0.0,0.0,0.0,0.0,0.0,0.0,0.0,0.0,0.0,0.0,0.0,0.0,0.0,0.0,-8.0081,-7.7555,-7.6354,-7.5164,-7.4294,-7.1683,-7.034,-7.093,-6.8331,-6.6847,-6.6861,-6.5867,-6.4756,-6.3701,-6.3701,-6.34,-6.2822,-6.2621,-5.9878,-5.5244,-5.4938,-5.2021,-4.7344,-4.8355,-4.9637,-5.1545,-5.6445,-5.9712,-6.1242,-5.8799,-5.7412,-5.6355,0.0,0.0,0.0,0.0,0.0,0.0,0.0,0.0,-2.1085,0.0,0.0,0.0,0.0,-2.2358,0.0,0.0,-2.3423,-2.3845,-2.4792,-2.5201,-2.576,-2.6707,-2.6147,-2.654,-2.8239,-2.9048,-3.087,-3.3563,-3.5549,-3.6642,-3.691,-3.697,-3.6727,-3.6155,-3.5878,-3.6025,-3.6664,-3.5897,-3.5655,-3.5881,-3.6433,-3.6433,0.0,0.0,0.0,0.0,0.0,0.0,0.0,0.0,-2.3207,-2.3565,-2.4351,-2.5491,-2.6683,-2.7805,-2.7793,-2.7643,-2.8476,-3.0349,-3.2574,0.0,0.0,0.0,-4.9104,-5.157,-5.3405,-5.7464,-5.886,0.0,0.0,0.0,0.0,0.0,0.0,0.0,0.0,0.0,0.0,0.0,0.0,0.0,0.0,-7.9298,-7.7921,-7.5462,-7.4237,-7.3118,-7.2123,-6.9677,-6.8513,-6.8903,-6.6942,-6.566,-6.5283,-6.5107,-6.458,-6.3701,-6.3701,-6.34,-6.2822,-6.2647,-5.9926,-5.5244,-5.496,-5.2149,-4.7598,-4.7715,-4.9567,-5.2822,-5.7083,-6.0047,-6.1432,-5.9835,-5.8799,-5.7925,0.0,0.0,0.0,0.0,0.0,0.0,0.0,0.0,-2.0445,-1.9918,-2.031,0.0,0.0,0.0,0.0,0.0,-2.1641,-2.2267,-2.3262,-2.42,-2.4997,-2.5583,-2.4723,-2.4453,-2.4863,-2.405,-2.6793,-3.3481,-3.5113,-3.606,-3.6307,-3.5228,-3.4911,-3.5386,-3.4399,-3.45,-3.5529,-3.5529,-3.5228,-3.4776,-3.5328,-3.5554,-3.5176,0.0,0.0,0.0,0.0,0.0,0.0,0.0,-2.137,-2.0438,-2.1908,-2.3756,-2.577,-2.7218,-2.7363,-2.7416,-2.9023,-2.9758,0.0,0.0,0.0,0.0,0.0,0.0,0.0,0.0,0.0,-6.2755,-6.4721,0.0,0.0,0.0,0.0,0.0,0.0,0.0,0.0,0.0,0.0,0.0,0.0,-7.6124,-7.5369,-7.4764,-7.1356,-6.9274,-6.9301,-6.723,-6.6112,-6.6112,-6.5584,-6.5283,-6.5283,-6.4731,-6.4203,-6.3676,-6.3676,-6.3375,-6.2797,-6.2245,-5.9563,-5.5221,-5.4602,-5.185,-4.7598,-4.8027,-5.1253,-5.603,-5.8436,-5.9307,-5.9307,-5.9307,-5.7949,-5.5879,0.0,0.0,0.0,0.0,0.0,0.0,0.0,0.0,-1.9304,-1.8119,-1.8561,0.0,0.0,0.0,0.0,0.0,0.0,0.0,-2.1844,-2.1405,-2.1548,-2.2573,-2.15,-2.139,-2.2335,-2.2739,-2.5301,-3.0216,-3.1377,-3.2163,-3.2555,-3.2181,-3.2205,-3.2502,-3.2846,-3.3588,-3.4424,-3.5228,-3.5454,-3.5328,-3.5479,-3.5554,-3.5294,0.0,0.0,0.0,0.0,0.0,0.0,0.0,0.0,0.0,-2.3458,-2.5051,-2.671,-2.7474,-2.7773,-2.8246,-2.9684,-3.1073,0.0,0.0,0.0,0.0,0.0,0.0,0.0,0.0,0.0,0.0,0.0,0.0,0.0,0.0,0.0,0.0,0.0,0.0,0.0,0.0,0.0,0.0,0.0,-7.5091,-7.3841,-7.1064,-6.9988,-6.8847,-6.7647,-6.6657,-6.6287,-6.6714,-6.5785,-6.5107,-6.4705,-6.4178,-6.3626,-6.3099,-6.3099,-6.2797,-6.2245,-6.2069,-6.0237,-5.6958,-5.6817,-5.5053,-5.2218,-5.2865,-5.504,-5.8266,-5.8969,-6.0362,-6.1763,-6.1763,-6.1267,-6.0744,0.0,0.0,0.0,0.0,0.0,0.0,-1.9605,-1.9461,-1.8962,-1.8115,-1.8583,-1.8729,0.0,0.0,0.0,0.0,0.0,0.0,-2.1248,-2.0206,-1.9861,-2.0567,-1.9405,-1.8983,-1.9426,-2.0545,-2.2652,-2.5737,-2.8087,-2.971,-3.0503,-3.1361,-3.1903,-3.2289,-3.3615,-3.4416,-3.4926,-3.5579,-3.5629,-3.5228,-3.5454,-3.5403,-3.4969,0.0,0.0,0.0,0.0,0.0,0.0,0.0,0.0,0.0,-2.3971,-2.5376,-2.7133,-2.7702,-2.8106,-2.8655,-3.0708,0.0,0.0,0.0,0.0,0.0,0.0,0.0,0.0,0.0,0.0,0.0,0.0,0.0,0.0,0.0,0.0,0.0,0.0,0.0,0.0,0.0,0.0,0.0,0.0,-7.2904,-7.1508,-6.9095,-6.8159,-6.726,-6.6132,-6.4753,-6.4161,-6.4679,-6.3669,-6.3055,-6.2711,-6.3103,-6.3174,-6.2822,-6.2822,-6.2546,-6.1994,-6.1768,-6.0415,-5.807,-5.7028,-5.5855,-5.4714,-5.6063,-5.7647,-5.9307,-6.0362,-6.1598,-6.2822,-6.2822,-6.2822,-6.2822,0.0,0.0,-1.8184,-1.8574,0.0,0.0,-1.9277,-1.9375,-1.9394,-1.9282,-1.9558,-1.9412,0.0,0.0,0.0,0.0,0.0,0.0,-2.0891,-1.9844,-1.9222,-1.9314,-1.8319,-1.7494,-1.7004,-1.8174,-1.9583,-2.1047,-2.5254,-2.7942,-2.9282,-3.1623,-3.3054,-3.3553,-3.5445,-3.6238,-3.6207,-3.6257,-3.568,-3.4776,-3.5278,-3.5177,-3.456,-3.2883,0.0,0.0,0.0,0.0,0.0,0.0,0.0,0.0,-2.3881,-2.5271,-2.7137,-2.7873,-2.814,-2.8924,-3.2039,0.0,0.0,0.0,0.0,0.0,0.0,0.0,0.0,0.0,0.0,0.0,0.0,0.0,0.0,0.0,0.0,0.0,0.0,0.0,0.0,0.0,0.0,0.0,0.0,-7.0045,-6.9037,-6.813,-6.6194,-6.4693,-6.4144,-6.1958,-6.0726,-6.0726,-6.04,-6.0115,-6.0115,-6.1893,-6.2822,-6.2822,-6.2822,-6.2571,-6.2069,-6.1517,-6.0453,-5.883,-5.6752,-5.5734,-5.5995,-5.8516,-5.9619,-5.9835,-6.1952,-6.2822,-6.2822,-6.2822,-6.2822,-6.2822,0.0,0.0,-1.8535,-1.8543,0.0,0.0,-1.9766,-2.0059,-1.9927,-1.8824,-1.8985,-1.8704,-1.7354,-1.7661,0.0,-1.8769,0.0,0.0,0.0,-1.7311,-1.703,-1.8041,-1.787,-1.8117,-1.8893,-1.8254,-1.9034,-2.1207,-2.3278,-2.4851,-2.6141,-2.8796,-3.063,-3.1677,-3.4264,-3.5281,-3.5102,-3.5529,-3.5328,-3.4726,-3.4851,-3.4826,-3.456,-3.3831,-3.2601,0.0,0.0,0.0,0.0,0.0,0.0,0.0,-2.5217,-2.6109,-2.6992,-2.7199,-2.7944,-2.9331,0.0,0.0,0.0,0.0,0.0,0.0,0.0,0.0,0.0,0.0,0.0,0.0,0.0,0.0,0.0,0.0,0.0,0.0,0.0,0.0,0.0,0.0,0.0,0.0,0.0,-6.9285,-6.822,-6.5492,-6.3571,-6.2341,-6.181,-5.9459,-5.8202,-5.8202,-5.9491,-6.0115,-6.0115,-6.1893,-6.2822,-6.2822,-6.2822,-6.2772,-6.2621,-6.2069,-6.1482,-6.0676,-6.0168,-6.0228,-6.0621,-6.1258,-6.1744,-6.2117,-6.2659,-6.2822,-6.2822,-6.2822,-6.2822,-6.2822,0.0,0.0,0.0,0.0,0.0,0.0,0.0,0.0,-2.155,-2.0305,-1.9732,-1.9018,-1.7746,-1.7038,0.0,0.0,0.0,0.0,0.0,-1.5589,-1.5425,-1.6763,-1.6763,-1.7404,-1.8596,-1.7404,-1.8041,-2.0477,-2.1369,-2.2721,-2.46,-2.8684,-3.1086,-3.2171,-3.5226,-3.6183,-3.5529,-3.5805,-3.5604,-3.5127,-3.5403,-3.5203,-3.47,-3.4399,-3.3419,-3.2016,-3.1089,0.0,0.0,0.0,0.0,0.0,0.0,0.0,-2.6761,-2.7122,-2.8411,-3.0319,0.0,0.0,0.0,0.0,0.0,0.0,0.0,0.0,0.0,0.0,0.0,0.0,0.0,0.0,0.0,0.0,0.0,0.0,0.0,0.0,0.0,0.0,0.0,0.0,0.0,-6.7131,-6.6528,-6.4345,-6.2203,-6.071,-6.0163,-5.697,-5.502,-5.502,-5.7072,-5.8171,-5.8171,-6.1223,-6.2822,-6.2822,-6.2822,-6.2822,-6.2822,-6.2521,-6.2094,-6.1592,-6.1843,-6.2144,-6.2395,-6.2395,-6.2571,-6.2822,-6.2822,-6.2822,-6.2822,-6.2822,-6.2822,-6.2822,0.0,0.0,0.0,0.0,0.0,0.0,0.0,0.0,0.0,-2.204,-2.1006,-1.9876,-1.8493,-1.704,-1.5792,0.0,0.0,0.0,0.0,0.0,0.0,-1.5439,-1.5913,-1.6763,-1.7963,-1.6936,-1.7606,-1.9962,-2.0315,-2.1917,-2.4721,-2.9728,-3.2574,-3.3434,-3.6648,-3.7437,-3.6483,-3.6207,-3.5805,-3.5429,-3.578,-3.5403,-3.4575,-3.4575,-3.3947,-3.2871,-3.1568,-3.0279,-2.9034,-2.7381,0.0,0.0,0.0,0.0,-2.6705,-2.7469,-2.9124,-3.1004,0.0,0.0,0.0,0.0,0.0,0.0,0.0,0.0,0.0,0.0,0.0,0.0,0.0,0.0,0.0,0.0,0.0,0.0,0.0,0.0,0.0,0.0,0.0,0.0,0.0,-6.4831,-6.4512,-6.3078,-6.0772,-5.9171,-5.8119,-5.4103,-5.1847,-5.1847,-5.4477,-5.5879,-5.5879,-6.0553,-6.2822,-6.2822,-6.2822,-6.2722,-6.2546,-6.2647,-6.2446,-6.2019,-6.2496,-6.2697,-6.2697,-6.2797,-6.2822,-6.2822,-6.2822,-6.2822,-6.2822,-6.2822,-6.2822,-6.2822,0.0,0.0,0.0,0.0,0.0,0.0,0.0,0.0,0.0,0.0,-2.1709,-2.0838,-1.8682,-1.7258,-1.5683,-1.3821,-1.2411,-1.1847,-1.2404,0.0,0.0,-1.4172,-1.6264,-1.8041,-1.9222,-1.9131,-1.9829,-2.166,-2.2053,-2.4017,-2.7326,-3.0568,-3.2755,-3.4012,-3.6819,-3.7663,-3.6985,-3.5554,-3.4901,-3.4801,-3.4399,-3.4148,-3.3997,-3.3997,-3.3621,-3.2821,-3.1158,-2.9834,-2.8679,-2.7162,-2.6283,0.0,0.0,0.0,-2.7038,-2.7827,-2.8718,-3.0232,0.0,0.0,0.0,0.0,0.0,0.0,0.0,0.0,0.0,0.0,0.0,0.0,0.0,0.0,0.0,0.0,0.0,0.0,0.0,0.0,0.0,0.0,0.0,0.0,0.0,-6.4279,-6.3216,-6.0195,-5.8264,-5.602,-5.3437,-5.0782,-4.938,-4.938,-5.3615,-5.5879,-5.5879,-6.0553,-6.2822,-6.2822,-6.2822,-6.232,-6.1416,-6.1893,-6.2069,-6.1994,-6.2094,-6.2119,-6.2144,-6.2621,-6.2822,-6.2822,-6.2822,-6.2822,-6.2822,-6.2822,-6.2822,-6.2822,0.0,0.0,0.0,0.0,0.0,0.0,0.0,0.0,0.0,0.0,0.0,-2.1864,-2.0079,-1.6818,-1.4251,-1.2723,-1.0628,-0.979,-1.0769,-1.2716,-1.3872,-1.3872,-1.6358,-1.8226,-1.9497,-1.9497,-2.032,-2.2025,-2.2423,-2.4336,-2.7937,-3.2298,-3.5182,-3.6838,-3.8007,-3.8366,-3.799,-3.6006,-3.5002,-3.4726,-3.4801,-3.465,-3.4324,-3.4022,-3.3746,-3.3321,-3.1769,-3.051,-2.9301,-2.8019,-2.7593,-2.7317,-2.6074,0.0,0.0,0.0,-2.9311,0.0,0.0,0.0,0.0,0.0,0.0,0.0,0.0,0.0,0.0,0.0,0.0,0.0,0.0,0.0,0.0,0.0,0.0,0.0,0.0,0.0,0.0,0.0,0.0,0.0,0.0,-6.3425,-6.2324,-5.9117,-5.6758,-5.4409,-5.1787,-4.9532,-4.865,-5.005,-5.356,-5.6119,-5.7337,-6.093,-6.2672,-6.237,-6.237,-6.1943,-6.1165,-6.0788,-6.0939,-6.1542,-6.1542,-6.1542,-6.1567,-6.1818,-6.1893,-6.1943,-6.2245,-6.237,-6.2395,-6.2722,-6.2822,-6.2822,0.0,0.0,0.0,0.0,0.0,0.0,0.0,0.0,0.0,0.0,0.0,-2.2465,-2.082,0.0,0.0,0.0,-0.9381,-0.83,-0.9402,-1.1648,-1.3006,-1.3392,-1.5859,-1.7933,-1.9497,-1.977,-2.0828,-2.2631,-2.2945,-2.508,-2.9047,-3.3939,-3.7655,-4.0275,-4.0158,-3.9898,-3.9346,-3.7111,-3.6107,-3.5931,-3.5353,-3.4876,-3.4474,-3.4048,-3.3822,-3.3545,-3.2491,-3.146,-3.0345,-2.9245,-2.9223,-2.9381,-2.7606,-2.853,0.0,0.0,0.0,0.0,0.0,0.0,0.0,0.0,0.0,0.0,0.0,0.0,0.0,0.0,0.0,0.0,0.0,0.0,0.0,0.0,0.0,0.0,0.0,0.0,0.0,0.0,0.0,0.0,0.0,0.0,-6.0922,-5.8163,-5.5587,-5.3027,-5.0818,-4.8959,-4.8823,-5.0638,-5.3853,-5.6498,-5.8332,-6.0834,-6.1918,-6.1366,-6.1366,-6.0939,-6.0111,-5.9558,-5.9608,-6.0161,-6.0563,-6.0839,-6.0964,-6.1115,-6.119,-6.1215,-6.1642,-6.1793,-6.1843,-6.227,-6.2395,-6.2421,0.0,0.0,0.0,0.0,0.0,0.0,0.0,0.0,0.0,0.0,0.0,-2.2227,-1.9844,-1.7121,-1.4477,-1.2124,-0.9501,-0.8031,-0.8137,-0.941,-1.0779,-1.195,-1.4398,0.0,-1.9497,-2.0657,-2.2224,-2.4283,-2.4322,-2.6929,-3.2012,-3.5255,-3.9243,-4.3826,-4.3626,-4.2685,-4.1078,-3.8818,-3.8492,-3.912,-3.5454,-3.3972,-3.3947,-3.3897,-3.3571,-3.3158,-3.2895,-3.2459,-3.192,-3.1149,-3.1166,-3.1479,-3.0868,-3.083,-3.114,0.0,0.0,0.0,0.0,0.0,0.0,0.0,0.0,0.0,0.0,0.0,0.0,0.0,0.0,0.0,0.0,0.0,0.0,0.0,0.0,0.0,0.0,0.0,0.0,0.0,0.0,0.0,0.0,0.0,-5.9217,-5.6358,-5.4161,-5.2015,-4.9679,-4.9338,-4.9547,-5.0136,-5.4562,-5.7146,-5.7785,-5.9527,-6.0161,-5.9633,-5.9633,-5.878,-5.7273,-5.8303,-5.8202,-5.7349,-5.8905,-5.9885,-6.0412,-6.0964,-6.119,-6.119,-6.1215,-6.1215,-6.124,-6.1266,-6.1266,-6.1341,0.0,0.0,0.0,0.0,0.0,0.0,0.0,0.0,0.0,0.0,0.0,0.0,0.0,-1.7552,-1.4596,-1.2124,-1.0288,-0.9312,-0.9312,-1.1258,-1.2716,-1.3199,-1.5576,-1.7732,-1.9497,-2.0657,-2.2203,-2.4004,-2.4004,-2.582,-2.9407,-3.3791,-3.6837,-3.8567,-4.146,-4.2811,-4.266,-3.8642,-3.7186,-3.7337,-3.4876,-3.4324,-3.4801,-3.337,-3.337,-3.3945,-3.2659,0.0,-3.2913,-3.215,-3.2727,-3.3668,-3.2347,-3.2858,-3.3926,-3.4047,-3.4736,0.0,0.0,0.0,0.0,0.0,0.0,0.0,0.0,0.0,0.0,0.0,0.0,0.0,0.0,0.0,0.0,0.0,0.0,0.0,0.0,0.0,0.0,0.0,0.0,0.0,0.0,0.0,0.0,-5.574,-5.4592,-5.2811,-5.0218,-5.0339,-5.1264,-5.2399,-5.4667,-5.6756,-5.8261,-5.8893,-5.8805,-5.7926,-5.7926,-5.7424,-5.652,-5.657,-5.657,-5.652,-5.6746,-5.7575,-5.8755,-5.8579,-5.8956,-5.9633,-5.996,-6.0311,-6.0663,-6.104,-6.119,-6.1215,0.0,0.0,0.0,0.0,0.0,-2.2379,-2.3227,-2.3821,-2.4108,-2.3906,0.0,0.0,0.0,0.0,-1.5068,-1.2124,-1.117,-1.0681,-1.0681,-1.2231,-1.3392,-1.3872,-1.5494,-1.7375,-1.9497,-2.0417,-2.188,-2.4004,-2.4004,-2.5332,-2.7996,-3.2301,-3.488,-3.6004,-3.916,-4.1929,-4.3908,-3.9979,-3.8488,-3.8472,-3.5587,-3.5249,-3.6299,-3.4754,-3.4869,-3.5825,0.0,0.0,0.0,-3.4438,-3.5356,-3.6518,-3.5065,-3.5306,-3.5956,-3.5228,-3.5378,-3.5981,-3.6709,0.0,0.0,0.0,0.0,0.0,0.0,0.0,0.0,0.0,0.0,0.0,0.0,0.0,0.0,0.0,0.0,0.0,0.0,0.0,0.0,0.0,0.0,0.0,0.0,0.0,0.0,-5.5266,-5.4119,0.0,-5.0916,-5.1058,-5.2256,-5.4292,-5.5162,-5.6412,-5.7876,-5.7675,-5.7198,-5.647,-5.6294,-5.5917,-5.5365,-5.5189,-5.5214,-5.534,-5.4988,-5.5892,-5.7575,-5.7198,-5.76,-5.8504,-5.9031,-5.9458,-5.9859,-6.0412,-6.0738,-6.0914,0.0,0.0,-2.1523,-2.2344,-2.25,-2.2656,-2.3066,-2.3125,-2.3144,-2.3212,0.0,0.0,0.0,0.0,0.0,-1.2242,-1.196,-1.196,-1.195,-1.195,-1.2619,-1.3872,-1.398,-1.5765,-1.9422,-1.9953,-2.152,-2.4394,-2.4394,-2.5781,-2.8337,-3.0852,-3.3731,-3.6748,-3.7059,-4.003,-4.4623,-4.2786,-4.2358,-4.2577,0.0,-3.6662,-3.8383,-3.8095,0.0,0.0,-3.942,-3.9102,0.0,-3.8304,0.0,0.0,-3.9188,-3.8093,-3.6985,-3.5906,-3.5956,-3.6383,0.0,0.0,0.0,0.0,0.0,0.0,0.0,0.0,0.0,0.0,0.0,0.0,0.0,0.0,0.0,0.0,0.0,0.0,0.0,0.0,0.0,0.0,0.0,0.0,0.0,0.0,0.0,-5.4612,-5.2719,-5.1507,-5.1483,-5.1483,-5.2647,-5.534,-5.5892,-5.6143,-5.6143,-5.5616,-5.534,-5.5315,-5.4762,-5.421,-5.3708,-5.426,-5.421,-5.3683,-5.3683,-5.4913,-5.6922,-5.6947,-5.7323,-5.7901,-5.8453,-5.8704,-5.878,-5.9282,-5.9834,-6.0387,0.0,-2.1484,-2.1777,-2.2012,-2.2305,-2.2794,-2.3719,-2.4176,-2.4638,0.0,0.0,0.0,-2.2617,-1.9368,-1.5892,-1.261,-1.3325,-1.3777,-1.3414,-1.4172,-1.4854,-1.5248,-1.647,-1.7998,-1.9876,-2.1181,-2.2982,-2.5091,-2.5091,-2.5743,-2.7079,-3.0147,-3.2253,-3.3593,-3.6086,-3.8518,-4.0562,-3.7891,0.0,-3.9242,-3.7157,-3.7821,0.0,0.0,0.0,0.0,0.0,-4.1677,-4.2873,0.0,-4.2692,-4.2857,-4.0401,-3.8497,-3.7136,-3.681,-3.6835,-3.686,-3.6458,0.0,0.0,0.0,0.0,0.0,0.0,0.0,0.0,0.0,0.0,0.0,0.0,0.0,0.0,0.0,0.0,0.0,0.0,0.0,0.0,0.0,0.0,0.0,0.0,0.0,0.0,0.0,-5.411,-5.3459,-5.3063,-5.3038,-5.3594,-5.4762,-5.4938,-5.4813,-5.4411,-5.4235,-5.3984,-5.3607,-5.3457,-5.3306,-5.3155,-5.3306,-5.3281,-5.313,-5.313,-5.3708,-5.4662,-5.5064,-5.5817,-5.6721,-5.7273,-5.8001,-5.873,-5.888,-5.9533,-6.0337,-2.1433,-2.2367,-2.2917,-2.3099,-2.3906,-2.4703,-2.5355,-2.5912,-2.6387,0.0,0.0,0.0,-2.3357,-2.0297,-1.7157,-1.4319,-1.491,-1.522,-1.4688,-1.5543,-1.6293,-1.6852,-1.7905,-1.9319,-2.1105,-2.2793,-2.4302,-2.5706,-2.6427,-2.6889,-2.711,-2.9582,-3.1041,-3.1615,-3.4049,-3.5658,-3.6508,-3.4781,0.0,0.0,-3.7832,0.0,0.0,-4.2261,-4.3462,0.0,0.0,0.0,-4.6923,-4.5694,-4.5383,0.0,0.0,-4.0521,-3.9285,-3.86,-3.8332,-3.8185,-3.7329,-3.6456,-3.5473,-3.4351,0.0,0.0,-3.1876,-3.2336,0.0,0.0,0.0,0.0,0.0,0.0,0.0,0.0,0.0,0.0,0.0,0.0,0.0,0.0,0.0,0.0,0.0,-5.3758,-5.3884,-5.3884,-5.3884,-5.3733,-5.3406,-5.3381,-5.3532,-5.3858,-5.3658,-5.3381,-5.303,-5.2804,-5.2653,-5.2578,-5.2578,-5.2703,-5.2929,-5.2929,-5.2929,-5.2929,-5.2929,-5.3105,-5.3406,-5.3984,-5.4863,-5.5942,-5.6721,-5.7575,-5.8428,-5.888,-5.9583,-6.0362,0.0,-2.368,-2.4575,-2.4978,-2.6275,-2.7392,-2.7544,-2.8077,-2.8482,0.0,-2.8646,-2.7212,-2.3392,-2.1562,-1.9592,-1.7021,-1.6531,-1.637,-1.613,-1.6359,-1.7175,-1.851,-1.9008,-2.0346,-2.2848,-2.4504,-2.5695,-2.6462,-2.8188,-2.8763,-2.8196,-2.9447,-3.0289,-3.0807,-3.1769,-3.2541,-3.3068,-3.3068,-3.4992,-3.8076,-3.9146,-4.1377,0.0,0.0,-4.79,-4.9444,-4.8816,-4.9461,-5.0452,-4.8595,-4.7427,0.0,0.0,-4.3324,-4.2213,-4.0535,-3.997,-3.9564,-3.8162,-3.6002,-3.4477,-3.5555,-3.2922,0.0,-3.353,-3.2552,-3.1564,0.0,0.0,0.0,0.0,0.0,0.0,0.0,0.0,0.0,0.0,0.0,0.0,0.0,0.0,0.0,-5.1825,-5.2327,-5.2653,-5.2653,-5.2703,-5.2754,-5.2754,-5.2754,-5.2754,-5.2754,-5.2277,-5.2026,-5.2026,-5.1523,-5.1523,-5.2026,-5.2026,-5.2277,-5.2754,-5.2804,-5.2829,-5.2829,-5.2904,-5.2929,-5.2955,-5.3432,-5.4235,-5.5315,-5.642,-5.7248,-5.7926,-5.8956,-5.9734,-6.0412,-2.3764,-2.5074,-2.6124,-2.613,-2.6802,-2.7759,-2.9127,-3.0094,-3.1042,-3.1994,-3.2058,-3.0665,-2.7161,-2.5356,-2.3148,-2.0,-1.8282,-1.7599,-1.8116,-1.8228,-1.8844,-2.0279,-2.161,-2.3135,-2.4598,-2.6202,-2.7726,-2.8889,-2.9659,-3.0048,-3.0114,-3.1224,-3.1754,-3.1878,-3.2131,-3.2541,-3.3068,-3.3068,0.0,-3.6293,-3.953,0.0,-4.6003,-4.8477,-5.0041,-5.0882,-5.1216,-5.226,-5.3268,-5.181,-4.9809,-4.7701,0.0,0.0,0.0,-4.0813,-4.0245,-3.9277,-3.692,-3.6422,-3.5987,-3.3181,-3.2692,0.0,-3.0883,-3.0777,-3.1172,0.0,0.0,0.0,0.0,0.0,0.0,0.0,0.0,0.0,0.0,0.0,0.0,0.0,0.0,0.0,-5.0092,-5.0569,-5.0921,-5.0921,-5.1348,-5.1599,-5.1599,-5.1599,-5.1599,-5.1599,-5.1498,-5.1448,-5.1448,-5.1348,-5.1348,-5.1448,-5.1448,-5.1498,-5.1624,-5.2076,-5.2277,-5.2302,-5.2729,-5.2929,-5.2929,-5.303,-5.3457,-5.4135,-5.5265,-5.6319,-5.7273,-5.7951,-5.9106,-6.0412,-2.5322,-2.6386,-2.7279,-2.7279,-2.8422,-2.9714,-3.0856,-3.1938,-3.3054,-3.4148,-3.4335,-3.3198,-3.007,-2.8859,-2.6636,-2.2554,-2.1253,-2.0748,-2.0633,-2.0216,-2.1075,-2.3786,-2.424,-2.5254,-2.721,-2.8379,-2.9327,-2.9972,-3.0568,-3.0807,-3.0479,-3.1076,-3.1064,-3.0548,-3.0723,-3.1192,-3.1896,-3.2435,-3.4219,-3.7148,-4.036,0.0,-4.6206,-4.9097,-5.1259,-5.2695,-5.2695,-5.3563,-5.4431,-5.2755,-5.1565,0.0,-4.811,-4.6687,-4.5573,0.0,-4.2128,-4.0369,-3.7442,-3.5987,-3.4781,-3.3098,-3.2964,0.0,0.0,-3.2385,-3.258,0.0,0.0,0.0,0.0,0.0,0.0,0.0,0.0,0.0,0.0,0.0,0.0,0.0,0.0,0.0,-4.7958,-4.8962,-4.9715,-4.9992,-5.0268,-5.0444,-5.0444,-5.0444,-5.0444,-5.0444,-5.0167,-5.0017,-5.0017,-4.9741,-4.9891,-5.0444,-5.0444,-5.0745,-5.1297,-5.1574,-5.185,-5.2126,-5.2402,-5.2079,-5.1583,-5.2491,-5.2476,-5.2073,-5.4227,-5.5641,-5.6721,-5.7575,-5.8579,-5.9633,-2.6803,-2.7683,-2.8426,-2.8426,-2.9973,-3.1461,-3.2114,-3.3139,-3.4426,-3.578,-3.6308,-3.5709,-3.3412,-3.2499,-3.0643,-2.7082,-2.545,-2.4737,-2.5263,-2.3555,-2.407,-2.758,-2.6806,-2.7317,-2.9534,-3.0127,-3.0477,-3.0553,-3.1274,-3.1058,-3.0153,-3.0462,-3.001,-2.9147,-2.9443,-3.0248,-3.143,0.0,0.0,-3.8503,0.0,-4.356,-4.5783,-4.8981,-5.1558,-5.3414,-5.3234,-5.3982,-5.47,-5.3104,-5.2738,-5.2612,-4.9975,-4.9284,0.0,0.0,0.0,0.0,-3.8371,-3.5825,-3.398,-3.3896,-3.3938,-3.418,0.0,0.0,0.0,0.0,0.0,0.0,0.0,0.0,0.0,0.0,0.0,0.0,0.0,0.0,0.0,0.0,0.0,0.0,-4.5266,-4.6831,-4.8083,-4.8761,-4.8812,-4.8862,-4.8962,-4.8962,-4.8962,-4.8962,-4.8535,-4.836,-4.846,-4.7983,-4.8259,-4.9264,-4.9264,-4.9661,-5.024,-5.034,-5.0603,-5.0788,-5.0911,-5.0652,-5.0127,-5.1747,-5.1607,-5.0813,-5.3396,-5.5013,-5.6043,-5.7148,-5.8001,-5.8704,-2.8084,-2.887,-2.9624,-2.9624,-3.0202,-3.1035,-3.2064,-3.3096,-3.4774,-3.7351,-3.871,-3.922,-3.8616,-3.6696,-3.584,-3.6892,-3.0944,-2.9285,-3.4462,-3.0054,-2.821,-3.0555,-2.9534,-2.9353,-3.0272,-3.0375,-3.0652,-3.1297,-3.183,-3.1033,-2.9083,-3.0486,-3.089,-3.0375,-3.0336,-3.1761,0.0,0.0,-3.6579,0.0,-4.2165,-4.4208,0.0,-4.8925,-5.0421,-5.09,-5.2576,-5.3683,-5.4299,0.0,-5.313,-5.2317,0.0,-4.9704,-4.667,-4.6863,0.0,0.0,0.0,0.0,0.0,0.0,-3.5746,-3.6729,0.0,0.0,-3.5512,-3.4854,0.0,0.0,0.0,0.0,0.0,0.0,0.0,0.0,0.0,0.0,0.0,0.0,0.0,0.0,0.0,-4.3251,-4.4794,-4.5874,-4.5949,-4.6175,-4.6652,-4.6677,-4.6677,-4.6677,-4.6627,-4.6828,-4.7305,-4.7255,-4.7506,-4.8109,-4.8109,-4.7626,-4.6634,-4.7064,-4.6993,-4.6416,-4.6848,-4.8187,-4.9961,-5.0269,-5.1163,-5.2679,-5.3418,-5.4185,-5.4888,-5.5993,-5.7072,-5.8152,-2.9184,-2.9443,-2.9804,-2.9804,-3.0507,-3.1311,-3.2089,-3.4819,-3.7335,-3.8938,-4.072,-4.2431,-4.3918,-4.2195,0.0,-4.1812,0.0,-3.5517,0.0,0.0,-3.281,-3.5162,-3.3394,-3.2754,-3.3411,-3.1734,-3.1342,-3.2365,-3.1245,-3.0109,-2.8856,-3.0114,-2.9764,-2.8165,-2.9509,0.0,-3.3302,0.0,0.0,0.0,0.0,0.0,0.0,-4.7997,-4.9823,-5.102,-5.2606,-5.3354,-5.3511,0.0,-5.2571,0.0,0.0,0.0,0.0,-4.5555,0.0,0.0,0.0,0.0,0.0,0.0,0.0,0.0,-3.763,0.0,-3.7652,0.0,0.0,0.0,0.0,0.0,0.0,0.0,-3.2333,0.0,0.0,0.0,0.0,0.0,0.0,0.0,0.0,-4.041,-4.1379,-4.2299,-4.1777,-4.1922,-4.3013,-4.3448,-4.3998,-4.4844,-4.5171,-4.5447,-4.5673,-4.6024,-4.5917,-4.5424,-4.5865,-4.5534,-4.4608,-4.4792,-4.5051,-4.5595,-4.5819,-4.6766,-4.8361,-4.9534,-5.041,-5.1327,-5.2715,-5.3582,-5.421,-5.5315,-5.6445,-5.7549,-2.9804,-2.9804,-2.9804,-2.9804,-3.0557,-3.1461,-3.2315,-3.5704,-3.8563,-3.9585,-4.2016,-4.4829,-4.7896,-4.7278,0.0,0.0,-4.4669,-4.2216,0.0,0.0,-3.6983,0.0,0.0,0.0,0.0,-3.2847,-3.2152,-3.3068,-3.1198,-2.9925,-2.9118,-3.0161,-2.9473,-2.7613,-2.998,-3.1992,-3.371,0.0,0.0,-4.0916,-4.284,-4.4251,-4.5364,-4.7489,-4.9404,-5.1109,-5.2247,-5.2755,-5.2852,-5.2145,-5.2187,0.0,-5.0427,-4.8722,-4.6698,0.0,0.0,0.0,-3.7224,0.0,0.0,0.0,0.0,0.0,0.0,0.0,0.0,0.0,0.0,0.0,0.0,0.0,-3.3043,-3.1586,0.0,-3.187,0.0,0.0,0.0,0.0,0.0,0.0,0.0,-3.7489,-3.8154,-3.8695,-3.8137,-3.8413,-4.0087,-4.0703,-4.1565,-4.3137,-4.3664,-4.4016,-4.4166,-4.4401,-4.4134,-4.3517,-4.3663,-4.328,-4.2522,-4.25,-4.2944,-4.4019,-4.4019,-4.5143,-4.7175,-4.865,-4.9819,-5.0998,-5.2327,-5.3155,-5.3632,-5.4762,-5.5867,-5.6972,-2.9804,-2.9804,-2.9804,-2.9804,-3.0256,-3.1185,-3.2792,-3.5072,-3.7193,-3.8859,0.0,0.0,0.0,0.0,0.0,0.0,0.0,-4.941,-4.8984,0.0,-4.0536,0.0,0.0,-3.5435,0.0,-3.3093,-3.3068,-3.3068,-3.2466,-3.1304,-2.9809,-3.0723,-3.0914,-3.0572,-3.2884,-3.5083,-3.7206,-4.0367,-4.2298,-4.3369,-4.5371,-4.6565,-4.7279,0.0,-4.9105,-5.0361,-5.105,0.0,0.0,-5.3469,-5.2552,-5.1104,-5.1499,0.0,0.0,0.0,0.0,0.0,0.0,-4.0342,0.0,-4.026,0.0,0.0,0.0,0.0,-4.2559,0.0,0.0,0.0,-3.9705,-3.7699,-3.5641,-3.295,-3.1309,0.0,0.0,0.0,0.0,0.0,0.0,0.0,0.0,0.0,0.0,0.0,-3.5576,-3.6461,-3.8418,-3.8943,-3.9916,-4.1297,-4.1957,-4.2484,-4.3037,-4.2535,-4.2447,-4.2848,-4.1868,-4.0804,-4.0004,-4.0004,-4.0044,-4.0033,-4.0033,-4.2683,-4.7029,-4.7029,-4.9391,-5.2792,-5.2929,-5.2929,-5.308,-5.4185,-5.529,-5.6394,-3.1215,-3.0854,-3.0331,-3.0331,0.0,-3.2465,-3.4977,-3.7295,-4.0458,0.0,0.0,0.0,0.0,0.0,-5.8542,0.0,0.0,-5.2859,-5.0064,-4.7246,0.0,0.0,0.0,-4.0059,0.0,0.0,-3.4729,-3.4666,-3.3259,-3.2147,-3.1373,-3.2845,-3.2496,-3.0659,-3.2827,-3.4846,0.0,0.0,0.0,0.0,0.0,-4.7489,-4.9164,0.0,-4.8835,-4.9673,-5.0331,-5.0662,0.0,-5.167,-5.0331,-4.8188,-4.7933,-4.5196,-4.1845,-4.0757,-3.9281,-3.8445,-4.0316,-4.2348,-4.3774,-4.2849,0.0,0.0,0.0,0.0,0.0,0.0,0.0,0.0,0.0,-3.6285,-3.4318,-3.1937,-3.0734,-2.9902,0.0,0.0,0.0,0.0,0.0,0.0,0.0,0.0,0.0,0.0,-3.1986,-3.2327,-3.4009,-3.5772,-3.7489,-3.9285,-4.1196,-4.1767,-4.0886,-4.1348,-4.0796,-3.9073,-3.9066,-3.8786,-3.8247,-3.8247,-3.8799,-3.9902,-3.9902,-4.2534,-4.7029,-4.7029,-4.9391,-5.2929,-5.2929,-5.2929,-5.3055,-5.416,-5.5039,-5.6012,-3.1423,-3.121,-3.0964,0.0,0.0,-3.3901,-3.6155,0.0,0.0,0.0,-5.2273,0.0,-6.3111,0.0,-6.1666,0.0,-5.9219,-5.5411,-4.9927,-4.931,0.0,-4.5172,-4.4228,0.0,0.0,0.0,0.0,-3.6726,-3.5358,-3.4502,-3.3953,-3.4462,-3.3778,-3.2187,-3.4327,-3.5764,0.0,0.0,-4.2267,0.0,0.0,-4.7698,0.0,0.0,-4.8535,-5.0331,0.0,-4.9931,-4.9968,-4.9483,-4.8026,-4.6152,-4.5061,-4.2959,-4.0571,-3.9254,-3.8646,-3.8858,-4.1156,-4.3485,-4.5254,-4.5175,-4.6093,-4.605,-4.2936,0.0,-4.3737,0.0,0.0,0.0,0.0,-3.6275,-3.39,-3.2428,-3.0892,-2.9668,0.0,-2.8457,0.0,0.0,0.0,0.0,0.0,0.0,0.0,-3.0089,-2.963,-2.9978,0.0,-3.3399,-3.5154,-3.6913,-3.8957,-3.9579,-3.8731,-3.9147,-3.8642,-3.7106,-3.7068,-3.7079,-3.7305,-3.7305,-3.8164,-3.9648,-4.0375,-4.3026,-4.6782,-4.7485,-4.9795,-5.2929,-5.2929,-5.2929,-5.303,-5.3934,-5.5264,-5.7112,-3.0738,-3.1246,0.0,0.0,-3.4071,0.0,0.0,0.0,-4.6726,0.0,-5.4511,-5.9217,-6.288,-6.3024,-6.2631,-6.2044,-6.1153,0.0,-4.9039,-5.0945,0.0,0.0,-4.4001,-4.4097,-4.3185,0.0,0.0,0.0,-3.8505,-3.7867,-3.7151,-3.5574,-3.4815,-3.4786,-3.7154,0.0,-3.7532,-4.2825,-4.4773,-4.4526,-4.6501,-4.7369,-4.7255,-4.5985,-4.8214,-5.178,-4.9727,-4.9308,-4.9331,-4.7054,-4.5898,-4.5037,-4.3144,-4.1611,-4.0261,-3.9076,-3.8945,-3.9925,-4.2798,-4.4206,-4.5278,-4.7548,-4.8033,-4.728,-4.4502,0.0,-4.6117,0.0,0.0,0.0,0.0,-3.7579,-3.4484,-3.4358,-3.16,-2.9219,-2.8418,-2.8301,0.0,0.0,0.0,0.0,0.0,0.0,-2.916,-2.832,-2.8633,-2.9479,0.0,-3.1839,-3.3005,-3.4441,-3.5512,-3.6252,-3.663,-3.6024,-3.6122,-3.6978,-3.591,-3.6035,-3.7305,-3.7305,-3.7988,-3.9347,-4.1172,-4.3702,-4.66,-4.831,-5.0652,-5.2929,-5.2929,-5.2929,-5.3117,-5.3671,-5.6096,-5.9429,-3.2201,-3.3807,-3.4821,0.0,-3.5262,-3.6703,0.0,0.0,0.0,0.0,-5.5998,-5.9949,-6.4868,-6.5384,-6.4175,-6.1339,-6.0806,0.0,0.0,0.0,0.0,-4.8511,-4.8369,-4.7419,-4.5299,-4.4316,0.0,-4.171,0.0,-3.8122,-3.7232,-3.7097,-3.616,-3.4786,-3.6634,0.0,-3.7833,-4.0706,-4.316,-4.5185,-4.6711,-4.7584,-4.7934,0.0,-4.7766,-4.9003,-4.7023,-4.5971,-4.5538,-4.4877,-4.3235,-4.1374,-4.1165,-4.0389,-3.9532,-3.9563,-3.9844,-4.1003,-4.4639,-4.5998,-4.7059,-4.9742,-4.9791,-4.8355,-4.5392,-4.5838,-4.5705,0.0,0.0,0.0,0.0,-3.5828,-3.353,-3.1676,-2.9846,-2.8535,-2.832,0.0,0.0,-2.8867,0.0,0.0,0.0,0.0,-2.8398,-2.7871,-2.793,-2.8199,-2.86,0.0,-3.2247,-3.2916,-3.4957,-3.5685,-3.5008,-3.5248,-3.5335,-3.5341,-3.5067,-3.5723,-3.7305,-3.7305,-3.7988,-3.9347,-4.1172,-4.3702,-4.66,-4.831,-5.0652,-5.2929,-5.2929,-5.3674,-5.4913,-5.593,-5.805,-6.0453,-3.3146,-3.5167,0.0,-3.6904,0.0,0.0,-4.1443,0.0,0.0,-5.4013,-5.7276,0.0,-6.3046,-6.3891,-6.2887,-5.9812,-5.8899,0.0,0.0,0.0,0.0,-5.0344,-5.0131,-4.9342,-4.7752,-4.6466,0.0,-4.3324,0.0,-3.9586,-3.9011,-3.817,-3.7204,-3.6108,-3.6995,-3.7763,0.0,-4.085,-4.356,-4.6117,-4.6018,-4.6456,0.0,-4.5312,-4.4775,-4.4596,-4.3023,-4.3227,-4.3805,-4.1685,-4.0507,-3.9792,-3.9412,-3.9485,-3.959,-4.0039,-4.0469,-4.1549,-4.4592,-4.5505,-4.6308,-4.8803,-4.8929,-4.7869,-4.536,-4.5252,-4.4823,-4.1238,-4.0392,-3.9625,-3.7065,0.0,-3.2715,-3.0312,-2.9316,-2.8848,0.0,0.0,0.0,0.0,-2.9043,0.0,0.0,-2.8691,-2.8125,-2.7695,-2.7676,-2.7754,-2.793,0.0,-3.0962,-3.1207,-3.3466,-3.4282,-3.3414,-3.4248,-3.4765,-3.4707,-3.4707,-3.5508,-3.7031,-3.7207,-3.8201,-3.9899,-4.2068,-4.4657,-4.742,-4.9283,-5.1171,-5.2929,-5.3674,-5.5419,-5.7834,-5.9071,-6.0413,-6.1655,-3.4045,0.0,0.0,0.0,0.0,0.0,0.0,-4.7259,0.0,-5.4545,0.0,-5.9707,-5.9276,-6.0256,-6.0061,-5.7672,0.0,-5.4581,-5.1373,-5.2062,-5.2003,-5.0669,-5.0628,-5.046,-5.0182,-4.8407,0.0,0.0,0.0,-4.1219,-4.0914,-3.883,-3.7738,-3.7587,-3.7825,0.0,0.0,-4.1765,-4.4198,-4.6075,-4.4731,-4.4452,-4.4656,-4.2333,-4.0798,-3.9773,-3.8722,-4.044,-4.2442,-3.8472,-3.8103,-3.9234,-3.8161,-3.875,-3.9824,-4.0371,-4.0781,-4.1539,-4.3491,-4.4096,-4.4527,-4.6441,-4.7029,-4.6547,-4.4848,-4.4516,-4.3643,-4.0813,-3.9502,-3.8391,-3.6819,-3.4336,-3.1914,-2.9961,-2.9609,0.0,0.0,0.0,0.0,0.0,0.0,0.0,0.0,-2.8496,-2.8066,-2.7695,-2.7676,-2.7832,-2.8184,0.0,-2.957,-2.957,-3.1504,-3.248,-3.2344,-3.332,-3.416,-3.4785,-3.4668,-3.5312,-3.6601,-3.6973,-3.8507,-4.0814,-4.3002,-4.5714,-4.869,-5.0553,-5.206,-5.3427,-5.5314,-5.7823,-6.0624,-6.208,-6.2724,-6.3146,0.0,0.0,0.0,0.0,0.0,-4.7048,-4.9518,-5.224,-5.3941,-5.3856,-5.6333,-5.7916,-5.757,-5.7716,-5.7107,-5.5337,-5.5306,0.0,0.0,0.0,0.0,-5.2312,-5.2208,-5.2184,-5.2263,-4.9557,-4.7668,0.0,-4.2611,-3.9953,-3.8774,-3.811,-3.7329,-3.6554,0.0,0.0,-3.8283,-4.0271,0.0,-4.0603,-4.23,-4.2669,-4.211,-4.0875,-3.9649,-3.8442,-3.6551,-3.6491,-3.7205,-3.7192,-3.6922,-3.6838,-3.77,-3.834,-3.9043,-4.0176,-4.0586,-4.1144,-4.3408,-4.4096,-4.4527,-4.6441,-4.7029,-4.6522,-4.4656,-4.387,-4.3026,-4.0504,-3.9267,-3.8102,-3.5937,-3.3203,-3.0976,0.0,0.0,0.0,0.0,0.0,0.0,0.0,0.0,-2.8926,0.0,0.0,-2.7754,-2.7676,0.0,-2.7695,-2.7773,0.0,-2.957,0.0,-3.0644,-3.1855,0.0,-3.2734,-3.3437,-3.5254,-3.4531,-3.4863,-3.6133,-3.6211,-3.7924,-4.0814,-4.265,-4.5393,-4.869,-5.0553,-5.2787,-5.5287,-5.8328,-5.9965,-6.0808,-6.3002,-6.4159,-6.4815,0.0,0.0,0.0,0.0,0.0,0.0,0.0,-5.3984,0.0,-5.4701,-5.4998,-5.5047,-5.4251,-5.531,-5.5412,-5.3498,-5.3572,-5.3017,-5.1456,-5.0996,-5.143,-5.2734,-5.2588,0.0,-5.2263,-4.9646,-4.7788,-4.68,-4.2851,-4.0571,-3.9844,-3.8842,-3.7901,-3.7021,0.0,-3.8553,0.0,0.0,-4.0236,-4.0553,-4.1012,-4.094,-4.0337,-3.942,-3.7651,-3.5558,-3.5189,-3.4551,-3.4146,-3.5376,-3.5938,-3.6172,-3.7012,-3.7871,-3.8691,-3.9316,-3.998,-4.07,-4.1947,-4.2454,-4.279,-4.3815,-4.3966,-4.3601,-4.2485,-4.213,-4.1424,-3.9524,-3.8867,-3.793,-3.5781,-3.3281,-3.1484,0.0,0.0,0.0,0.0,0.0,-2.9902,0.0,0.0,0.0,0.0,0.0,0.0,0.0,0.0,0.0,0.0,0.0,-2.9336,0.0,0.0,0.0,-3.2773,0.0,-3.3672,-3.4707,-3.4492,-3.4844,-3.5703,-3.6152,-3.8391,-4.1918,-4.2972,-4.5843,-5.0149,-5.2444,-5.5309,-5.8202,-5.9843,-6.099,-6.2027,-6.3891,-6.5166,-6.6399,0.0,-4.3834,0.0,0.0,-4.9219,0.0,-5.3153,-5.4324,-5.5039,-5.5271,-5.4221,-5.3025,-5.1944,-5.3609,-5.4066,-5.2287,-5.2101,-5.1825,-5.1147,-5.067,-5.1202,-5.3023,-5.2625,-5.2491,-5.2758,-4.9981,-4.7848,0.0,-4.321,-4.1428,-4.102,-3.947,-3.8361,-3.7641,-3.7901,0.0,-3.8825,-3.9017,-3.9673,-4.0594,-3.959,-3.9117,-3.8827,-3.751,-3.5447,-3.3371,-3.4113,-3.3558,-3.2539,-3.4062,-3.5098,-3.5859,-3.6465,-3.7422,-3.834,-3.8516,-3.9375,-4.0273,-4.0469,-4.1069,-4.1654,-4.1308,-4.1463,-4.1654,-4.0778,-4.0371,-3.9922,-3.8809,-3.8223,-3.7363,-3.5566,-3.3633,-3.2266,0.0,0.0,0.0,0.0,0.0,0.0,0.0,0.0,0.0,-2.8926,0.0,0.0,0.0,0.0,0.0,-2.8688,0.0,0.0,0.0,0.0,-3.207,-3.2422,0.0,-3.3906,-3.4355,-3.4492,-3.4863,-3.543,-3.6561,-3.9166,-4.2903,-4.3779,-4.7084,-5.2272,-5.4892,-5.7696,-6.048,-6.087,-6.191,-6.3228,-6.4545,-6.5759,-6.6941,0.0,0.0,0.0,0.0,0.0,0.0,-5.2972,-5.3551,-5.3911,-5.4463,-5.4543,-5.4001,-5.2936,-5.3053,-5.2815,-5.2151,-5.2101,-5.1649,-5.0569,-5.0444,-5.1536,-5.4139,-5.3021,-5.347,-5.5781,-5.1498,-4.8536,0.0,-4.3898,-4.1537,-3.9952,-3.9159,-3.8102,-3.6979,-3.816,-3.7565,-3.582,-3.686,-3.7182,-3.6944,-3.6965,-3.7268,-3.7346,-3.4648,-3.3578,-3.3538,-3.2735,-3.2564,-3.2871,-3.3809,-3.4434,-3.5039,-3.6289,-3.7012,-3.7578,-3.834,-3.8926,-3.9492,-4.0312,-4.1857,-4.3014,-4.1519,-4.2483,-4.3235,-4.1065,-3.9902,-3.918,-3.8672,-3.7031,-3.5508,-3.4883,-3.3652,-3.2617,-3.2226,0.0,0.0,0.0,0.0,-3.0664,-3.0254,0.0,0.0,0.0,-2.8887,0.0,0.0,-2.9591,0.0,0.0,0.0,0.0,-2.9682,-3.0508,-3.1758,-3.3281,-3.2656,-3.334,-3.5254,-3.4492,-3.457,-3.541,-3.7657,-4.0166,-4.2925,-4.5505,-4.9611,-5.4419,-5.684,-5.8856,-6.06,-6.2292,-6.2933,-6.3228,-6.4545,-6.5143,-6.5736,0.0,0.0,0.0,0.0,0.0,0.0,0.0,-5.3008,-5.2459,-5.3023,-5.31,-5.296,-5.2402,-5.2126,-5.1724,-5.1147,-5.1096,-5.077,-4.9967,-4.9916,-5.0639,-5.2433,-5.2424,-5.2826,-5.3685,-5.1565,-4.9404,0.0,0.0,-4.32,-4.1351,-4.0051,-3.8851,-3.8016,-3.7726,-3.7613,-3.7428,-3.7475,-3.693,-3.6109,-3.6518,-3.5917,-3.4759,-3.3827,-3.288,-3.2033,-3.243,-3.2656,-3.2969,-3.4062,-3.457,-3.4844,-3.5644,-3.6543,-3.7363,-3.7715,-3.8476,-3.9574,-4.1076,-4.2207,-4.2752,-4.2215,-4.2476,-4.2166,-3.988,-3.8867,-3.8242,-3.7578,-3.6348,-3.5254,-3.4785,-3.3867,-3.3105,-3.2949,0.0,0.0,0.0,0.0,0.0,-2.8347,0.0,-2.7993,0.0,-2.8769,0.0,0.0,0.0,0.0,0.0,0.0,0.0,-2.9941,0.0,-3.068,-3.109,-3.0773,-3.1407,-3.2972,-3.2879,-3.3956,-3.5781,-3.8161,-4.1374,-4.5591,-4.9718,-5.3347,-5.6368,-5.8603,-6.0508,-6.2145,-6.2817,-6.3079,-6.3228,-6.4545,-6.5555,-6.6752,-4.5615,0.0,-4.7042,0.0,-4.9651,-4.9924,-5.3322,-5.2374,-5.1473,-5.2026,-5.1825,-5.1674,-5.185,-5.1523,-5.1046,-5.0469,-5.0419,-5.0117,-4.9389,-4.9364,-5.005,-5.1576,-5.1925,0.0,-5.2878,-5.2002,-5.0212,-4.7608,-4.6441,-4.4676,-4.2342,-4.0967,-3.9917,-3.9262,-3.8062,-3.7908,-3.8586,-3.8044,-3.7409,-3.6729,-3.6402,-3.5301,-3.3685,-3.3256,-3.2311,-3.1406,-3.2422,-3.2949,-3.3301,-3.4219,-3.4687,-3.5,-3.5586,-3.6465,-3.7324,-3.7441,-3.8203,-3.9338,-4.0715,-4.1835,-4.2376,-4.1792,-4.1835,-4.142,-3.8774,-3.7871,-3.7285,-3.6289,-3.5508,-3.4941,-3.4726,-3.4004,-3.3292,-3.2746,-3.1684,0.0,0.0,-2.7692,0.0,-2.7355,-2.7068,-2.7306,-2.8602,-2.9043,0.0,0.0,0.0,0.0,0.0,0.0,0.0,0.0,0.0,0.0,-2.8834,-2.8937,-2.997,-3.1583,-3.2222,-3.4064,-3.7144,-4.0216,-4.4161,-4.8707,-5.2353,-5.5172,-5.7522,-5.9059,-6.1139,-6.3079,-6.3079,-6.3079,-6.3228,-6.4545,-6.5642,-6.6897,-4.1099,-4.1767,-4.3575,-4.7163,-4.8148,-4.9246,-5.1729,-5.1649,-5.1473,-5.2026,-5.1122,-5.067,-5.1222,-5.1272,-5.1046,-5.0469,-5.0419,-4.9941,-4.8862,-4.8786,-4.9929,0.0,0.0,-5.2703,-5.5078,-5.3204,-5.09,-4.8267,0.0,0.0,-4.2372,-4.1709,-4.1047,-4.0421,-3.9392,-3.8451,-3.7821,-3.7973,-3.8316,-3.8691,-3.6279,-3.5288,-3.5024,-3.2484,-3.1777,-3.2207,-3.2637,-3.334,-3.4062,-3.4082,-3.4668,-3.5527,-3.6387,-3.6953,-3.7383,-3.7793,-3.8223,-3.8672,-3.9082,-4.063,-4.1772,-3.979,-4.0776,-4.1274,-3.8003,-3.6992,-3.6309,-3.5,-3.4394,-3.4219,-3.4629,-3.4004,-3.2892,-3.1176,-3.023,0.0,0.0,-2.6199,0.0,-2.7633,-2.7831,-2.8265,-2.9478,-2.9941,0.0,0.0,0.0,0.0,0.0,0.0,-2.9241,-2.7831,-2.6986,-2.6694,-2.709,-2.767,-2.9325,-3.2132,-3.2773,-3.541,-3.9601,-4.4608,-4.878,-5.2076,-5.2101,-5.4313,-5.7977,-5.8005,-6.0022,-6.3079,-6.3079,-6.3079,-6.3228,-6.4545,-6.5024,-6.5532,-4.1972,-4.2458,-4.3512,-4.5142,-4.5714,-4.6912,-4.9294,-4.9204,-4.934,-5.0788,-5.0318,-4.9916,-5.0117,-5.0142,-4.9916,0.0,-4.9289,-4.8987,0.0,-4.8184,-4.8846,-5.0201,-5.0671,-5.1341,-5.237,-5.224,-5.1139,-4.8955,0.0,-4.6043,-4.2378,-4.1254,-4.0705,-4.0479,-3.9746,-3.9501,-3.9669,-3.9321,-3.8708,-3.779,-3.5985,-3.4823,-3.3997,-3.2135,-3.1797,-3.2226,-3.2656,-3.334,-3.4121,-3.4394,-3.5078,-3.5918,-3.6484,-3.6953,-3.7324,-3.7461,-3.8008,-3.8885,-4.0268,-4.0921,-4.0954,-4.0409,-4.0125,-3.9312,-3.6917,-3.5859,-3.5039,-3.4043,-3.3711,-3.3193,-3.1835,-3.1466,-3.0647,-2.8948,-2.8281,-2.721,-2.5219,0.0,-2.4775,-2.5965,-2.6152,-2.707,-2.9385,-2.9941,0.0,0.0,0.0,0.0,0.0,0.0,-2.8792,-2.8505,-2.7136,-2.6167,-2.585,-2.608,-2.7717,-3.0583,-3.1077,-3.5357,-4.2901,-4.6724,-4.985,-5.2261,-5.4892,-5.6821,-5.8131,-6.0537,-6.2175,-6.3079,-6.3079,-6.3079,-6.3169,-6.4006,-6.4904,-6.6042,-4.0339,-4.0686,-4.1688,-4.2798,-4.3412,-4.4827,-4.7581,-4.7566,-4.816,-5.0406,-4.9891,-4.9264,-4.9188,-4.9238,0.0,-4.8812,-4.856,-4.8209,-4.7657,-4.7431,-4.7949,-4.9381,-4.9829,-5.0466,-5.1479,-5.1884,-5.1349,-4.9643,-4.7763,-4.552,-4.3031,-4.1288,-4.0653,-4.0896,-4.02,-4.0072,-4.0253,-4.0056,-3.9451,-3.8558,-3.7216,-3.6005,-3.4718,-3.3407,-3.2754,-3.2461,-3.2871,-3.3476,-3.4141,-3.4551,-3.5176,-3.5859,-3.6289,-3.6719,-3.709,-3.7246,-3.7793,-3.857,-3.9496,-3.9777,-3.9573,-3.9081,-3.8323,-3.7299,-3.5658,-3.4726,-3.4062,-3.3535,-3.2777,-3.1917,-3.0501,-2.9689,-2.857,-2.6778,-2.6232,-2.5422,-2.3461,-2.2904,-2.336,0.0,0.0,-2.6745,-2.9736,-3.0312,-3.0449,0.0,0.0,0.0,0.0,0.0,-2.7384,-2.7025,-2.566,-2.4755,-2.4452,-2.4801,-2.6703,-3.012,-3.3915,-3.9048,-4.5225,-4.8748,-5.1034,-5.2563,-5.5681,-5.7369,-5.8257,-6.1019,-6.2555,-6.3079,-6.3079,-6.3079,-6.3139,-6.3767,-6.4844,-6.6191,-3.7016,-3.7285,-3.8402,-4.0173,-4.1226,-4.2999,-4.6174,-4.6617,-4.7799,-5.068,-4.969,-4.8661,-4.851,-4.8586,-4.8661,-4.8661,0.0,0.0,-4.7054,-4.6552,-4.7198,-4.9556,-4.9166,-4.9841,-5.2121,-5.2157,-5.1404,-5.0027,-4.6243,-4.4358,-4.4151,-4.1674,-4.09,-4.155,-4.0796,-4.0224,-3.9798,-4.0249,-4.0475,-4.0445,-3.9467,-3.8106,-3.6604,-3.5563,-3.4228,-3.2891,-3.3281,-3.3691,-3.4141,-3.4531,-3.498,-3.5469,-3.5859,-3.6269,-3.6719,-3.7129,-3.7578,-3.7832,-3.7402,-3.7578,-3.7598,-3.6367,-3.5996,-3.5586,-3.4316,-3.3711,-3.3418,-3.3379,-3.1734,-3.0284,-3.0158,-2.8432,-2.655,-2.463,-2.4119,-2.3417,-2.1781,-2.1283,-2.2327,-2.5619,-2.5984,-2.7331,-3.0528,-3.0898,-3.0898,0.0,0.0,0.0,0.0,-2.69,-2.5493,-2.4112,-2.3064,-2.2619,-2.2979,-2.4088,-2.6677,-3.076,-3.9945,-4.504,-4.6456,-5.0433,-5.2477,-5.3229,-5.4861,-5.665,-5.8313,-6.0022,-6.1644,-6.3079,-6.3079,-6.3079,-6.3139,-6.3767,-6.4844,-6.6191,0.0,0.0,-3.7269,-3.7669,-3.8704,-4.0126,-4.2275,-4.4118,-4.6264,-4.8857,-4.8535,-4.8209,-4.8485,-4.7908,-4.7531,-4.7531,-4.738,-4.6903,-4.5949,-4.5748,-4.6746,-4.9031,-4.8425,-4.9416,-5.2091,-5.1708,-5.055,-4.8624,-4.573,-4.3969,-4.3402,-4.1853,-4.1199,-4.1326,-4.0732,-4.045,-4.03,-4.0023,-4.0124,-4.042,-3.9056,-3.799,-3.7094,-3.567,-3.4411,-3.3281,-3.3379,-3.3691,-3.4082,-3.418,-3.4746,-3.541,-3.5508,-3.584,-3.6269,-3.6699,-3.7344,-3.7832,-3.7402,-3.7363,-3.7305,-3.668,-3.5762,-3.4766,-3.3789,-3.3496,-3.332,-3.3008,-3.1302,-2.9476,-2.8111,-2.6167,-2.4299,-2.2535,-2.2222,-2.197,-2.137,-2.1149,-2.2327,0.0,-2.5984,-2.7331,-3.0528,-3.0898,-3.1016,0.0,0.0,-2.9893,-2.7136,-2.6802,-2.6104,-2.48,-2.3495,-2.3233,-2.4209,-2.4489,-2.7111,-3.2276,-4.088,-4.5377,-4.6501,-5.1187,-5.4159,-5.5704,-5.727,-5.905,-6.0831,-6.1997,-6.2701,-6.3079,-6.3079,-6.3079,-6.3139,-6.3767,-6.4844,-6.6131,-3.6152,-3.6484,-3.6816,-3.6543,-3.7324,-3.8828,-4.133,-4.2899,-4.4531,-4.6412,-4.6979,-4.7054,-4.6753,-4.7054,-4.7004,-4.6326,-4.6552,-4.6502,-4.5899,-4.605,-4.6908,-4.8731,-4.8582,-4.9252,-5.0817,-5.0464,-4.8942,-4.6412,-4.4881,-4.3599,-4.2342,-4.1904,-4.158,-4.1329,-4.1028,-4.0902,-4.0877,-4.0576,-4.0752,-4.1171,-3.9902,-3.8733,-3.7584,-3.6033,-3.4656,-3.3418,-3.3418,-3.3691,-3.4101,-3.4297,-3.4824,-3.543,-3.5625,-3.584,-3.6074,-3.6309,-3.6836,-3.7266,-3.6836,-3.6855,-3.6855,-3.625,-3.5234,-3.4336,-3.4062,-3.3848,-3.3398,-3.2365,-3.0411,-2.8162,-2.636,-2.4276,-2.2596,-2.1316,-2.1149,-2.1096,-2.0935,-2.0909,-2.2171,-2.5587,-2.6116,-2.7574,-3.0818,-3.1367,-3.1484,-3.1523,-3.073,-2.9319,-2.6919,-2.6551,-2.5687,-2.3861,-2.3516,-2.3714,-2.4623,-2.7064,-2.9942,-3.3292,-4.169,-4.6164,-4.7299,-5.256,-5.5793,-5.7327,-5.9543,-6.1285,-6.2514,-6.3239,-6.3498,-6.3468,-6.3199,-6.3258,-6.3528,-6.3887,-6.4516,-6.5294,-3.6016,-3.6426,-3.6601,-3.6113,-3.6621,-3.8263,-4.1397,-4.2614,-4.345,-4.4511,-4.5447,-4.5623,-4.4493,-4.61,-4.6677,-4.5347,-4.5673,-4.5974,-4.5924,-4.6103,-4.6827,-4.8135,-4.8499,-4.8638,-4.8837,-4.8638,-4.7151,-4.4309,-4.4098,-4.3145,-4.1605,-4.2057,-4.2032,-4.158,-4.1505,-4.143,-4.1329,-4.1254,-4.153,-4.1948,-4.112,-3.9848,-3.8461,-3.7002,-3.5581,-3.4133,-3.4133,-3.4432,-3.4872,-3.4992,-3.5337,-3.583,-3.5936,-3.5976,-3.6016,-3.6016,-3.6289,-3.6484,-3.6113,-3.6289,-3.6367,-3.5508,-3.4785,-3.4336,-3.4551,-3.4336,-3.3546,-3.1797,-2.944,-2.7117,-2.4978,-2.302,-2.1376,-2.0828,-2.0708,-2.0695,-2.0735,-2.0943,-2.2371,-2.5652,-2.6577,-2.8149,-3.1362,-3.2012,-3.2129,-3.1836,-3.0605,-2.9063,-2.7292,-2.6476,-2.5143,-2.2832,-2.3567,-2.4249,-2.4836,-3.0109,-3.3072,-3.3892,-4.2287,-4.7118,-4.8487,-5.4163,-5.7542,-5.9345,-6.1755,-6.3265,-6.4047,-6.4069,-6.4156,-6.4096,-6.3324,-6.3296,-6.3773,-6.3505,-6.359,-6.3894,-3.5957,-3.6094,-3.6133,-3.6035,-3.6133,-3.6998,-3.9506,-4.3255,-4.5515,-4.4653,-4.4769,-4.4468,-4.3363,-4.5171,-4.615,-4.5296,-4.4719,-4.4367,-4.4192,-4.4244,-4.4678,-4.5554,-4.5662,-4.6188,-4.7402,-4.6265,-4.5422,-4.4916,-4.3778,-4.3008,-4.2735,-4.2811,-4.2811,-4.271,-4.2233,-4.1781,-4.1304,-4.0852,-4.0953,-4.148,-4.123,-4.0755,-4.0245,-3.9989,-3.8817,-3.7506,-3.7506,-3.7813,-3.7986,-3.6624,-3.6829,-3.7295,-3.5984,-3.5742,-3.6016,-3.6016,-3.6074,-3.6113,-3.6035,-3.6074,-3.5918,-3.5019,-3.5,-3.5,-3.4316,-3.4121,-3.3546,-3.1797,-2.944,-2.7117,-2.4978,-2.302,-2.1443,-2.1096,-2.0842,-2.0762,-2.1002,-2.2044,-2.3657,-2.6257,-2.7852,-2.9654,-3.1891,-3.2441,-3.2812,-3.3105,-3.1466,-2.997,-2.8873,-2.7416,-2.5927,-2.4649,-2.481,-2.5157,-2.5745,-3.0546,-3.3321,-3.3892,-4.2287,-4.7751,-5.0317,-5.5509,-6.0021,-6.3521,-6.3923,-6.4998,-6.6332,-6.5293,-6.4874,-6.4725,-6.3071,-6.2427,-6.2447,-6.1542,-6.1434,-6.1947,-3.5918,-3.6016,-3.6016,-3.6016,-3.8145,-4.0509,-4.2776,-4.3954,-4.4095,-4.2753,-4.3251,-4.3539,-4.3037,-4.389,-4.4367,-4.4041,-4.4041,-4.3865,-4.3388,-4.4377,-4.507,-4.5441,-4.5954,-4.6083,-4.5978,-4.4643,-4.3753,-4.3444,-4.3144,-4.2836,-4.2534,-4.2836,-4.2986,-4.2961,-4.2409,-4.2183,-4.2183,-4.163,-4.1731,-4.2098,-4.1274,-4.0757,-4.0476,-3.9639,-3.8817,-3.8268,-3.8515,-3.894,-3.9266,-3.881,-3.8488,-3.8151,-3.7401,-3.6629,-3.6074,-3.6309,-3.6211,-3.6016,-3.6016,-3.5859,-3.5586,-3.5176,-3.5234,-3.5293,-3.4883,-3.3955,-3.2703,-3.092,-2.8574,-2.6111,-2.408,-2.2599,-2.1683,-2.1403,-2.17,-2.211,-2.2423,-2.352,-2.5238,-2.7695,-2.9012,-3.0562,-3.2669,-3.3437,-3.3405,-3.2319,-3.0573,-2.9027,-2.7819,-2.6372,-2.6143,-2.7545,-2.7435,-2.8162,-2.9517,-3.3276,-3.5704,-3.7038,-4.3595,-4.884,-5.2724,-5.7161,-6.1497,-6.5448,-6.568,-6.6583,-6.7802,-6.5182,-6.4106,-6.3801,-6.1614,-6.1256,-6.1744,-6.1204,-6.0975,-6.0984,-3.5879,-3.6016,-3.5898,-3.5488,-3.9575,-4.3564,-4.5271,-4.4066,-4.2574,-4.1564,-4.1041,-4.0822,-4.0822,-4.0822,-4.1052,-4.1785,-4.2643,-4.3084,-4.3011,-4.4454,-4.5213,-4.5213,-4.5822,-4.5661,-4.4535,-4.3492,-4.276,-4.2359,-4.276,-4.276,-4.2359,-4.2785,-4.2986,-4.2961,-4.2534,-4.2509,-4.276,-4.2333,-4.2273,-4.2177,-4.0884,-4.0497,-4.0476,-3.9288,-3.9121,-3.9518,-4.0029,-4.056,-4.1038,-4.1057,-4.0501,-3.9649,-3.8988,-3.7852,-3.6777,-3.6818,-3.6504,-3.6152,-3.6055,-3.5491,-3.4796,-3.472,-3.4412,-3.4237,-3.4142,-3.2866,-3.134,-2.9757,-2.754,-2.5461,-2.3324,-2.2498,-2.2176,-2.212,-2.2716,-2.3427,-2.4255,-2.544,-2.6953,-2.9184,-3.0424,-3.179,-3.3408,-3.3946,-3.3482,-3.1691,-2.9648,-2.8098,-2.7008,-2.6073,-2.7638,-3.1872,-3.0794,-3.1134,-3.2906,-3.548,-3.793,-4.0026,-4.5157,-5.0127,-5.5088,-5.9176,-6.3147,-6.6999,-6.7516,-6.7916,-6.816,-6.4996,-6.3507,-6.2806,-6.0469,-6.0293,-6.122,-6.0669,-6.0385,-6.0206,-3.5801,-3.6016,-3.5508,-3.3887,-3.8766,-4.3037,-4.3187,-4.3087,-4.2986,-4.2812,-3.7746,-3.4153,-3.4153,-3.4153,-3.5335,-3.8342,-3.9451,-4.0894,-4.2849,-4.3123,-4.326,-4.326,-4.3321,-4.3295,-4.3184,-4.3073,-4.2961,-4.2911,-4.2961,-4.2961,-4.2911,-4.2961,-4.2986,-4.2986,-4.2936,-4.266,-4.2208,-4.2183,-4.1361,-3.9992,-3.9879,-4.0164,-4.0592,-4.0476,-4.1619,-4.3373,-4.3422,-4.412,-4.4804,-4.3312,-4.3033,-4.2776,-4.0012,-3.9093,-3.8792,-3.7649,-3.6953,-3.6543,-3.6133,-3.4708,-3.323,-3.2484,-3.146,-3.0617,-3.0126,-3.006,-2.946,-2.7962,-2.6922,-2.5725,-2.3365,-2.2819,-2.3051,-2.3706,-2.3643,-2.4255,-2.6075,-2.7522,-2.8805,-3.0103,-3.2043,-3.3408,-3.3984,-3.3159,-3.2657,-3.2485,-2.9615,-2.7999,-2.8208,-2.8535,-3.182,-3.8817,-3.4929,-3.3149,-3.3652,-3.5744,-3.8061,-4.0459,-4.6446,-5.2074,-5.6927,-6.1931,-6.5874,-6.8877,-6.9542,-6.8495,-6.6446,-6.5535,-6.4141,-6.2233,-6.0408,-6.0128,-6.0421,-5.8743,-5.8429,-5.8857,-3.4316,-3.4414,-3.4199,-3.3535,-3.8676,-4.2986,-4.2986,-4.2986,-4.2986,-4.2986,-3.7363,-3.3418,-3.3418,-3.7002,-3.9288,-3.917,-4.0731,-4.215,-4.2986,-4.3288,-4.3338,-4.2986,-4.3313,-4.3489,-4.3489,-4.3489,-4.3664,-4.3991,-4.3664,-4.3664,-4.3991,-4.3639,-4.3489,-4.3463,-4.3137,-4.2861,-4.266,-4.1604,-4.0877,-4.0192,-3.9244,-3.8892,-3.9193,-4.0598,-4.1561,-4.2482,-4.3335,-4.3844,-4.4034,-4.2997,-4.2051,-4.1309,-4.1374,-3.9846,-3.7828,-3.7212,-3.6973,-3.6914,-3.6211,-3.459,-3.3044,-3.2485,-3.153,-3.0557,-3.0053,-2.9473,-2.8673,-2.8236,-2.6733,-2.5299,-2.4179,-2.3514,-2.3571,-2.5071,-2.5556,-2.664,-2.8893,-3.0075,-3.1256,-3.2511,-3.3328,-3.3695,-3.3159,-3.3038,-3.2053,-2.9871,-2.8566,-2.8223,-2.8746,-3.3179,-3.696,-3.97,-4.0881,-4.1468,-4.1631,-4.2435,-4.4344,-4.7538,-5.0205,-5.4614,-6.0438,-6.2864,-6.5738,-6.9004,-6.9273,-6.8336,-6.67,-6.4547,-6.2728,-6.1131,-5.8807,-5.8565,-5.9408,-5.8706,-5.8956,-5.9734,-3.2734,-3.3047,-3.4027,-3.6051,-4.0105,-4.2986,-4.2986,-4.2986,-4.2625,-4.1672,-3.6781,-3.3418,-3.3418,-3.7363,-3.9989,-3.9779,-4.0846,-4.1899,-4.2961,-4.3338,-4.3539,-4.3489,-4.3689,-4.389,-4.4066,-4.4066,-4.4242,-4.4618,-4.4242,-4.4242,-4.4618,-4.4242,-4.3966,-4.379,-4.3589,-4.3388,-4.3125,-4.174,-4.074,-4.0104,-3.8395,-3.8077,-3.8837,-4.0098,-4.1211,-4.2019,-4.3132,-4.3302,-4.2928,-4.2455,-4.168,-4.0801,-4.1743,-4.0021,-3.7637,-3.7344,-3.7285,-3.7047,-3.6004,-3.4018,-3.2245,-3.1843,-3.0326,-2.8811,-2.865,-2.7925,-2.7352,-2.7553,-2.6309,-2.509,-2.4703,-2.4562,-2.5157,-2.6603,-2.7686,-2.9206,-3.158,-3.2352,-3.3,-3.3345,-3.3574,-3.3066,-3.182,-3.1634,-3.0463,-2.8116,-2.8178,-2.9241,-3.186,-3.6998,-4.0592,-4.2501,-4.5845,-4.8094,-4.9179,-4.7862,-4.8802,-5.211,-5.349,-5.7077,-6.2563,-6.3727,-6.589,-6.8704,-6.8914,-6.8012,-6.6308,-6.3656,-6.1651,-6.0093,-5.8091,-5.7876,-5.873,-5.8905,-5.9433,-6.0111,-3.125,-3.2266,-3.5458,-4.1785,-4.2961,-4.2961,-4.2986,-4.2961,-4.1761,-3.858,-3.5335,-3.3418,-3.3418,-3.3418,-3.5232,-3.9428,-3.8817,-3.9639,-4.2762,-4.2986,-4.3463,-4.4593,-4.4091,-4.4066,-4.4618,-4.4644,-4.4644,-4.4644,-4.4644,-4.4644,-4.4644,-4.4644,-4.4342,-4.384,-4.4392,-4.4317,-4.3726,-4.2565,-4.1173,-3.9534,-3.7356,-3.7795,-3.9635,-3.9164,-4.0693,-4.2895,-4.3393,-4.2777,-4.1857,-4.2193,-4.2349,-4.2171,-4.0923,-3.9597,-3.8574,-3.8574,-3.7969,-3.6939,-3.5267,-3.2601,-3.031,-3.031,-2.7346,-2.4796,-2.5384,-2.5291,-2.5251,-2.5838,-2.5732,-2.5344,-2.4756,-2.6225,-2.7748,-2.8484,-3.0195,-3.2077,-3.3824,-3.4082,-3.357,-3.2095,-3.234,-3.1735,-2.9921,-2.8594,-2.7984,-2.7836,-2.8597,-3.1743,-3.7972,-3.9249,-4.2501,-4.8392,-4.9555,-5.1738,-5.5419,-5.1061,-5.0214,-5.2639,-5.6036,-5.9345,-6.2563,-6.4926,-6.6729,-6.8016,-6.8704,-6.7639,-6.5101,-6.332,-6.1407,-5.9567,-5.837,-5.8227,-5.878,-5.9307,-5.9483,-5.9659,-3.2773,-3.3086,-3.4027,-3.5928,-3.6295,-3.7843,-4.2263,-3.8689,-3.5332,-3.4902,-3.4027,-3.4027,-3.5458,-3.7023,-3.858,-4.0245,-4.1076,-4.2184,-4.3539,-4.3187,-4.3664,-4.5171,-4.4694,-4.4644,-4.5221,-4.5221,-4.5422,-4.5799,-4.5422,-4.5422,-4.5799,-4.5422,-4.5146,-4.497,-4.4744,-4.4543,-4.4161,-4.1489,-4.0195,-3.9556,-3.7802,-3.7445,-3.833,-4.0915,-4.1793,-4.1833,-4.2525,-4.1971,-4.0711,-3.9959,-3.9698,-3.978,-3.967,-3.9959,-4.0228,-3.8991,-3.8184,-3.7248,-3.4993,-3.2774,-3.0713,-2.9034,-2.5741,-2.319,-2.5106,-2.4495,-2.404,-2.5858,-2.7254,-2.8052,-2.743,-2.8719,-3.0381,-3.1617,-3.2123,-3.3108,-3.553,-3.5625,-3.5433,-3.5716,-3.4213,-3.2544,-3.0826,-3.0518,-2.9781,-2.8477,-3.1612,-3.5127,-3.8711,-4.2063,-4.6139,-5.0715,-5.2818,-5.4837,-5.7213,-5.4734,-5.505,-5.8091,-5.9087,-6.1206,-6.4275,-6.5441,-6.6729,-6.8016,-6.8704,-6.7776,-6.5865,-6.485,-6.2892,-6.0381,-6.0829,-6.0933,-6.0832,-6.2259,-6.2577,-6.2166,-3.3066,-3.2734,-3.2519,-3.2871,-3.3203,-3.5581,-4.2012,-3.8544,-3.5294,-3.5903,-3.5718,-3.5897,-3.7122,-3.8342,-3.9545,-4.0476,-4.2037,-4.3212,-4.3765,-4.3288,-4.374,-4.5422,-4.4945,-4.4995,-4.5799,-4.5824,-4.5974,-4.6301,-4.5974,-4.6307,-4.7205,-4.6188,-4.6028,-4.636,-4.5557,-4.5296,-4.5035,-4.1654,-4.0773,-4.1433,-3.8635,-3.8465,-4.0033,-4.2497,-4.2567,-4.1584,-4.2437,-4.1345,-3.9354,-3.8853,-3.8691,-3.8867,-3.9121,-3.9858,-4.0448,-3.916,-3.8516,-3.7528,-3.4426,-3.2498,-3.0778,-2.7788,-2.5277,-2.3756,-2.5304,-2.4778,-2.457,-2.69,-2.8342,-2.9441,-2.9787,-3.0711,-3.1605,-3.2399,-3.228,-3.3002,-3.5379,-3.5527,-3.5546,-3.6058,-3.4857,-3.325,-3.1376,-3.1546,-3.1531,-3.1381,-3.4581,-3.7932,-4.1255,-4.5405,-4.9398,-5.2843,-5.5181,-5.7213,-5.898,-5.7949,-5.8453,-6.048,-6.1258,-6.2558,-6.4635,-6.5024,-6.5802,-6.6849,-6.7508,-6.7123,-6.5991,-6.5174,-6.3884,-6.2479,-6.2371,-6.2559,-6.2768,-6.388,-6.365,-6.2941,-3.2539,-3.1797,-3.1367,-3.2148,-3.291,-3.5458,-4.1647,-4.0666,-3.9404,-3.9778,-3.9058,-3.8528,-3.8394,-3.8461,-3.9053,-4.0707,-4.2012,-4.2962,-4.3462,-4.2949,-4.3373,-4.501,-4.4636,-4.4978,-4.615,-4.62,-4.625,-4.6301,-4.6371,-4.7154,-4.8416,-4.7087,-4.6923,-4.7766,-4.6815,-4.6351,-4.6059,-4.2902,-4.265,-4.412,-4.01,-4.0523,-4.3802,-4.4027,-4.3228,-4.2013,-4.2906,-4.0953,-3.8047,-3.8437,-3.8848,-3.9199,-3.9199,-3.9492,-3.9746,-3.9316,-3.8906,-3.7805,-3.3868,-3.216,-3.0675,-2.713,-2.594,-2.5651,-2.5905,-2.5692,-2.6156,-2.8468,-2.9275,-3.0004,-3.1661,-3.211,-3.1994,-3.1498,-3.1285,-3.2036,-3.3981,-3.4451,-3.4451,-3.4883,-3.4739,-3.3854,-3.2053,-3.2059,-3.3289,-3.5758,-3.7613,-4.0514,-4.5251,-4.9023,-5.2254,-5.499,-5.7195,-5.898,-6.075,-6.075,-6.0841,-6.0961,-6.2409,-6.3494,-6.4327,-6.427,-6.4691,-6.5263,-6.5982,-6.6162,-6.601,-6.494,-6.4756,-6.5101,-6.3588,-6.3665,-6.4722,-6.4722,-6.3837,-6.2535,-3.2123,-3.2734,-3.293,-3.3125,-3.3301,-3.4736,-3.8698,-3.7529,-3.705,-3.943,-3.8595,-3.8457,-3.9942,-4.0129,-4.0707,-4.2375,-4.1672,-4.1124,-4.1244,-4.0317,-4.0525,-4.2206,-4.2495,-4.3378,-4.497,-4.5422,-4.5874,-4.6301,-4.7095,-4.7765,-4.8532,-4.821,-4.8131,-4.8258,-4.7376,-4.6702,-4.6205,-4.4583,-4.3931,-4.3749,-4.2864,-4.3224,-4.4499,-4.5921,-4.492,-4.2951,-4.3152,-4.1165,-3.8457,-3.8555,-3.8848,-3.9199,-3.9199,-3.9277,-3.9336,-3.9238,-3.8906,-3.8117,-3.5515,-3.358,-3.1669,-2.9314,-2.7465,-2.6159,-2.5999,-2.5478,-2.5855,-2.8688,-3.1539,-3.3283,-3.2093,-3.3135,-3.3709,-3.1994,-3.1679,-3.2524,-3.4895,-3.5244,-3.5852,-3.7536,-3.6311,-3.4989,-3.4391,-3.4426,-3.5943,-3.9697,-4.0432,-4.3228,-4.9316,-5.0531,-5.3529,-5.9097,-5.9664,-6.075,-6.2555,-6.2555,-6.3074,-6.4087,-6.3448,-6.4575,-6.7225,-6.6772,-6.6888,-6.745,-6.7573,-6.7387,-6.6729,-6.5975,-6.5551,-6.5362,-6.6451,-6.6723,-6.6863,-6.8284,-6.665,-6.353,-3.001,-3.1728,-3.2949,-3.3359,-3.3418,-3.4258,-3.7023,-3.6535,-3.6927,-3.9779,-3.9841,-4.0177,-4.1598,-4.1785,-4.2248,-4.3338,-4.1922,-4.0972,-4.0972,-3.9671,-3.9802,-4.1757,-4.2019,-4.3143,-4.5422,-4.5196,-4.5347,-4.5924,-4.7328,-4.8241,-4.8532,-4.8532,-4.8532,-4.8442,-4.7274,-4.6728,-4.6606,-4.5199,-4.49,-4.528,-4.475,-4.502,-4.5893,-4.6406,-4.5196,-4.3264,-4.2551,-4.0859,-3.8848,-3.8633,-3.9552,-4.0747,-4.0545,-4.1336,-4.2167,-4.1937,-4.1707,-4.0843,-3.7441,-3.5852,-3.4478,-3.1349,-2.9824,-2.8718,-2.7648,-2.7154,-2.792,-3.134,-3.3717,-3.468,-3.3673,-3.3707,-3.316,-3.122,-3.0945,-3.1775,-3.3939,-3.5184,-3.6496,-3.8448,-3.7639,-3.6957,-3.675,-3.6713,-3.8098,-4.1022,-4.29,-4.5824,-5.0795,-5.3313,-5.6445,-6.0422,-6.1258,-6.2175,-6.3079,-6.3079,-6.3789,-6.5111,-6.4401,-6.5328,-6.7772,-6.7356,-6.7167,-6.7105,-6.7218,-6.6919,-6.652,-6.649,-6.6714,-6.7206,-6.8058,-6.816,-6.7728,-6.8371,-6.6265,-6.257,-2.7306,-2.963,-3.1569,-3.2777,-3.3165,-3.4133,-3.6316,-3.6469,-3.7514,-4.0588,-4.1384,-4.2063,-4.2911,-4.3062,-4.3313,-4.3765,-4.2176,-4.1259,-4.1519,-3.9772,-3.9855,-4.2161,-4.2257,-4.3409,-4.5999,-4.5196,-4.5045,-4.5623,-4.7432,-4.8452,-4.8532,-4.8532,-4.8532,-4.8416,-4.707,-4.6531,-4.6488,-4.5242,-4.5266,-4.6142,-4.5597,-4.5749,-4.6461,-4.6141,-4.4787,-4.2875,-4.1741,-4.0329,-3.9043,-3.9109,-4.0634,-4.2501,-4.2348,-4.3643,-4.5207,-4.4715,-4.4559,-4.3639,-3.9394,-3.8314,-3.7334,-3.342,-3.2193,-3.1743,-3.0385,-3.0004,-3.0996,-3.4404,-3.5413,-3.5486,-3.5573,-3.4151,-3.2452,-3.0652,-3.0511,-3.1293,-3.3271,-3.5099,-3.6809,-3.8681,-3.873,-3.8691,-3.8691,-3.8691,-3.965,-4.1735,-4.4687,-4.798,-5.1739,-5.5758,-5.8794,-6.0451,-6.1644,-6.2321,-6.2672,-6.2672,-6.3592,-6.5297,-6.5297,-6.596,-6.7196,-6.742,-6.7134,-6.6319,-6.6319,-6.6216,-6.6221,-6.6759,-6.7623,-6.8593,-6.8683,-6.8196,-6.745,-6.6492,-6.4079,-6.0986,-2.5442,-2.6628,-2.8031,-3.0624,-3.2365,-3.4133,-3.6316,-3.6189,-3.7569,-4.2125,-4.1574,-4.1322,-4.2849,-4.3413,-4.3714,-4.379,-4.1424,-4.0594,-4.2066,-3.9619,-3.933,-4.2209,-4.2613,-4.3433,-4.4753,-4.5196,-4.5648,-4.62,-4.7224,-4.8057,-4.8532,-4.8532,-4.8532,-4.8442,-4.7478,-4.5896,-4.4147,-4.4801,-4.4126,-4.2723,-4.4548,-4.4711,-4.4001,-4.5489,-4.4165,-4.1524,-4.1305,-4.0126,-3.8924,-4.0392,-4.1418,-4.2327,-4.339,-4.4264,-4.4693,-4.434,-4.4206,-4.3747,-4.1383,-3.9616,-3.7701,-3.5555,-3.3782,-3.2877,-3.4214,-3.4168,-3.4014,-3.5132,-3.6511,-3.7143,-3.5739,-3.5348,-3.4574,-3.2967,-3.2462,-3.3092,-3.5911,-3.6192,-3.703,-3.9368,-3.9355,-3.9121,-3.9121,-3.9121,-4.0529,-4.4022,-4.5102,-4.8603,-5.5208,-5.5276,-5.6757,-6.033,-5.938,-5.938,-6.087,-6.087,-6.2527,-6.6009,-6.6009,-6.643,-6.7228,-6.8516,-6.8305,-6.7032,-6.7001,-6.7035,-6.6879,-6.6939,-6.6812,-6.6504,-6.7186,-6.6578,-6.5273,-6.3127,-6.1581,-6.0382,-2.3644,-2.4068,-2.5113,-2.7487,-2.9865,-3.1817,-3.3155,-3.3948,-3.5581,-3.8557,-3.9639,-4.0476,-4.1558,-4.3258,-4.4267,-4.4267,-4.2664,-4.1883,-4.2734,-4.0558,-4.033,-4.2637,-4.2827,-4.3723,-4.5573,-4.5522,-4.5246,-4.489,-4.7107,-4.7832,-4.7324,-4.8094,-4.8094,-4.7205,-4.587,-4.476,-4.4081,-4.3785,-4.3162,-4.2236,-4.3956,-4.4095,-4.3264,-4.3395,-4.2536,-4.1184,-4.0085,-4.0124,-4.0575,-4.1147,-4.3647,-4.651,-4.6822,-4.8379,-5.0078,-4.9952,-4.916,-4.7816,-4.4658,-4.2754,-4.0734,-3.7586,-3.5501,-3.4822,-3.7017,-3.6497,-3.5833,-3.7014,-3.799,-3.8086,-3.6289,-3.6038,-3.5628,-3.3626,-3.4469,-3.5639,-3.6551,-3.7718,-3.8994,-3.9751,-3.9726,-3.959,-3.959,-3.959,-4.1142,-4.4976,-4.6192,-4.9363,-5.4995,-5.5672,-5.6867,-5.9104,-5.8383,-5.8383,-5.9104,-5.9994,-6.152,-6.3593,-6.5687,-6.7277,-6.8243,-6.8988,-6.864,-6.7569,-6.6246,-6.5802,-6.5914,-6.4828,-6.4529,-6.4708,-6.5327,-6.4387,-6.249,-6.0293,-5.9347,-5.9039]}]]